[[{"header":{"parameterUnit":"m.s-1","parameterCategory":1,"la1":31.0,"la2":29.5877,"lo1":-88.7671,"lo2":-86.6584,"dy":0.0162,"dx":0.0185,"nx":115,"ny":88,"refTime":"2026-04-08T12:00:00:Z","depth":0,"parameterNumber":2,"parameterNumberName":"U-component_of_WINDS"},"data":[0.0,0.0,0.0,0.0,0.0,0.0,0.0,0.0,0.0,0.0,0.0,0.0,0.0,0.0,0.0,0.0,0.0,0.0,0.0,0.0,0.0,0.0,0.0,0.0,0.0,0.0,0.0,0.0,0.0,0.0,0.0,0.0,0.0,0.0,0.0,0.0,0.0,0.0,0.0,0.0,0.0,0.0,0.0,0.0,0.0,0.0,0.0,0.0,0.0,0.0,0.0,0.0,0.0,0.0,0.0,0.0,0.0,0.0,0.0,0.0,0.0,0.0,0.0,0.0,0.0,0.0,0.0,0.0,0.0,0.0,0.0,0.0,0.0,0.0,0.0,0.0,0.0,0.0,0.0,0.0,0.0,0.0,0.0,0.0,0.0,0.0,0.0,0.0,0.0,0.0,0.0,0.0,0.0,0.0,0.0,0.0,0.0,0.0,0.0,0.0,0.0,0.0,0.0,0.0,0.0,0.0,0.0,0.0,0.0,0.0,0.0,0.0,0.0,0.0,0.0,0.0,0.0,0.0,0.0,0.0,0.0,0.0,0.0,0.0,0.0,0.0,0.0,0.0,0.0,0.0,0.0,0.0,0.0,0.0,0.0,0.0,0.0,0.0,0.0,0.0,0.0,0.0,0.0,0.0,0.0,0.0,0.0,0.0,0.0,0.0,0.0,0.0,0.0,0.0,0.0,0.0,0.0,0.0,0.0,0.0,0.0,0.0,0.0,0.0,0.0,0.0,0.0,0.0,0.0,0.0,0.0,0.0,0.0,0.0,0.0,0.0,0.0,0.0,0.0,0.0,0.0,0.0,0.0,0.0,0.0,0.0,0.0,0.0,0.0,0.0,0.0,0.0,0.0,0.0,0.0,0.0,0.0,0.0,0.0,0.0,0.0,0.0,0.0,0.0,0.0,0.0,0.0,0.0,0.0,0.0,0.0,0.0,0.0,0.0,0.0,0.0,0.0,0.0,0.0,0.0,0.0,0.0,0.0,0.0,0.0,0.0,0.0,0.0,0.0,0.0,0.0,0.0,0.0,0.0,0.0,0.0,0.0,0.0,0.0,0.0,0.0,0.0,0.0,0.0,0.0,0.0,0.0,0.0,0.0,0.0,0.0,0.0,0.0,0.0,0.0,0.0,0.0,0.0,0.0,0.0,0.0,0.0,0.0,0.0,0.0,0.0,0.0,0.0,0.0,0.0,0.0,0.0,0.0,0.0,0.0,0.0,0.0,0.0,0.0,0.0,0.0,0.0,0.0,0.0,0.0,0.0,0.0,0.0,0.0,0.0,0.0,0.0,0.0,0.0,0.0,0.0,0.0,0.0,0.0,0.0,0.0,0.0,0.0,0.0,0.0,0.0,0.0,0.0,0.0,0.0,0.0,0.0,0.0,0.0,0.0,0.0,0.0,0.0,0.0,0.0,0.0,0.0,0.0,0.0,0.0,0.0,0.0,0.0,0.0,0.0,0.0,0.0,0.0,0.0,0.0,0.0,0.0,0.0,0.0,0.0,0.0,0.0,0.0,0.0,0.0,0.0,0.0,0.0,0.0,0.0,0.0,0.0,0.0,0.0,0.0,0.0,0.0,0.0,0.0,0.0,0.0,0.0,0.0,0.0,0.0,0.0,0.0,0.0,0.0,0.0,0.0,0.0,0.0,0.0,0.0,0.0,0.0,0.0,0.0,0.0,0.0,0.0,0.0,0.0,0.0,0.0,0.0,0.0,0.0,0.0,0.0,0.0,0.0,0.0,0.0,0.0,0.0,0.0,0.0,0.0,0.0,0.0,0.0,0.0,0.0,0.0,0.0,0.0,0.0,0.0,0.0,0.0,0.0,0.0,0.0,0.0,0.0,0.0,0.0,0.0,0.0,0.0,0.0,0.0,0.0,0.0,0.0,0.0,0.0,0.0,0.0,0.0,0.0,0.0,0.0,0.0,0.0,0.0,0.0,0.0,0.0,0.0,0.0,0.0,0.0,0.0,0.0,0.0,0.0,0.0,0.0,0.0,0.0,0.0,0.0,0.0,0.0,0.0,0.0,0.0,0.0,0.0,0.0,0.0,0.0,0.0,0.0,0.0,0.0,0.0,0.0,0.0,0.0,0.0,0.0,0.0,0.0,0.0,0.0,0.0,0.0,0.0,0.0,0.0,0.0,0.0,0.0,0.0,0.0,0.0,0.0,0.0,0.0,0.0,0.0,0.0,0.0,0.0,0.0,0.0,0.0,0.0,0.0,0.0,0.0,0.0,0.0,0.0,0.0,0.0,0.0,0.0,0.0,0.0,0.0,0.0,0.0,0.0,0.0,0.0,0.0,0.0,0.0,0.0,0.0,0.0,0.0,0.0,0.0,0.0,0.0,0.0,0.0,0.0,0.0,0.0,0.0,0.0,0.0,0.0,0.0,0.0,0.0,0.0,0.0,0.0,0.0,0.0,0.0,0.0,0.0,0.0,0.0,0.0,0.0,0.0,0.0,0.0,0.0,0.0,0.0,0.0,0.0,0.0,0.0,0.0,0.0,0.0,0.0,0.0,0.0,0.0,0.0,0.0,0.0,0.0,0.0,0.0,0.0,0.0,0.0,0.0,0.0,0.0,0.0,0.0,0.0,0.0,0.0,0.0,0.0,0.0,0.0,0.0,0.0,0.0,0.0,0.0,0.0,0.0,0.0,0.0,0.0,0.0,0.0,0.0,0.0,0.0,0.0,0.0,0.0,0.0,0.0,0.0,0.0,0.0,0.0,0.0,0.0,0.0,0.0,0.0,0.0,0.0,0.0,0.0,0.0,0.0,0.0,0.0,0.0,0.0,0.0,0.0,0.0,0.0,0.0,0.0,0.0,0.0,0.0,0.0,0.0,0.0,0.0,0.0,0.0,0.0,0.0,0.0,0.0,0.0,0.0,0.0,0.0,0.0,0.0,0.0,0.0,0.0,0.0,0.0,0.0,0.0,0.0,0.0,0.0,0.0,0.0,0.0,0.0,0.0,0.0,0.0,0.0,0.0,0.0,0.0,0.0,0.0,0.0,0.0,0.0,0.0,0.0,0.0,0.0,0.0,0.0,0.0,0.0,0.0,0.0,0.0,0.0,0.0,0.0,0.0,0.0,0.0,0.0,0.0,0.0,0.0,0.0,0.0,0.0,0.0,0.0,0.0,0.0,0.0,0.0,0.0,0.0,0.0,0.0,0.0,0.0,0.0,0.0,0.0,0.0,0.0,0.0,0.0,0.0,0.0,0.0,0.0,0.0,0.0,0.0,0.0,0.0,0.0,0.0,0.0,0.0,0.0,0.0,0.0,0.0,0.0,0.0,0.0,0.0,0.0,0.0,0.0,0.0,0.0,0.0,0.0,0.0,0.0,0.0,0.0,0.0,0.0,0.0,0.0,0.0,0.0,0.0,0.0,0.0,0.0,0.0,0.0,0.0,0.0,0.0,0.0,0.0,0.0,0.0,0.0,0.0,0.0,0.0,0.0,0.0,0.0,0.0,0.0,0.0,0.0,0.0,0.0,0.0,0.0,0.0,0.0,0.0,0.0,0.0,0.0,0.0,0.0,0.0,0.0,0.0,0.0,0.0,0.0,0.0,0.0,0.0,0.0,0.0,0.0,0.0,0.0,0.0,0.0,0.0,0.0,0.0,0.0,0.0,0.0,0.0,0.0,0.0,0.0,0.0,0.0,0.0,0.0,0.0,0.0,0.0,0.0,0.0,0.0,0.0,0.0,0.0,0.0,0.0,0.0,0.0,0.0,0.0,0.0,0.0,0.0,0.0,0.0,0.0,0.0,0.0,0.0,0.0,0.0,0.0,0.0,0.0,0.0,0.0,0.0,0.0,0.0,0.0,0.0,0.0,0.0,0.0,0.0,0.0,0.0,0.0,0.0,0.0,0.0,0.0,0.0,0.0,0.0,0.0,0.0,0.0,0.0,0.0,0.0,0.0,0.0,0.0,0.0,0.0,0.0,0.0,0.0,0.0,0.0,0.0,0.0,0.0,0.0,0.0,0.0,0.0,0.0,0.0,0.0,0.0,0.0,0.0,0.0,0.0,0.0,0.0,0.0,0.0,0.0,0.0,0.0,0.0,0.0,0.0,0.0,0.0,0.0,0.0,0.0,0.0,0.0,0.0,0.0,0.0,0.0,0.0,0.0,0.0,0.0,0.0,0.0,0.0,0.0,0.0,0.0,0.0,0.0,0.0,0.0,0.0,0.0,0.0,0.0,0.0,0.0,0.0,0.0,0.0,0.0,0.0,0.0,0.0,0.0,0.0,0.0,0.0,0.0,0.0,0.0,-2.4474,0.0,0.0,0.0,0.0,0.0,0.0,0.0,0.0,0.0,0.0,0.0,0.0,0.0,0.0,0.0,0.0,0.0,0.0,0.0,0.0,0.0,0.0,0.0,0.0,0.0,0.0,0.0,0.0,0.0,0.0,0.0,0.0,0.0,0.0,0.0,0.0,0.0,0.0,0.0,0.0,0.0,0.0,0.0,0.0,0.0,0.0,0.0,0.0,0.0,0.0,0.0,0.0,0.0,0.0,0.0,0.0,0.0,0.0,0.0,0.0,0.0,0.0,0.0,0.0,0.0,0.0,0.0,0.0,0.0,0.0,0.0,0.0,0.0,0.0,0.0,0.0,0.0,0.0,0.0,0.0,0.0,0.0,0.0,0.0,0.0,0.0,0.0,0.0,0.0,0.0,0.0,0.0,0.0,0.0,0.0,0.0,0.0,0.0,0.0,0.0,0.0,0.0,0.0,0.0,0.0,0.0,0.0,0.0,0.0,0.0,-2.6691,-2.6691,-2.5286,-2.4508,-2.4474,0.0,0.0,0.0,0.0,0.0,0.0,0.0,0.0,0.0,0.0,0.0,0.0,0.0,0.0,0.0,0.0,0.0,0.0,0.0,0.0,0.0,0.0,0.0,0.0,0.0,0.0,0.0,0.0,0.0,0.0,0.0,0.0,0.0,0.0,0.0,0.0,0.0,0.0,0.0,0.0,0.0,0.0,0.0,0.0,0.0,0.0,0.0,0.0,0.0,0.0,0.0,0.0,0.0,0.0,0.0,0.0,0.0,0.0,0.0,0.0,0.0,0.0,0.0,0.0,0.0,0.0,0.0,0.0,0.0,0.0,0.0,0.0,0.0,0.0,0.0,0.0,0.0,0.0,0.0,0.0,0.0,0.0,0.0,0.0,0.0,0.0,0.0,0.0,0.0,0.0,0.0,0.0,0.0,0.0,0.0,0.0,0.0,0.0,0.0,0.0,0.0,0.0,0.0,0.0,0.0,0.0,0.0,0.0,0.0,0.0,0.0,0.0,-2.5523,-2.4575,-2.4271,0.0,0.0,0.0,0.0,0.0,0.0,0.0,0.0,0.0,0.0,0.0,0.0,0.0,0.0,0.0,0.0,0.0,0.0,0.0,0.0,0.0,0.0,0.0,0.0,0.0,0.0,0.0,0.0,0.0,0.0,0.0,0.0,0.0,0.0,0.0,0.0,0.0,0.0,0.0,0.0,0.0,0.0,0.0,0.0,0.0,0.0,0.0,0.0,0.0,0.0,0.0,0.0,0.0,0.0,0.0,0.0,0.0,0.0,0.0,0.0,0.0,0.0,0.0,0.0,0.0,0.0,0.0,0.0,0.0,0.0,0.0,0.0,0.0,0.0,0.0,0.0,0.0,0.0,0.0,0.0,0.0,0.0,0.0,0.0,0.0,0.0,0.0,0.0,0.0,0.0,0.0,0.0,0.0,0.0,0.0,0.0,0.0,0.0,0.0,0.0,0.0,0.0,0.0,0.0,0.0,0.0,0.0,0.0,0.0,0.0,-2.6996,-2.7655,-2.6269,0.0,-2.356,0.0,0.0,0.0,0.0,0.0,0.0,0.0,0.0,0.0,0.0,0.0,0.0,0.0,0.0,0.0,0.0,0.0,0.0,0.0,0.0,0.0,0.0,0.0,0.0,0.0,0.0,0.0,0.0,0.0,0.0,0.0,0.0,0.0,0.0,0.0,0.0,0.0,0.0,0.0,0.0,0.0,0.0,0.0,0.0,0.0,0.0,0.0,0.0,0.0,0.0,0.0,0.0,0.0,0.0,0.0,0.0,0.0,0.0,0.0,0.0,0.0,0.0,0.0,0.0,0.0,0.0,0.0,0.0,0.0,0.0,0.0,0.0,0.0,0.0,0.0,0.0,0.0,0.0,0.0,0.0,0.0,0.0,0.0,0.0,0.0,0.0,0.0,0.0,0.0,0.0,0.0,0.0,0.0,0.0,0.0,0.0,0.0,0.0,0.0,0.0,0.0,0.0,0.0,0.0,0.0,0.0,0.0,0.0,0.0,0.0,-2.774,-2.8484,-2.7063,-2.5135,0.0,0.0,0.0,0.0,0.0,0.0,0.0,0.0,0.0,0.0,0.0,0.0,0.0,0.0,0.0,0.0,0.0,0.0,0.0,0.0,0.0,0.0,0.0,0.0,0.0,0.0,0.0,0.0,0.0,0.0,0.0,0.0,0.0,0.0,0.0,0.0,0.0,0.0,0.0,0.0,0.0,0.0,0.0,0.0,0.0,0.0,0.0,0.0,0.0,0.0,0.0,0.0,0.0,0.0,0.0,0.0,0.0,0.0,0.0,0.0,0.0,0.0,0.0,0.0,0.0,0.0,0.0,0.0,0.0,0.0,0.0,0.0,0.0,0.0,0.0,0.0,0.0,0.0,0.0,0.0,0.0,0.0,0.0,0.0,0.0,0.0,0.0,0.0,0.0,0.0,0.0,0.0,0.0,0.0,0.0,0.0,0.0,0.0,0.0,0.0,0.0,0.0,0.0,0.0,0.0,0.0,0.0,0.0,0.0,0.0,-2.7232,-2.7756,-2.8263,-2.7248,-2.5341,-2.2627,0.0,0.0,0.0,0.0,0.0,0.0,0.0,0.0,0.0,0.0,0.0,0.0,0.0,0.0,0.0,0.0,0.0,0.0,0.0,0.0,0.0,0.0,0.0,0.0,0.0,0.0,0.0,0.0,0.0,0.0,0.0,0.0,0.0,0.0,0.0,0.0,0.0,0.0,0.0,0.0,0.0,0.0,0.0,0.0,0.0,0.0,0.0,0.0,0.0,0.0,0.0,0.0,0.0,0.0,0.0,0.0,0.0,0.0,0.0,0.0,0.0,0.0,0.0,0.0,0.0,0.0,0.0,0.0,0.0,0.0,0.0,0.0,0.0,0.0,0.0,0.0,0.0,0.0,0.0,0.0,0.0,0.0,0.0,0.0,0.0,0.0,0.0,0.0,0.0,0.0,0.0,0.0,0.0,0.0,0.0,0.0,0.0,0.0,0.0,0.0,0.0,0.0,0.0,0.0,0.0,0.0,0.0,0.0,-2.6691,-2.6776,-2.6759,-2.6758,-2.6571,-2.5463,0.0,0.0,0.0,0.0,0.0,0.0,0.0,0.0,0.0,0.0,0.0,0.0,0.0,0.0,0.0,0.0,0.0,0.0,0.0,0.0,0.0,0.0,0.0,0.0,0.0,0.0,0.0,0.0,0.0,0.0,0.0,0.0,0.0,0.0,0.0,0.0,0.0,0.0,0.0,0.0,0.0,0.0,0.0,0.0,0.0,0.0,0.0,0.0,0.0,0.0,0.0,0.0,0.0,0.0,0.0,0.0,0.0,0.0,0.0,0.0,0.0,0.0,0.0,0.0,0.0,0.0,0.0,0.0,0.0,0.0,0.0,0.0,0.0,0.0,0.0,0.0,0.0,0.0,0.0,0.0,0.0,0.0,0.0,0.0,0.0,0.0,0.0,0.0,0.0,0.0,0.0,0.0,0.0,0.0,0.0,0.0,0.0,0.0,0.0,0.0,0.0,0.0,0.0,0.0,0.0,0.0,0.0,0.0,0.0,-2.6759,-2.7656,-2.7653,-2.6605,-2.6331,-2.4763,0.0,0.0,0.0,0.0,0.0,0.0,0.0,0.0,0.0,0.0,0.0,0.0,0.0,0.0,0.0,0.0,0.0,0.0,0.0,0.0,0.0,0.0,0.0,0.0,0.0,0.0,0.0,0.0,0.0,0.0,0.0,0.0,0.0,0.0,0.0,0.0,0.0,0.0,0.0,0.0,0.0,0.0,0.0,0.0,0.0,0.0,0.0,0.0,0.0,0.0,0.0,0.0,0.0,0.0,0.0,0.0,0.0,0.0,0.0,0.0,0.0,0.0,0.0,0.0,0.0,0.0,0.0,0.0,0.0,0.0,0.0,0.0,0.0,0.0,0.0,0.0,0.0,0.0,0.0,0.0,0.0,0.0,0.0,0.0,0.0,0.0,0.0,0.0,0.0,0.0,0.0,0.0,0.0,0.0,0.0,0.0,0.0,0.0,0.0,0.0,0.0,0.0,0.0,0.0,0.0,0.0,0.0,0.0,0.0,-2.7063,0.0,-2.8385,-2.6712,-2.6162,-2.4391,0.0,0.0,0.0,0.0,0.0,0.0,0.0,0.0,0.0,0.0,0.0,0.0,0.0,0.0,0.0,0.0,0.0,0.0,0.0,0.0,0.0,0.0,0.0,0.0,0.0,0.0,0.0,0.0,0.0,0.0,0.0,0.0,0.0,0.0,0.0,0.0,0.0,0.0,0.0,0.0,0.0,0.0,0.0,0.0,0.0,0.0,0.0,0.0,0.0,0.0,0.0,0.0,0.0,0.0,0.0,0.0,0.0,0.0,0.0,0.0,0.0,0.0,0.0,0.0,0.0,0.0,0.0,0.0,0.0,0.0,0.0,0.0,0.0,0.0,0.0,0.0,0.0,0.0,0.0,0.0,0.0,0.0,0.0,0.0,0.0,0.0,0.0,0.0,0.0,0.0,0.0,0.0,0.0,0.0,0.0,0.0,0.0,0.0,0.0,0.0,0.0,0.0,0.0,0.0,0.0,0.0,0.0,0.0,-2.706,-2.7734,-2.9015,-2.8818,-2.6962,-2.5997,-2.442,0.0,0.0,0.0,0.0,0.0,0.0,0.0,0.0,0.0,0.0,0.0,0.0,0.0,0.0,0.0,0.0,0.0,0.0,0.0,0.0,0.0,0.0,0.0,0.0,0.0,0.0,0.0,0.0,0.0,0.0,0.0,0.0,0.0,0.0,0.0,0.0,0.0,0.0,0.0,0.0,0.0,0.0,0.0,0.0,0.0,0.0,0.0,0.0,0.0,0.0,0.0,0.0,0.0,0.0,0.0,0.0,0.0,0.0,0.0,0.0,0.0,0.0,0.0,0.0,0.0,0.0,0.0,0.0,0.0,0.0,0.0,0.0,0.0,0.0,0.0,0.0,0.0,0.0,0.0,0.0,0.0,0.0,0.0,0.0,0.0,0.0,0.0,0.0,0.0,0.0,0.0,0.0,0.0,0.0,0.0,0.0,0.0,0.0,0.0,0.0,0.0,0.0,0.0,0.0,0.0,0.0,0.0,0.0,0.0,-2.913,-2.9722,-2.9165,-2.7304,-2.6059,-2.4214,0.0,0.0,0.0,0.0,0.0,0.0,0.0,0.0,0.0,0.0,0.0,0.0,0.0,0.0,0.0,0.0,0.0,0.0,0.0,0.0,0.0,0.0,0.0,0.0,0.0,0.0,0.0,0.0,0.0,0.0,0.0,0.0,0.0,0.0,0.0,0.0,0.0,0.0,0.0,0.0,0.0,0.0,0.0,0.0,0.0,0.0,0.0,0.0,0.0,0.0,0.0,0.0,0.0,0.0,0.0,0.0,0.0,0.0,0.0,0.0,0.0,0.0,0.0,0.0,0.0,0.0,0.0,0.0,0.0,0.0,0.0,0.0,0.0,0.0,0.0,0.0,0.0,0.0,0.0,0.0,0.0,0.0,0.0,0.0,0.0,0.0,0.0,0.0,0.0,0.0,0.0,0.0,0.0,0.0,0.0,0.0,0.0,0.0,0.0,0.0,0.0,0.0,0.0,0.0,0.0,0.0,0.0,0.0,0.0,-3.3048,-3.2666,-3.1417,-2.9275,-2.7391,-2.525,-2.2773,0.0,0.0,0.0,0.0,0.0,0.0,0.0,0.0,0.0,0.0,0.0,0.0,0.0,0.0,0.0,0.0,0.0,0.0,0.0,0.0,0.0,0.0,0.0,0.0,0.0,0.0,0.0,0.0,0.0,0.0,0.0,0.0,0.0,0.0,0.0,0.0,0.0,0.0,0.0,0.0,0.0,0.0,0.0,0.0,0.0,0.0,0.0,0.0,0.0,0.0,0.0,0.0,0.0,0.0,0.0,0.0,0.0,0.0,0.0,0.0,0.0,0.0,0.0,0.0,0.0,0.0,0.0,0.0,0.0,0.0,0.0,0.0,0.0,0.0,0.0,0.0,0.0,0.0,0.0,0.0,0.0,0.0,0.0,0.0,0.0,0.0,0.0,0.0,0.0,0.0,0.0,0.0,0.0,0.0,0.0,0.0,0.0,0.0,0.0,0.0,0.0,0.0,0.0,0.0,0.0,0.0,0.0,0.0,-3.8786,-3.7541,-3.5503,-3.2627,-2.9912,-2.7357,0.0,0.0,0.0,0.0,0.0,0.0,0.0,0.0,0.0,0.0,0.0,0.0,0.0,0.0,0.0,0.0,0.0,0.0,0.0,0.0,0.0,0.0,0.0,0.0,0.0,0.0,0.0,0.0,0.0,0.0,0.0,0.0,0.0,0.0,0.0,0.0,0.0,0.0,0.0,0.0,0.0,0.0,0.0,0.0,0.0,0.0,0.0,0.0,0.0,0.0,0.0,0.0,0.0,0.0,0.0,0.0,0.0,0.0,0.0,0.0,0.0,0.0,0.0,0.0,0.0,0.0,0.0,0.0,0.0,0.0,0.0,0.0,0.0,0.0,0.0,0.0,0.0,0.0,0.0,0.0,0.0,0.0,0.0,0.0,0.0,0.0,0.0,0.0,0.0,0.0,0.0,0.0,0.0,0.0,0.0,0.0,0.0,0.0,0.0,0.0,0.0,0.0,0.0,0.0,0.0,0.0,0.0,0.0,0.0,-4.0096,-4.2106,-4.0832,-3.6014,-3.2924,-2.9729,0.0,0.0,0.0,0.0,0.0,0.0,0.0,0.0,0.0,0.0,0.0,0.0,0.0,0.0,0.0,0.0,0.0,0.0,0.0,0.0,0.0,0.0,0.0,0.0,0.0,0.0,0.0,0.0,0.0,0.0,0.0,0.0,0.0,0.0,0.0,0.0,0.0,0.0,0.0,0.0,0.0,0.0,0.0,0.0,0.0,0.0,0.0,0.0,0.0,0.0,0.0,0.0,0.0,0.0,0.0,0.0,0.0,0.0,0.0,0.0,0.0,0.0,0.0,0.0,0.0,0.0,0.0,0.0,0.0,0.0,0.0,0.0,0.0,0.0,0.0,0.0,0.0,0.0,0.0,0.0,0.0,0.0,0.0,0.0,0.0,0.0,0.0,0.0,0.0,0.0,0.0,0.0,0.0,0.0,0.0,0.0,0.0,0.0,0.0,0.0,0.0,0.0,0.0,0.0,0.0,0.0,0.0,0.0,-3.8195,-4.1643,-4.5395,-4.5054,-4.0259,-3.5972,-3.2048,0.0,0.0,0.0,0.0,0.0,0.0,0.0,0.0,0.0,0.0,0.0,0.0,0.0,0.0,0.0,0.0,0.0,0.0,0.0,0.0,0.0,0.0,0.0,0.0,0.0,0.0,0.0,0.0,0.0,0.0,0.0,0.0,0.0,0.0,0.0,0.0,0.0,0.0,0.0,0.0,0.0,0.0,0.0,0.0,0.0,0.0,0.0,0.0,0.0,0.0,0.0,0.0,0.0,0.0,0.0,0.0,0.0,0.0,0.0,0.0,0.0,0.0,0.0,0.0,0.0,0.0,0.0,0.0,0.0,0.0,0.0,0.0,0.0,0.0,0.0,0.0,0.0,0.0,0.0,0.0,0.0,0.0,0.0,0.0,0.0,0.0,0.0,0.0,0.0,0.0,0.0,0.0,0.0,0.0,0.0,0.0,0.0,0.0,0.0,0.0,0.0,0.0,0.0,0.0,0.0,0.0,0.0,0.0,-3.9183,-4.3127,-4.7477,-4.806,-4.4572,-3.9038,-3.4442,0.0,0.0,0.0,0.0,0.0,0.0,0.0,0.0,0.0,0.0,0.0,0.0,0.0,0.0,0.0,0.0,0.0,0.0,0.0,0.0,0.0,0.0,0.0,0.0,0.0,0.0,0.0,0.0,0.0,0.0,0.0,0.0,0.0,0.0,0.0,0.0,0.0,0.0,0.0,0.0,0.0,0.0,0.0,0.0,0.0,0.0,0.0,0.0,0.0,0.0,0.0,0.0,0.0,0.0,0.0,0.0,0.0,0.0,0.0,0.0,0.0,0.0,0.0,0.0,0.0,0.0,0.0,0.0,0.0,0.0,0.0,0.0,0.0,0.0,0.0,0.0,0.0,0.0,0.0,0.0,0.0,0.0,0.0,0.0,0.0,0.0,0.0,0.0,0.0,0.0,0.0,0.0,0.0,0.0,0.0,0.0,0.0,0.0,0.0,0.0,0.0,0.0,0.0,0.0,0.0,0.0,0.0,0.0,-4.0436,-4.367,-4.7395,-4.8309,-4.6161,-4.2234,-3.7888,0.0,0.0,0.0,0.0,0.0,0.0,0.0,0.0,0.0,0.0,0.0,0.0,0.0,0.0,0.0,0.0,0.0,0.0,0.0,0.0,0.0,0.0,0.0,0.0,0.0,0.0,0.0,0.0,0.0,0.0,0.0,0.0,0.0,0.0,0.0,0.0,0.0,0.0,0.0,0.0,0.0,0.0,0.0,0.0,0.0,0.0,0.0,0.0,-1.9408,0.0,0.0,0.0,0.0,0.0,0.0,0.0,0.0,0.0,0.0,0.0,0.0,0.0,0.0,0.0,0.0,0.0,0.0,0.0,0.0,0.0,0.0,0.0,0.0,0.0,0.0,0.0,0.0,0.0,0.0,0.0,0.0,0.0,0.0,0.0,0.0,0.0,0.0,0.0,0.0,0.0,0.0,0.0,0.0,0.0,0.0,0.0,0.0,0.0,0.0,0.0,0.0,0.0,0.0,0.0,0.0,0.0,0.0,0.0,-4.1721,-4.4519,-4.7933,-4.8783,-4.6941,-4.4847,-4.0935,0.0,0.0,0.0,0.0,0.0,0.0,0.0,0.0,0.0,0.0,0.0,0.0,0.0,0.0,0.0,0.0,0.0,0.0,0.0,0.0,0.0,0.0,0.0,0.0,0.0,0.0,0.0,0.0,0.0,0.0,0.0,0.0,0.0,0.0,0.0,0.0,0.0,0.0,0.0,0.0,0.0,0.0,0.0,0.0,0.0,0.0,0.0,0.0,0.0,0.0,0.0,0.0,0.0,0.0,0.0,0.0,0.0,0.0,0.0,0.0,0.0,0.0,0.0,0.0,0.0,0.0,0.0,0.0,0.0,0.0,0.0,0.0,0.0,0.0,0.0,0.0,0.0,0.0,0.0,0.0,0.0,0.0,0.0,0.0,0.0,0.0,0.0,0.0,0.0,0.0,0.0,0.0,0.0,0.0,0.0,0.0,0.0,0.0,0.0,0.0,0.0,0.0,0.0,0.0,0.0,0.0,0.0,-3.9439,-4.306,-4.5574,-4.8611,-4.9299,-4.7519,-4.6531,-4.306,-3.6836,0.0,0.0,0.0,0.0,0.0,0.0,0.0,0.0,0.0,0.0,0.0,0.0,0.0,0.0,0.0,0.0,0.0,0.0,0.0,0.0,0.0,0.0,0.0,0.0,0.0,0.0,0.0,0.0,0.0,0.0,0.0,0.0,0.0,0.0,0.0,0.0,0.0,0.0,-1.7196,-1.9113,0.0,0.0,0.0,0.0,0.0,0.0,0.0,0.0,-1.9373,0.0,0.0,0.0,0.0,0.0,0.0,0.0,0.0,0.0,0.0,0.0,0.0,0.0,0.0,0.0,0.0,0.0,0.0,0.0,0.0,0.0,0.0,0.0,0.0,0.0,0.0,0.0,0.0,0.0,0.0,0.0,0.0,0.0,0.0,0.0,0.0,0.0,0.0,0.0,0.0,0.0,0.0,0.0,0.0,0.0,0.0,0.0,0.0,0.0,0.0,0.0,0.0,0.0,0.0,0.0,0.0,-3.6151,-4.1235,-4.4855,-4.695,-4.906,-4.9508,-4.8117,-4.5873,-4.2312,-3.7434,0.0,0.0,0.0,0.0,0.0,0.0,0.0,0.0,0.0,0.0,0.0,0.0,0.0,0.0,0.0,0.0,0.0,0.0,0.0,0.0,0.0,0.0,0.0,0.0,0.0,0.0,0.0,0.0,0.0,0.0,0.0,0.0,0.0,0.0,0.0,0.0,0.0,0.0,0.0,-2.1414,-2.266,0.0,0.0,0.0,0.0,0.0,0.0,0.0,0.0,-1.9827,0.0,0.0,0.0,0.0,0.0,0.0,0.0,0.0,0.0,0.0,0.0,0.0,0.0,0.0,0.0,0.0,0.0,0.0,0.0,0.0,0.0,0.0,0.0,0.0,0.0,0.0,0.0,0.0,0.0,0.0,0.0,0.0,0.0,0.0,0.0,0.0,0.0,0.0,0.0,0.0,0.0,0.0,0.0,0.0,0.0,0.0,0.0,0.0,0.0,0.0,0.0,0.0,0.0,0.0,0.0,-3.7973,-4.318,-4.6651,-4.8297,-4.9912,-4.9793,-4.7788,-4.4885,-4.1145,0.0,0.0,0.0,0.0,0.0,0.0,0.0,0.0,0.0,0.0,0.0,0.0,0.0,0.0,0.0,0.0,0.0,0.0,0.0,0.0,0.0,0.0,0.0,0.0,0.0,0.0,0.0,0.0,0.0,0.0,0.0,0.0,0.0,0.0,0.0,0.0,0.0,0.0,0.0,0.0,-2.2868,-2.4305,-2.3604,0.0,0.0,0.0,0.0,0.0,0.0,-2.0428,-2.0282,0.0,0.0,0.0,0.0,0.0,0.0,0.0,0.0,0.0,0.0,0.0,0.0,0.0,0.0,0.0,0.0,0.0,0.0,0.0,0.0,0.0,0.0,0.0,0.0,0.0,0.0,0.0,0.0,0.0,0.0,0.0,0.0,0.0,0.0,0.0,0.0,0.0,0.0,0.0,0.0,0.0,0.0,0.0,0.0,0.0,0.0,0.0,0.0,0.0,0.0,0.0,0.0,0.0,0.0,0.0,-3.9343,-4.4616,-4.7938,-4.9299,-5.0541,-4.9912,-4.716,-4.4018,-4.0164,0.0,0.0,0.0,0.0,0.0,0.0,0.0,0.0,0.0,0.0,0.0,0.0,0.0,0.0,0.0,0.0,0.0,0.0,0.0,0.0,0.0,0.0,0.0,0.0,0.0,0.0,0.0,0.0,0.0,0.0,0.0,0.0,0.0,0.0,0.0,0.0,0.0,0.0,0.0,0.0,0.0,-2.5863,-2.5455,-2.5929,0.0,0.0,0.0,0.0,-2.1635,-2.1429,0.0,0.0,0.0,0.0,0.0,0.0,0.0,0.0,0.0,0.0,0.0,0.0,0.0,0.0,0.0,0.0,0.0,0.0,0.0,0.0,0.0,0.0,0.0,0.0,0.0,0.0,0.0,0.0,0.0,0.0,0.0,0.0,0.0,0.0,0.0,0.0,0.0,0.0,0.0,0.0,0.0,0.0,0.0,0.0,0.0,0.0,0.0,0.0,0.0,0.0,0.0,0.0,0.0,0.0,0.0,0.0,-3.9343,-4.4616,-4.7938,-4.9299,-5.0541,-4.9703,-4.6488,-4.3778,-3.9955,0.0,0.0,0.0,0.0,0.0,0.0,0.0,0.0,0.0,0.0,0.0,0.0,0.0,0.0,0.0,0.0,0.0,0.0,0.0,0.0,0.0,0.0,0.0,0.0,0.0,0.0,0.0,0.0,0.0,0.0,0.0,0.0,0.0,0.0,0.0,0.0,0.0,0.0,0.0,0.0,0.0,-2.7756,-2.84,-2.8536,-2.83,0.0,0.0,-2.4525,-2.4417,-2.3936,0.0,0.0,0.0,0.0,0.0,0.0,0.0,0.0,0.0,0.0,0.0,0.0,0.0,0.0,0.0,0.0,0.0,0.0,0.0,0.0,0.0,0.0,0.0,0.0,0.0,0.0,0.0,0.0,0.0,0.0,0.0,0.0,0.0,0.0,0.0,0.0,0.0,0.0,0.0,0.0,0.0,0.0,0.0,0.0,0.0,0.0,0.0,0.0,0.0,0.0,0.0,0.0,0.0,0.0,0.0,-3.4111,-3.9343,-4.4616,-4.7938,-4.9299,-5.0541,-4.9643,-4.6339,-4.3389,-3.9356,0.0,0.0,0.0,0.0,0.0,0.0,0.0,0.0,0.0,0.0,0.0,0.0,0.0,0.0,0.0,0.0,0.0,0.0,0.0,0.0,0.0,0.0,0.0,0.0,0.0,0.0,0.0,0.0,0.0,0.0,0.0,0.0,0.0,0.0,0.0,0.0,0.0,0.0,0.0,0.0,0.0,0.0,-2.9499,-2.9991,0.0,0.0,0.0,-2.7198,-2.7198,0.0,0.0,0.0,0.0,0.0,0.0,0.0,0.0,0.0,0.0,0.0,0.0,0.0,0.0,0.0,0.0,0.0,0.0,0.0,0.0,0.0,0.0,0.0,0.0,0.0,0.0,0.0,0.0,0.0,0.0,0.0,0.0,0.0,0.0,0.0,0.0,0.0,0.0,0.0,0.0,0.0,0.0,0.0,0.0,0.0,0.0,0.0,0.0,0.0,0.0,0.0,0.0,0.0,0.0,0.0,0.0,0.0,-3.9343,-4.4616,-4.7938,-4.9299,-5.0541,-4.9598,-4.6411,-4.3419,0.0,0.0,0.0,0.0,0.0,0.0,0.0,0.0,0.0,0.0,0.0,0.0,0.0,0.0,0.0,0.0,0.0,0.0,0.0,0.0,0.0,0.0,0.0,0.0,0.0,0.0,0.0,-1.2393,0.0,0.0,0.0,0.0,0.0,0.0,0.0,0.0,0.0,0.0,0.0,0.0,0.0,0.0,-2.9619,-3.0514,-3.1596,-3.1968,0.0,0.0,-2.9973,-2.9585,-2.889,-2.7605,0.0,0.0,0.0,0.0,0.0,0.0,0.0,0.0,0.0,0.0,0.0,0.0,0.0,0.0,0.0,0.0,0.0,0.0,0.0,0.0,0.0,0.0,0.0,0.0,0.0,0.0,0.0,0.0,0.0,0.0,0.0,0.0,0.0,0.0,0.0,0.0,0.0,0.0,0.0,0.0,0.0,0.0,0.0,0.0,0.0,0.0,0.0,0.0,0.0,0.0,0.0,0.0,0.0,0.0,-3.4111,-3.9343,-4.4616,-4.7938,-4.9299,-5.0541,-4.9643,-4.6369,-4.4287,-4.0427,0.0,0.0,0.0,0.0,0.0,0.0,0.0,0.0,0.0,0.0,0.0,0.0,0.0,0.0,0.0,0.0,0.0,0.0,0.0,0.0,0.0,0.0,0.0,0.0,0.0,0.0,0.0,0.0,0.0,0.0,0.0,0.0,0.0,0.0,0.0,0.0,0.0,0.0,0.0,0.0,0.0,-3.0548,-3.1955,-3.3964,-3.4788,0.0,-3.3152,-3.2645,-3.1258,-3.0446,-2.8976,-2.6112,0.0,0.0,0.0,0.0,0.0,0.0,0.0,0.0,0.0,0.0,0.0,0.0,0.0,0.0,0.0,0.0,0.0,0.0,0.0,0.0,0.0,0.0,0.0,0.0,0.0,0.0,0.0,0.0,0.0,0.0,0.0,0.0,0.0,0.0,0.0,0.0,0.0,0.0,0.0,0.0,0.0,0.0,0.0,0.0,0.0,0.0,0.0,0.0,0.0,0.0,0.0,0.0,0.0,-3.4111,-3.9343,-4.4616,-4.7938,-4.9299,-5.0541,-5.0032,-4.7578,-4.5603,-4.1953,0.0,0.0,0.0,0.0,0.0,0.0,0.0,0.0,0.0,0.0,0.0,0.0,0.0,0.0,0.0,0.0,0.0,0.0,0.0,0.0,0.0,0.0,0.0,0.0,0.0,0.0,0.0,0.0,-1.3843,-1.4478,-1.5339,0.0,0.0,0.0,0.0,0.0,0.0,0.0,0.0,0.0,0.0,-3.163,-3.3998,-3.5487,0.0,0.0,-3.5791,-3.5115,-3.4078,-3.2916,-3.0987,-2.7554,-2.4569,0.0,0.0,0.0,0.0,0.0,0.0,0.0,0.0,0.0,0.0,0.0,0.0,0.0,0.0,0.0,0.0,0.0,0.0,0.0,0.0,0.0,0.0,0.0,0.0,0.0,0.0,0.0,0.0,0.0,0.0,0.0,0.0,0.0,0.0,0.0,0.0,0.0,0.0,0.0,0.0,0.0,0.0,0.0,0.0,0.0,0.0,0.0,0.0,0.0,0.0,0.0,0.0,-3.4082,-3.9343,-4.4616,-4.7938,-4.9299,-5.0541,-5.0272,-4.8327,-4.6531,-4.312,0.0,0.0,0.0,0.0,0.0,0.0,0.0,0.0,0.0,0.0,0.0,0.0,0.0,0.0,0.0,0.0,0.0,0.0,0.0,0.0,0.0,0.0,0.0,0.0,0.0,0.0,0.0,0.0,-1.4749,-1.5099,-1.597,0.0,0.0,0.0,0.0,0.0,0.0,0.0,0.0,0.0,0.0,-3.251,-3.5228,-3.6468,-3.7337,-3.7855,-3.7449,-3.6772,-3.5735,-3.4349,-3.2286,-2.9007,0.0,0.0,0.0,0.0,0.0,0.0,0.0,0.0,0.0,0.0,0.0,0.0,0.0,0.0,0.0,0.0,0.0,0.0,0.0,0.0,0.0,0.0,0.0,0.0,0.0,0.0,0.0,-2.3773,0.0,0.0,-2.3678,0.0,0.0,0.0,0.0,0.0,0.0,0.0,0.0,0.0,0.0,0.0,0.0,0.0,0.0,0.0,0.0,0.0,0.0,0.0,0.0,0.0,0.0,-3.4111,-3.9373,-4.4646,-4.7967,-4.9299,-5.0541,-5.0301,-4.8401,-4.701,-4.3808,-3.8482,0.0,0.0,0.0,0.0,0.0,0.0,0.0,0.0,0.0,0.0,0.0,0.0,0.0,0.0,0.0,0.0,0.0,0.0,0.0,0.0,0.0,0.0,0.0,0.0,0.0,0.0,-1.6517,-1.6388,-1.6293,0.0,0.0,0.0,0.0,0.0,0.0,0.0,0.0,0.0,0.0,-3.0871,-3.3106,-3.5295,-3.6941,-3.7889,-3.7922,-3.7922,-3.7381,-3.587,-3.4382,-3.2624,0.0,0.0,0.0,0.0,0.0,0.0,0.0,0.0,0.0,0.0,0.0,0.0,0.0,0.0,0.0,0.0,0.0,0.0,0.0,0.0,0.0,0.0,0.0,0.0,0.0,0.0,0.0,-2.8849,-2.8497,0.0,0.0,0.0,0.0,0.0,0.0,0.0,0.0,0.0,0.0,0.0,-3.7464,-3.7883,0.0,0.0,0.0,0.0,0.0,0.0,0.0,0.0,0.0,0.0,0.0,0.0,-3.522,-4.0038,-4.5274,-4.8386,-4.9299,-5.0541,-5.0481,-4.8985,-4.7668,-4.3868,-3.7345,0.0,0.0,0.0,0.0,0.0,0.0,0.0,0.0,0.0,0.0,0.0,0.0,0.0,0.0,0.0,0.0,0.0,0.0,0.0,0.0,0.0,0.0,0.0,0.0,0.0,-1.6518,0.0,0.0,0.0,0.0,0.0,0.0,0.0,0.0,0.0,0.0,0.0,-2.532,-2.857,-3.0905,-3.3106,-3.5295,-3.7347,-3.8633,0.0,0.0,0.0,0.0,0.0,0.0,0.0,0.0,0.0,0.0,0.0,0.0,0.0,0.0,-3.0145,-2.9039,-2.829,-2.7769,-2.7502,0.0,0.0,0.0,0.0,0.0,0.0,0.0,0.0,0.0,0.0,0.0,0.0,0.0,0.0,-3.3235,0.0,-3.2169,0.0,0.0,0.0,0.0,0.0,0.0,0.0,0.0,-4.0449,-4.1953,-4.2162,-4.2581,-4.2581,0.0,-4.2372,-3.9978,0.0,0.0,0.0,0.0,0.0,0.0,0.0,0.0,-3.6118,-4.0726,-4.5484,-4.8267,-4.8925,-4.9972,-5.0032,-4.897,-4.698,-4.3299,-3.7674,-3.4322,-3.1031,0.0,0.0,0.0,0.0,0.0,0.0,0.0,0.0,0.0,0.0,0.0,0.0,0.0,0.0,0.0,0.0,0.0,0.0,0.0,0.0,0.0,0.0,0.0,-1.7595,0.0,0.0,0.0,0.0,0.0,0.0,0.0,0.0,0.0,-2.3037,-2.5009,-2.7385,-2.9822,-3.1819,-3.3863,-3.6096,0.0,0.0,0.0,0.0,0.0,0.0,0.0,-3.4979,-3.402,-3.3884,-3.3783,-3.3558,-3.3715,-3.3715,-3.3241,0.0,0.0,-3.316,-3.2472,-3.2056,-3.1505,-3.0227,-2.8625,-2.6705,-2.6204,-2.6023,0.0,0.0,0.0,0.0,0.0,0.0,0.0,0.0,-3.6749,-3.715,0.0,-3.5633,0.0,0.0,0.0,0.0,0.0,-3.519,0.0,0.0,-4.4825,-4.6741,-4.7279,-4.7309,-4.7339,-4.7309,-4.6651,-4.5603,-4.3898,-3.7255,0.0,0.0,0.0,0.0,0.0,0.0,-3.69,-4.1414,-4.5364,-4.7638,-4.8297,-4.8955,-4.903,-4.8267,-4.5185,-4.2282,-3.9612,-3.6417,-3.3156,-2.9891,-2.72,0.0,0.0,0.0,0.0,0.0,0.0,0.0,0.0,0.0,0.0,0.0,0.0,0.0,0.0,0.0,0.0,0.0,0.0,0.0,0.0,-1.9001,0.0,0.0,0.0,0.0,0.0,0.0,0.0,0.0,0.0,0.0,-2.5405,-2.8098,-3.0649,-3.2056,0.0,0.0,0.0,0.0,-3.9546,-4.1001,-4.0663,-4.0248,-4.0146,-3.8352,-3.6965,-3.6931,0.0,0.0,-3.7956,-3.7449,-3.6965,-3.6931,-3.7,-3.6683,-3.5655,-3.5402,-3.5192,-3.4671,-3.3458,-3.2224,-3.0965,-2.9904,-2.9522,-4.2624,0.0,0.0,0.0,0.0,-3.8732,-4.0105,-4.1505,-4.1859,-4.1967,-4.1791,-4.0559,0.0,0.0,0.0,0.0,0.0,0.0,-4.1953,-4.4287,-4.71,-4.8536,-4.8716,-4.9194,-4.9164,-4.8716,-4.8506,-4.7489,-4.5663,-4.2701,-3.8931,-3.4533,0.0,0.0,0.0,0.0,-3.908,-4.2731,-4.6232,-4.8087,-4.8297,-4.897,-4.9,-4.8297,-4.5992,-4.4167,-4.2901,-3.9738,-3.6477,-3.3246,-3.0131,0.0,0.0,0.0,0.0,0.0,0.0,0.0,0.0,0.0,0.0,0.0,0.0,0.0,0.0,0.0,0.0,0.0,0.0,0.0,-1.9702,-2.1036,-2.1306,0.0,0.0,0.0,0.0,0.0,0.0,0.0,0.0,0.0,-2.9848,-3.0496,-3.1224,0.0,0.0,-3.4539,-3.6772,-3.8657,-4.0316,-4.1779,-4.2692,0.0,-4.1839,-4.0696,-3.9918,-3.9918,-4.0358,-4.0967,-4.1685,-4.1238,-4.0527,-4.002,-3.9943,-3.9679,-3.8874,-3.7659,-3.6721,-3.6043,-3.4891,-3.3371,-3.1659,-3.1208,-3.1095,-4.7803,-4.4077,-4.329,-4.2997,-4.312,-4.4115,-4.54,-4.6786,-4.6495,-4.6203,-4.5844,-4.4544,-4.3056,-4.1453,-4.0406,0.0,0.0,0.0,-4.5603,-4.7339,-4.9464,-5.0617,-5.084,-5.096,-5.081,-5.0421,-4.9912,-4.9045,-4.7804,-4.6262,-4.3778,-4.0307,0.0,0.0,-3.7015,-3.8482,-4.0666,-4.3688,-4.6471,-4.7908,-4.7908,-4.8297,-4.8177,-4.7489,-4.6082,-4.4855,-4.3888,-4.1227,-3.8392,-3.54,-3.2377,-2.9056,0.0,0.0,0.0,0.0,0.0,0.0,0.0,0.0,0.0,0.0,0.0,-1.4916,-1.4244,0.0,0.0,0.0,-1.9403,-2.1096,-2.2153,-2.3221,0.0,0.0,0.0,0.0,0.0,0.0,0.0,-2.6504,-2.8955,-3.1153,-3.2737,-3.3195,-3.3538,-3.3924,-3.4665,-3.5791,-3.7438,0.0,-4.0933,-4.2117,-4.3633,-4.4276,-4.3362,-4.2557,-4.2083,-4.2083,-4.2455,-4.2997,-4.3707,-4.3234,-4.2591,-4.2151,-4.161,-4.1068,-4.0595,-3.8942,-3.7501,-3.7131,-3.6015,-3.4627,-3.3195,-3.2731,-3.2409,-5.1398,-4.9881,-4.8534,-4.8101,-4.8346,-4.9442,-5.0612,-5.1651,-5.0353,-4.9666,-4.931,-4.7591,-4.6574,-4.6052,-4.502,0.0,-4.5669,-4.7625,-4.9119,-5.0405,-5.1768,-5.2636,-5.3144,-5.2546,-5.2247,-5.2157,-5.087,-5.0166,-4.9986,-4.8327,-4.707,-4.6172,-4.0277,-3.8123,-3.9702,-4.0427,-4.1953,-4.4436,-4.6352,-4.7309,-4.7309,-4.7309,-4.698,-4.6352,-4.5663,-4.4676,-4.3319,-4.1504,-3.926,-3.6656,-3.4083,-3.118,-2.7944,0.0,0.0,0.0,0.0,0.0,0.0,0.0,0.0,0.0,0.0,0.0,0.0,0.0,0.0,0.0,-2.2024,0.0,-2.4844,-2.5561,0.0,0.0,0.0,-2.4328,-2.4993,-2.6159,-2.751,-2.9122,0.0,0.0,-3.4347,-3.5849,-3.6777,-3.6697,-3.7374,-3.8193,-3.8971,-4.029,-4.1474,-4.2422,-4.3802,-4.4784,-4.4784,-4.4113,-4.3578,-4.3578,-4.3544,-4.3775,-4.435,-4.4012,-4.3538,-4.3308,-4.2252,-4.1271,-4.1204,-3.9436,-3.799,-3.7879,-3.6843,-3.5797,-3.5039,-3.4294,-3.3615,-5.3758,-5.3375,-5.3164,-5.2076,-5.0552,-5.1221,-5.1877,-5.2357,-5.1556,-5.0617,-4.9649,-4.9193,-4.8452,-4.7589,-4.7037,-4.7291,-4.8148,-4.9368,-5.0413,-5.1464,-5.3017,-5.3533,-5.3174,-5.3025,-5.2695,-5.2127,-5.0823,-4.9972,-4.9494,-4.9015,-4.7967,-4.6322,-4.4736,-4.3718,-4.318,-4.3299,-4.4197,-4.5843,-4.68,-4.7309,-4.7309,-4.7309,-4.701,-4.6309,-4.5663,-4.4676,-4.3319,-4.1923,-3.9918,-3.7315,-3.516,-3.2557,-2.9292,-2.6752,0.0,0.0,0.0,0.0,0.0,0.0,0.0,0.0,0.0,-1.8912,-1.9271,0.0,-2.1754,0.0,-2.5009,-2.6901,-2.759,-2.8667,0.0,0.0,-2.8248,-2.8427,-2.9029,-2.9385,-3.0158,-3.1649,-3.2991,-3.4255,-3.543,-3.6837,-3.7898,-3.8196,-3.8045,-3.8362,-3.9648,-4.0569,-4.188,-4.3701,-4.5224,-4.6244,-4.621,-4.5635,-4.5128,-4.5162,-4.4688,-4.4384,-4.4581,-4.4479,-4.4113,-4.3477,-4.2658,-4.188,-4.1305,-3.9851,-3.8633,-3.7956,-3.682,-3.5501,-3.4432,-3.4579,-3.47,-5.4787,-5.4582,-5.4588,-5.3984,-5.3072,-5.3207,-5.3359,-5.3511,-5.25,-5.1518,-5.0519,-5.0578,-5.0243,-4.9527,-4.9631,-5.0081,-5.0628,-5.1483,-5.2193,-5.2821,-5.4062,-5.4431,-5.4072,-5.3773,-5.3294,-5.2576,-5.0973,-4.9986,-4.9673,-4.9105,-4.8461,-4.7638,-4.7339,-4.683,-4.6082,-4.5214,-4.5274,-4.6279,-4.698,-4.7309,-4.7279,-4.701,-4.6561,-4.5873,-4.4915,-4.3958,-4.294,-4.1624,-3.9978,-3.7943,-3.5968,-3.3724,-3.1001,-2.8397,-2.6183,0.0,0.0,0.0,0.0,0.0,0.0,0.0,0.0,0.0,0.0,0.0,-2.5728,-2.6602,-2.8577,-3.0043,-3.0731,-3.1958,-3.2587,-3.2258,-3.2228,-3.2347,-3.2677,-3.2467,-3.2706,-3.3847,-3.4181,-3.476,-3.5829,-3.6806,-3.7618,-3.8197,-3.8309,-3.8732,-3.98,-4.0679,-4.1779,-4.3362,-4.5128,-4.6583,-4.7158,-4.6684,-4.6075,-4.5703,-4.5094,-4.4513,-4.4113,-4.4045,-4.3809,-4.3064,-4.232,-4.1711,-4.1238,-4.002,-3.887,-3.8386,-3.7225,-3.5824,-3.4436,-3.4411,-3.4456,-5.5064,-5.4607,-5.4334,-5.4567,-5.5057,-5.4574,-5.4446,-5.4419,-5.3192,-5.2174,-5.1295,-5.1572,-5.1416,-5.1014,-5.1758,-5.2094,-5.21,-5.2952,-5.3448,-5.3617,-5.4471,-5.4917,-5.4997,-5.4391,-5.3734,-5.3066,-5.1122,-5.0196,-5.012,-4.8925,-4.8596,-4.9134,-4.8686,-4.8417,-4.8312,-4.6681,-4.6022,-4.6429,-4.701,-4.7309,-4.7309,-4.6681,-4.5963,-4.5155,-4.3958,-4.294,-4.2171,-4.1063,-3.9768,-3.8422,-3.6626,-3.4711,-3.2736,-3.0313,-2.8338,0.0,-2.5741,0.0,0.0,0.0,0.0,0.0,0.0,0.0,0.0,-2.8457,-2.9714,-3.0911,-3.2168,-3.3155,-3.3814,-3.507,-3.5878,-3.5878,-3.5968,-3.5968,-3.5848,-3.534,-3.516,-3.5699,-3.522,-3.523,-3.6123,-3.6536,-3.7063,-3.7791,-3.8602,-3.9325,-3.996,-4.0609,-4.1305,-4.2151,-4.4316,-4.6447,-4.7466,-4.7361,-4.6684,-4.5974,-4.5263,-4.4451,-4.3775,-4.3511,-4.3139,-4.232,-4.1677,-4.117,-4.1001,-3.9918,-3.9106,-3.8802,-3.7879,-3.6626,-3.5091,-3.4427,-3.409,-5.5064,-5.4582,-5.4029,-5.3917,-5.3911,-5.3417,-5.3494,-5.3803,-5.2997,-5.1997,-5.1003,-5.1125,-5.0731,-5.006,-5.0297,-5.0131,-4.9802,-5.0571,-5.1217,-5.1799,-5.2665,-5.3473,-5.4119,-5.3706,-5.3257,-5.2792,-5.1028,-5.0103,-4.9918,-4.8962,-4.8545,-4.8663,-4.9047,-4.911,-4.8788,0.0,0.0,0.0,-4.7249,-4.7309,-4.7279,-4.6608,-4.5711,-4.4526,-4.3708,0.0,-4.0876,-4.0516,-3.9768,-3.8452,-3.7045,0.0,0.0,0.0,0.0,0.0,0.0,0.0,0.0,0.0,0.0,0.0,-3.3335,-3.2617,-3.0793,-3.1809,-3.2886,-3.3695,-3.4472,-3.522,-3.5878,-3.7075,-3.7853,-3.7853,-3.8332,-3.8452,-3.7913,-3.7704,-3.7524,-3.7075,-3.6926,-3.6963,-3.7258,-3.7684,-3.8048,-3.8497,-3.9366,-4.0086,-4.0611,-4.0501,-4.084,-4.2185,-4.4756,-4.6819,-4.7767,-4.78,-4.7394,-4.6718,-4.5974,-4.5196,-4.4418,-4.3741,-4.2902,-4.1711,-4.1305,-4.0764,-3.9715,-3.9673,-3.9503,-3.8362,-3.8362,-3.7956,-3.5893,-3.5406,-3.5445,-5.5465,-5.4913,-5.4361,-5.3959,0.0,-5.3155,-5.3027,-5.3292,-5.2886,-5.2296,-5.1488,-5.1235,-5.0627,-4.9691,-4.9125,-4.8655,-4.8193,-4.8752,-4.9228,-4.9631,-5.0713,-5.1661,-5.2426,-5.2897,-5.3041,-5.28,-5.1739,-5.0862,-5.0159,-4.8963,-4.8377,-4.8388,-4.8727,-4.8887,-4.8997,-4.9207,-4.882,-4.7788,-4.7459,-4.7309,-4.7279,-4.6651,-4.5801,-4.4825,-4.3798,0.0,0.0,0.0,0.0,0.0,0.0,0.0,0.0,0.0,0.0,-3.112,-3.1031,-3.13,-3.2018,-3.2916,-3.4173,-3.5789,-3.7165,-3.6926,-3.459,-3.504,-3.5549,-3.5908,-3.6537,-3.7195,-3.7883,-3.8811,-3.9499,-3.9828,-4.0187,-4.0247,-3.9918,-3.9559,-3.914,-3.8482,-3.8093,-3.7828,-3.7601,-3.7677,-3.795,-3.8381,-3.8933,-3.9754,-4.0593,-4.0894,-4.1627,-4.3646,-4.5432,-4.7158,-4.8173,-4.8105,-4.7804,-4.7327,-4.6447,-4.5297,-4.4181,-4.3369,-4.2388,-4.1001,-4.0629,-4.0324,-3.9808,-3.9876,-3.9842,-3.9174,-3.8971,-3.8734,-3.7449,-3.7055,-3.6853,-5.5691,-5.5064,-5.4587,-5.4084,-5.3532,-5.3105,-5.2861,-5.2861,0.0,0.0,0.0,-5.1523,-5.0645,-4.954,-4.841,-4.7612,-4.7121,-4.7377,-4.7592,-4.7752,-4.9009,-4.9938,-5.0701,-5.2067,-5.2646,-5.261,-5.2221,-5.152,-5.0408,-4.8836,-4.813,-4.8224,-4.813,-4.8461,-4.9161,-4.9182,-4.8939,-4.8358,-4.776,-4.7429,-4.7279,-4.6638,-4.5933,-4.5125,-4.3917,-4.2692,-4.1444,-4.0876,-4.0008,-3.8811,-3.8212,-3.7345,-3.6088,-3.5579,-3.507,-3.4412,-3.4472,-3.4831,-3.5522,-3.66,-3.7434,-3.8063,-3.9649,-3.9828,-3.8063,-3.8033,-3.8123,-3.8093,-3.8601,-3.914,-3.9709,-4.0337,-4.0965,-4.1504,-4.1654,-4.1683,-4.1534,-4.1123,-4.0487,-3.9828,-3.92,-3.8571,-3.8093,-3.7913,-3.7867,-3.8209,-3.8742,-3.946,-4.0896,-4.193,-4.3216,-4.5346,-4.6549,-4.7462,-4.8376,-4.8511,-4.8041,-4.7868,-4.6786,-4.5432,-4.4085,-4.2963,-4.1839,-4.0688,-4.0248,-4.0045,-3.9943,-3.9977,-4.0079,-4.0113,-3.9715,-3.9445,-3.9512,-3.9106,-3.8667,-5.4913,-5.3934,-5.3858,-5.3507,-5.303,-5.2955,-5.2861,-5.2861,-5.2861,-5.2603,-5.2076,-5.1523,-5.067,-4.954,-4.841,-4.7489,-4.6789,-4.685,-4.7033,-4.7381,-4.8056,-4.8969,-5.0157,-5.1072,-5.153,-5.1441,-5.1555,-5.1128,-5.0104,-4.8443,-4.7805,-4.8069,-4.7857,-4.8283,-4.9465,-4.9058,-4.8727,-4.861,-4.8296,-4.7878,-4.7309,-4.6651,-4.5723,-4.4496,-4.3708,-4.2731,-4.1482,-4.1294,-4.0905,-4.0157,-4.0038,-3.9379,-3.8093,-3.8387,-3.8422,-3.7793,-3.8242,-3.8871,-3.9499,-3.9768,-4.0127,-4.0793,-4.1085,-4.0876,-4.0098,-4.0487,-4.0816,-4.0816,-4.0816,-4.0995,-4.1145,-4.1654,-4.2081,-4.2291,-4.2701,-4.2821,-4.2351,-4.2171,-4.1811,-4.1115,-4.0516,-4.0068,-3.9798,-3.9379,-3.9092,-3.94,-3.963,-4.069,-4.2395,-4.3863,-4.5013,-4.6364,-4.7259,-4.777,-4.8044,-4.8578,-4.8446,-4.8003,-4.7192,-4.6278,-4.5365,-4.3639,-4.2117,-4.117,-4.0587,-3.9977,-3.9411,-3.9681,-4.0054,-4.0223,-4.046,-4.0967,-4.1441,-4.1474,-4.1136,-5.5189,-5.421,-5.416,-5.3683,-5.2861,-5.2861,-5.2861,-5.2861,-5.2861,-5.2628,-5.2026,-5.1197,-5.0368,-4.9515,-4.841,-4.7543,-4.691,-4.6628,-4.6552,-4.6813,-4.7331,-4.788,-4.8553,-4.9657,-5.0234,-5.0271,-5.0782,-5.0528,-4.9496,-4.8192,-4.7406,-4.7029,-4.675,-4.7229,-4.8189,-4.7985,-4.7652,-4.7285,-4.7433,-4.7315,-4.7021,-4.6506,-4.5868,-4.5048,-4.4805,-4.4225,-4.303,-4.2494,-4.1939,-4.113,-4.066,-3.9896,-3.8863,-3.9504,-3.9676,-3.9165,-3.9876,-4.0524,-4.0905,-4.1594,-4.2282,-4.291,-4.3299,-4.3389,-4.309,-4.2013,-4.1422,-4.1422,-4.1422,-4.1572,-4.1901,-4.2231,-4.256,-4.2851,-4.318,-4.317,-4.297,-4.288,-4.2641,-4.2021,-4.1324,-4.0816,-4.0457,-3.9828,-3.9409,-3.9583,-4.0116,-4.1278,-4.2839,-4.3964,-4.5147,-4.65,-4.7208,-4.7502,-4.7631,-4.836,-4.8523,-4.8007,-4.7293,-4.6549,-4.5771,-4.4079,-4.2625,-4.1474,-4.0899,-4.0426,-3.9715,-4.0189,-4.0595,-4.0764,-4.1271,-4.1914,-4.2252,-4.2591,-4.2354,-5.5566,-5.4561,-5.4561,-5.3934,-5.2886,-5.2861,-5.2861,-5.2929,-5.2804,-5.2503,-5.2,-5.1046,-5.0368,-4.9866,-4.8661,-4.7883,-4.7481,-4.6928,-4.6677,-4.6728,-4.7104,-4.7309,-4.7428,-4.8544,-4.9144,-4.919,-4.996,-4.9798,-4.883,-4.7937,-4.6938,-4.5886,-4.5821,-4.6139,-4.6733,-4.6761,-4.6463,-4.6021,-4.6195,-4.6291,-4.6211,-4.6027,-4.5781,-4.5405,-4.565,-4.5416,-4.4575,-4.3775,-4.2887,-4.1946,-4.1255,-4.0383,-3.9373,-4.0101,-4.0477,-4.0266,-4.089,-4.1585,-4.2034,-4.297,-4.3798,-4.4496,-4.5005,-4.5274,-4.5125,-4.3479,-4.2252,-4.2291,-4.2372,-4.2551,-4.3039,-4.3129,-4.324,-4.3678,-4.3778,-4.3838,-4.3738,-4.3738,-4.3509,-4.292,-4.2222,-4.1534,-4.0756,-4.0038,-3.9619,-3.9565,-4.0426,-4.1528,-4.2592,-4.3666,-4.4985,-4.6019,-4.675,-4.7039,-4.7228,-4.7814,-4.8166,-4.7875,-4.7293,-4.665,-4.5906,-4.4722,-4.3335,-4.2117,-4.161,-4.117,-4.0595,-4.0933,-4.1373,-4.1508,-4.2049,-4.2591,-4.2929,-4.3335,-4.3267,-5.5566,-5.4708,-5.4587,-5.3934,-5.298,-5.2861,-5.2861,-5.2854,-5.2402,-5.2176,-5.2076,-5.1448,-5.1147,-5.0921,-4.9389,-4.8636,-4.856,-4.8033,-4.7757,-4.7757,-4.7807,-4.7741,-4.7628,-4.8292,-4.8458,-4.8315,-4.8899,-4.8873,-4.8079,-4.7262,-4.6285,-4.5356,-4.5425,-4.5548,-4.5635,-4.5661,-4.5555,-4.5554,-4.5045,-4.4722,-4.4567,-4.4965,-4.4986,-4.454,-4.5026,-4.5296,-4.5191,-4.4739,-4.3809,-4.248,-4.2395,-4.159,-4.0003,-4.0668,-4.1312,-4.1427,-4.1896,-4.2707,-4.3877,-4.4167,-4.4526,-4.5125,-4.5304,-4.5364,-4.5364,-4.5095,-4.4915,-4.4855,-4.4885,-4.4766,-4.5005,-4.4915,-4.4855,-4.4885,-4.4975,-4.5095,-4.5005,-4.5125,-4.4855,-4.4197,-4.3349,-4.2701,-4.1474,-4.0666,-4.0038,-3.9499,-4.0551,-4.16,-4.2249,-4.342,-4.4483,-4.5253,-4.6074,-4.6612,-4.6651,-4.6938,-4.7452,-4.775,-4.7297,-4.6887,-4.6447,-4.55,-4.4181,-4.3267,-4.2591,-4.1948,-4.1508,-4.1677,-4.2151,-4.2286,-4.2794,-4.3504,-4.4113,-4.4344,-4.3978,-5.5767,-5.5064,-5.5039,-5.4411,-5.3432,-5.3055,-5.2861,-5.2836,-5.2703,-5.2603,-5.2477,-5.1674,-5.1096,-5.0695,-4.969,-4.9264,-4.9238,-4.9012,-4.8912,-4.8912,-4.8912,-4.8699,-4.8358,-4.852,-4.8309,-4.7554,-4.7778,-4.7624,-4.7002,-4.6374,-4.5806,-4.5323,-4.4826,-4.4484,-4.4476,-4.4197,-4.4042,-4.4016,-4.3756,-4.3457,-4.3206,-4.3814,-4.4366,-4.4631,-4.4835,-4.5136,-4.5449,-4.4661,-4.3668,-4.2806,-4.2091,-4.1151,-4.0067,-4.0668,-4.1328,-4.1831,-4.3023,-4.3997,-4.4679,-4.5191,-4.5603,-4.5903,-4.6262,-4.6471,-4.6471,-4.6471,-4.6501,-4.6411,-4.5783,-4.5274,-4.5304,-4.5304,-4.5274,-4.5274,-4.5274,-4.5304,-4.5274,-4.5304,-4.5035,-4.4377,-4.3678,-4.2991,-4.2043,-4.1055,-4.0187,-3.9679,-4.0351,-4.1227,-4.1768,-4.266,-4.3403,-4.399,-4.4699,-4.5309,-4.5785,-4.6716,-4.7239,-4.7479,-4.7454,-4.7278,-4.7196,-4.621,-4.5026,-4.4248,-4.347,-4.2726,-4.1982,-4.2455,-4.2963,-4.3132,-4.3538,-4.4215,-4.4547,-4.4581,-4.4384,-5.5892,-5.539,-5.5064,-5.4461,-5.3683,-5.3155,-5.2861,-5.2861,-5.2861,-5.2861,-5.2735,-5.1774,-5.1046,-5.0594,-4.9916,-4.959,-4.959,-4.959,-4.959,-4.959,-4.959,-4.9289,-4.8812,-4.8761,-4.8209,-4.7218,-4.7129,-4.6853,-4.6326,-4.5924,-4.5648,-4.5372,-4.4518,-4.394,-4.374,-4.3263,-4.2986,-4.3042,-4.2986,-4.2785,-4.2557,-4.3023,-4.3563,-4.4081,-4.4129,-4.4406,-4.5098,-4.4075,-4.325,-4.2634,-4.1497,-4.0585,-3.9926,-4.0283,-4.0911,-4.1809,-4.3371,-4.4494,-4.4997,-4.5841,-4.6411,-4.6591,-4.707,-4.7309,-4.7309,-4.7309,-4.7309,-4.7219,-4.6411,-4.5903,-4.5843,-4.5843,-4.5843,-4.5843,-4.5843,-4.5843,-4.5873,-4.5843,-4.5633,-4.4945,-4.4366,-4.3449,-4.25,-4.1452,-4.0516,-4.0217,-4.0576,-4.1055,-4.1632,-4.2261,-4.289,-4.324,-4.3714,-4.4188,-4.4883,-4.5778,-4.6616,-4.717,-4.7249,-4.7466,-4.7744,-4.6752,-4.5771,-4.5026,-4.4248,-4.3741,-4.3335,-4.3606,-4.3984,-4.4119,-4.4418,-4.4716,-4.4649,-4.4615,-4.4479,-5.5892,-5.529,-5.4235,-5.3833,-5.3683,-5.3181,-5.2861,-5.2861,-5.2861,-5.2861,-5.2804,-5.18,-5.1272,-5.1172,-5.0167,-4.9615,-4.959,-4.959,-4.959,-4.959,-4.959,-4.9314,-4.8786,-4.8761,-4.8234,-4.733,-4.7244,-4.6954,-4.6376,-4.6276,-4.5999,-4.5497,-4.4895,-4.4342,-4.389,-4.3338,-4.3011,-4.3037,-4.3011,-4.2961,-4.2916,-4.2717,-4.2654,-4.2594,-4.2529,-4.2937,-4.3456,-4.3122,-4.2496,-4.1686,-4.1165,-4.0333,-3.9196,-3.9495,-4.0267,-4.1396,-4.2681,-4.3979,-4.5113,-4.5882,-4.6595,-4.7146,-4.7312,-4.7369,-4.7445,-4.7519,-4.7489,-4.7369,-4.7339,-4.7219,-4.7219,-4.704,-4.704,-4.707,-4.713,-4.71,-4.716,-4.701,-4.689,-4.6202,-4.5454,-4.4347,-4.271,-4.1811,-4.1504,-4.1444,-4.1901,-4.2291,-4.2381,-4.2851,-4.321,-4.3299,-4.3497,-4.3745,-4.3865,-4.4831,-4.5644,-4.6355,-4.7041,-4.7321,-4.7423,-4.7259,-4.6486,-4.5776,-4.5133,-4.4728,-4.4688,-4.4857,-4.5196,-4.5297,-4.5128,-4.5162,-4.4682,-4.4615,-4.4384,-5.6093,-5.5842,-5.5089,-5.4587,-5.421,-5.3658,-5.3231,-5.2861,-5.2861,-5.2861,-5.2804,-5.2126,-5.1825,-5.1774,-5.1021,-5.0268,-4.964,-4.959,-4.959,-4.959,-4.959,-4.949,-4.9314,-4.9289,-4.8937,-4.8284,-4.8184,-4.7707,-4.6853,-4.6502,-4.6225,-4.5974,-4.5447,-4.507,-4.4744,-4.3966,-4.3489,-4.3463,-4.3162,-4.2986,-4.2911,-4.2544,-4.216,-4.177,-4.2031,-4.2312,-4.255,-4.2061,-4.1594,-4.1172,-4.0668,-4.0109,-3.9574,-4.0083,-4.0804,-4.1716,-4.2962,-4.4213,-4.5362,-4.6189,-4.6961,-4.7729,-4.7954,-4.8104,-4.8298,-4.8477,-4.8566,-4.8536,-4.8536,-4.8566,-4.8386,-4.7818,-4.7309,-4.7309,-4.7309,-4.7309,-4.7309,-4.7309,-4.704,-4.6381,-4.5723,-4.4825,-4.3928,-4.3389,-4.309,-4.2731,-4.2851,-4.297,-4.3,-4.317,-4.329,-4.3319,-4.3369,-4.3467,-4.3452,-4.4397,-4.5353,-4.6198,-4.6878,-4.7309,-4.7533,-4.7252,-4.655,-4.6193,-4.5648,-4.552,-4.5448,-4.5534,-4.594,-4.5771,-4.5635,-4.5365,-4.4649,-4.4682,-4.4248,-5.6219,-5.6118,-5.5616,-5.5189,-5.4762,-5.4034,-5.3507,-5.3155,-5.3005,-5.2861,-5.2829,-5.2352,-5.2101,-5.2,-5.1548,-5.0896,-5.0167,-4.9967,-4.9866,-4.9841,-4.9665,-4.959,-4.959,-4.959,-4.9314,-4.8761,-4.8385,-4.7832,-4.7154,-4.6577,-4.6326,-4.6276,-4.5748,-4.5497,-4.5296,-4.4367,-4.379,-4.3689,-4.3263,-4.2911,-4.2766,-4.259,-4.2057,-4.1483,-4.1846,-4.1853,-4.1324,-4.0971,-4.0822,-4.0722,-4.0414,-4.0231,-4.0251,-4.0745,-4.1311,-4.2047,-4.304,-4.4083,-4.4976,-4.5807,-4.6575,-4.7384,-4.7788,-4.8219,-4.8617,-4.9028,-4.9254,-4.9299,-4.9299,-4.9299,-4.9149,-4.8446,-4.7878,-4.7668,-4.7429,-4.7309,-4.7309,-4.7309,-4.701,-4.6441,-4.5963,-4.5364,-4.4796,-4.4646,-4.4287,-4.3678,-4.3589,-4.3589,-4.3589,-4.3409,-4.3409,-4.3529,-4.3439,-4.3359,-4.3397,-4.4006,-4.4725,-4.5503,-4.6144,-4.6795,-4.7173,-4.6881,-4.6678,-4.6433,-4.6313,-4.6219,-4.6199,-4.6254,-4.6181,-4.6012,-4.5974,-4.5838,-4.5258,-4.4784,-4.4147,-5.6219,-5.6143,-5.5616,-5.539,-5.5189,-5.4285,-5.3758,-5.3582,-5.3155,-5.298,-5.2854,-5.2377,-5.2201,-5.2051,-5.1699,-5.1322,-5.1197,-5.0695,-5.0393,-5.0318,-4.9816,-4.959,-4.959,-4.959,-4.9364,-4.8812,-4.7757,-4.7218,-4.728,-4.6728,-4.6401,-4.625,-4.5849,-4.5598,-4.5522,-4.4543,-4.3915,-4.3815,-4.3388,-4.2841,-4.2363,-4.2685,-4.2384,-4.1476,-4.189,-4.149,-4.0003,-3.9901,-4.0205,-4.0503,-4.0578,-4.0724,-4.1075,-4.1232,-4.1521,-4.2056,-4.2788,-4.3434,-4.4023,-4.4779,-4.5502,-4.6287,-4.6851,-4.7709,-4.8389,-4.9054,-4.9509,-4.9539,-4.9509,-4.9449,-4.9479,-4.9284,-4.8925,-4.8356,-4.7848,-4.7549,-4.7399,-4.7339,-4.707,-4.6531,-4.6322,-4.6052,-4.5544,-4.5424,-4.5185,-4.4646,-4.4336,-4.4317,-4.4227,-4.3738,-4.3618,-4.3917,-4.3708,-4.3319,-4.3369,-4.3566,-4.4082,-4.4662,-4.519,-4.5769,-4.6141,-4.6138,-4.6221,-4.6094,-4.6339,-4.6321,-4.6895,-4.6948,-4.6836,-4.6731,-4.6558,-4.621,-4.5635,-4.4959,-4.391,-5.6219,-5.6194,-5.6043,-5.5717,-5.539,-5.5013,-5.4461,-5.3733,-5.3507,-5.3256,-5.2955,-5.2754,-5.2678,-5.2628,-5.2477,-5.2402,-5.2327,-5.1473,-5.0795,-5.0393,-4.9866,-4.959,-4.959,-4.959,-4.9515,-4.9238,-4.8611,-4.8259,-4.8083,-4.7305,-4.6878,-4.6753,-4.6301,-4.6075,-4.5999,-4.5347,-4.497,-4.4844,-4.4016,-4.3263,-4.2785,-4.2942,-4.2434,-4.1476,-4.1856,-4.1706,-4.0902,-4.0827,-4.0849,-4.1025,-4.1025,-4.1125,-4.125,-4.1275,-4.1436,-4.1839,-4.2395,-4.3049,-4.3782,-4.4435,-4.5267,-4.6385,-4.7425,-4.837,-4.9155,-5.0058,-5.0524,-5.0601,-5.0601,-5.0601,-5.0541,-5.0182,-4.9673,-4.9045,-4.8775,-4.8386,-4.7938,-4.7578,-4.7249,-4.707,-4.701,-4.689,-4.6741,-4.6651,-4.6292,-4.5693,-4.5274,-4.5005,-4.4855,-4.4077,-4.3589,-4.4067,-4.3648,-4.3379,-4.3519,-4.3648,-4.3925,-4.4256,-4.4619,-4.4805,-4.5133,-4.548,-4.5591,-4.5919,-4.6192,-4.6576,-4.7158,-4.7309,-4.7099,-4.7012,-4.6667,-4.6254,-4.5809,-4.5094,-4.4248,-5.6219,-5.6219,-5.6219,-5.6018,-5.5666,-5.5491,-5.4988,-5.4285,-5.3884,-5.3532,-5.3231,-5.3005,-5.2861,-5.2861,-5.2861,-5.2861,-5.2804,-5.18,-5.1096,-5.0645,-4.9916,-4.9615,-4.959,-4.959,-4.959,-4.949,-4.9038,-4.8786,-4.8711,-4.7707,-4.7068,-4.6968,-4.6577,-4.6301,-4.625,-4.5773,-4.5497,-4.5321,-4.4367,-4.3539,-4.3112,-4.2986,-4.2534,-4.1856,-4.2183,-4.2258,-4.1957,-4.1957,-4.1856,-4.1731,-4.1806,-4.1957,-4.1957,-4.1982,-4.2011,-4.2204,-4.2474,-4.2951,-4.3476,-4.3771,-4.4545,-4.5925,-4.7201,-4.8318,-4.9317,-5.0442,-5.1182,-5.1229,-5.1199,-5.1229,-5.1139,-5.087,-5.0421,-5.0062,-4.9539,-4.906,-4.8386,-4.7938,-4.7549,-4.7399,-4.7279,-4.7309,-4.7309,-4.7279,-4.704,-4.6369,-4.5963,-4.5663,-4.5424,-4.4515,-4.4336,-4.4127,-4.3768,-4.3648,-4.3678,-4.3778,-4.3838,-4.3978,-4.4195,-4.4156,-4.4259,-4.4637,-4.4898,-4.5536,-4.5977,-4.6124,-4.6651,-4.6742,-4.6631,-4.6611,-4.6791,-4.6731,-4.6447,-4.5838,-4.4959,-5.6219,-5.6219,-5.6219,-5.6194,-5.6118,-5.5666,-5.539,-5.5164,-5.426,-5.3758,-5.3582,-5.313,-5.2861,-5.2861,-5.2861,-5.2861,-5.2729,-5.19,-5.1398,-5.1046,-5.0268,-4.969,-4.9615,-4.959,-4.959,-4.9515,-4.9113,-4.8887,-4.8862,-4.7908,-4.7168,-4.7305,-4.6803,-4.6376,-4.6326,-4.5824,-4.5598,-4.5472,-4.4518,-4.374,-4.3162,-4.3137,-4.2811,-4.2338,-4.2785,-4.3112,-4.3062,-4.3062,-4.2785,-4.2414,-4.261,-4.2811,-4.2936,-4.3017,-4.2861,-4.2891,-4.2992,-4.2997,-4.2992,-4.3164,-4.3632,-4.4804,-4.6267,-4.7531,-4.8696,-5.0124,-5.1058,-5.1135,-5.1182,-5.1229,-5.1229,-5.1169,-5.1109,-5.105,-5.0092,-4.9239,-4.8566,-4.8416,-4.8147,-4.7698,-4.7459,-4.7459,-4.7578,-4.7549,-4.713,-4.6578,-4.6279,-4.6172,-4.5783,-4.5065,-4.4736,-4.4347,-4.3858,-4.3828,-4.3868,-4.4018,-4.4137,-4.4477,-4.4489,-4.4238,-4.3944,-4.4204,-4.4496,-4.5128,-4.5583,-4.5757,-4.5981,-4.6125,-4.6486,-4.6842,-4.7058,-4.7285,-4.69,-4.6132,-4.5216,-5.6219,-5.6219,-5.6219,-5.6219,-5.6194,-5.6043,-5.5742,-5.534,-5.4637,-5.4084,-5.3683,-5.3155,-5.2861,-5.2861,-5.2861,-5.2861,-5.2729,-5.2176,-5.1875,-5.1699,-5.072,-4.9967,-4.9665,-4.959,-4.959,-4.9565,-4.9414,-4.9389,-4.9314,-4.8611,-4.8284,-4.8309,-4.733,-4.6842,-4.6828,-4.6326,-4.6125,-4.6024,-4.5422,-4.4518,-4.379,-4.3966,-4.3689,-4.2936,-4.3664,-4.4116,-4.4166,-4.4192,-4.3714,-4.2916,-4.2886,-4.2986,-4.3037,-4.3062,-4.3087,-4.3087,-4.3037,-4.3011,-4.3011,-4.3037,-4.3513,-4.4341,-4.5795,-4.6995,-4.8122,-4.9688,-5.0585,-5.087,-5.1058,-5.1259,-5.1259,-5.1259,-5.1259,-5.1139,-5.0481,-4.9883,-4.9643,-4.9284,-4.897,-4.882,-4.873,-4.87,-4.858,-4.8267,-4.7788,-4.716,-4.6668,-4.6219,-4.5933,-4.5304,-4.4825,-4.4347,-4.3917,-4.3958,-4.4018,-4.4197,-4.4496,-4.4975,-4.4986,-4.4788,-4.4389,-4.4182,-4.4427,-4.4774,-4.4937,-4.5123,-4.5469,-4.5736,-4.6311,-4.6746,-4.6913,-4.6902,-4.6583,-4.5975,-4.5119,-5.6219,-5.6219,-5.6219,-5.6219,-5.6219,-5.6219,-5.6018,-5.5616,-5.4888,-5.4386,-5.3959,-5.3231,-5.2861,-5.2861,-5.2861,-5.2861,-5.2854,-5.2352,-5.2101,-5.1925,-5.0921,-5.0142,-4.9715,-4.959,-4.959,-4.959,-4.959,-4.959,-4.949,-4.9038,-4.8812,-4.8535,-4.7682,-4.7093,-4.7079,-4.6602,-4.6326,-4.62,-4.5748,-4.502,-4.4267,-4.4443,-4.4141,-4.3639,-4.4166,-4.4618,-4.4618,-4.4618,-4.4292,-4.379,-4.3664,-4.3664,-4.3664,-4.3664,-4.3664,-4.3664,-4.3664,-4.3664,-4.3664,-4.3664,-4.4004,-4.4789,-4.5868,-4.6973,-4.8239,-4.9696,-5.0769,-5.1267,-5.1702,-5.1989,-5.1977,-5.1798,-5.1648,-5.1588,-5.105,-5.0495,-5.0226,-4.9883,-4.9553,-4.9419,-4.9299,-4.9299,-4.9299,-4.8925,-4.8416,-4.7878,-4.7459,-4.692,-4.6381,-4.5603,-4.5065,-4.4755,-4.4545,-4.4646,-4.4915,-4.5155,-4.5424,-4.5843,-4.5574,-4.5334,-4.4798,-4.4348,-4.4143,-4.4234,-4.4335,-4.451,-4.4911,-4.5263,-4.5556,-4.5952,-4.6279,-4.6388,-4.6092,-4.5914,-4.5069,-5.6219,-5.6219,-5.6219,-5.6219,-5.6219,-5.6219,-5.6194,-5.5993,-5.5039,-5.4561,-5.4285,-5.3406,-5.2886,-5.2861,-5.2861,-5.2861,-5.2904,-5.2477,-5.2226,-5.1875,-5.1172,-5.0419,-4.9816,-4.964,-4.9615,-4.959,-4.959,-4.959,-4.949,-4.9088,-4.8912,-4.8711,-4.7883,-4.7405,-4.738,-4.6878,-4.6527,-4.6502,-4.6125,-4.5472,-4.4895,-4.4869,-4.4618,-4.4116,-4.4618,-4.4945,-4.4945,-4.4895,-4.4819,-4.4819,-4.4694,-4.4518,-4.4543,-4.4593,-4.4568,-4.4493,-4.4443,-4.4468,-4.4568,-4.4468,-4.4774,-4.5329,-4.607,-4.7123,-4.8245,-4.9623,-5.0838,-5.1445,-5.2605,-5.28,-5.2905,-5.2546,-5.2157,-5.1977,-5.1558,-5.0913,-5.0465,-5.0285,-5.0122,-4.9583,-4.9539,-4.9509,-4.9509,-4.9419,-4.9134,-4.8865,-4.8386,-4.7848,-4.7249,-4.6591,-4.6172,-4.5861,-4.5651,-4.5484,-4.5813,-4.613,-4.6501,-4.677,-4.6262,-4.5843,-4.5155,-4.4578,-4.3998,-4.3848,-4.4285,-4.4382,-4.4395,-4.4695,-4.4924,-4.5274,-4.5698,-4.5731,-4.5654,-4.5603,-4.5109,-5.6219,-5.6219,-5.6219,-5.6219,-5.6219,-5.6219,-5.6219,-5.6118,-5.5039,-5.4561,-5.431,-5.3406,-5.2886,-5.2861,-5.2861,-5.2861,-5.2861,-5.2729,-5.2553,-5.2076,-5.1925,-5.1147,-5.0318,-4.9841,-4.9615,-4.959,-4.959,-4.959,-4.954,-4.9464,-4.9414,-4.9264,-4.8686,-4.841,-4.8259,-4.7707,-4.7556,-4.7456,-4.7004,-4.62,-4.5547,-4.5648,-4.5397,-4.4694,-4.5372,-4.5874,-4.5949,-4.5949,-4.5949,-4.5748,-4.5171,-4.4769,-4.4744,-4.4719,-4.4744,-4.4744,-4.4694,-4.4611,-4.4644,-4.4719,-4.4759,-4.5323,-4.5839,-4.6507,-4.7453,-4.8868,-5.009,-5.0892,-5.1938,-5.2783,-5.3245,-5.2636,-5.2396,-5.2247,-5.1768,-5.1259,-5.105,-5.099,-5.084,-5.075,-5.069,-5.078,-5.075,-5.0212,-4.9972,-4.9717,-4.9314,-4.8775,-4.8177,-4.7549,-4.716,-4.686,-4.6471,-4.6202,-4.6262,-4.6548,-4.686,-4.713,-4.677,-4.6501,-4.5783,-4.5334,-4.4915,-4.4616,-4.4447,-4.4429,-4.4297,-4.4139,-4.4403,-4.4774,-4.5036,-4.5086,-4.5136,-4.5184,-4.5497,-5.6219,-5.6219,-5.6219,-5.6219,-5.6219,-5.6219,-5.6219,-5.5993,-5.5039,-5.4561,-5.4336,-5.3406,-5.2861,-5.2861,-5.2861,-5.2861,-5.2861,-5.2836,-5.2628,-5.2201,-5.2051,-5.1448,-5.0594,-5.0117,-4.9866,-4.9665,-4.959,-4.959,-4.959,-4.959,-4.9565,-4.954,-4.9063,-4.8736,-4.8686,-4.8234,-4.7908,-4.7757,-4.738,-4.6702,-4.6075,-4.6125,-4.615,-4.5573,-4.5999,-4.6326,-4.6276,-4.6301,-4.6301,-4.615,-4.5748,-4.5422,-4.5397,-4.5422,-4.5397,-4.5397,-4.5397,-4.5422,-4.5422,-4.5422,-4.5506,-4.5632,-4.59,-4.6425,-4.7205,-4.8311,-4.9419,-5.0586,-5.1833,-5.3018,-5.3923,-5.3533,-5.3204,-5.3025,-5.2546,-5.2157,-5.2037,-5.1618,-5.1229,-5.1229,-5.1139,-5.1169,-5.105,-5.0704,-5.0435,-5.0076,-4.9956,-4.9494,-4.906,-4.8461,-4.8027,-4.7638,-4.7189,-4.692,-4.683,-4.692,-4.6967,-4.716,-4.71,-4.695,-4.6651,-4.6322,-4.6022,-4.5544,-4.5005,-4.4466,-4.4278,-4.4125,-4.397,-4.3996,-4.4197,-4.4403,-4.4651,-4.495,-4.5376,-5.6219,-5.6219,-5.6219,-5.6219,-5.6219,-5.6219,-5.6219,-5.6043,-5.5039,-5.4561,-5.4361,-5.3406,-5.2861,-5.2861,-5.2861,-5.2861,-5.2861,-5.2836,-5.2653,-5.2377,-5.2327,-5.1649,-5.0845,-5.0544,-5.0193,-4.9665,-4.959,-4.959,-4.959,-4.959,-4.959,-4.9515,-4.9188,-4.9012,-4.8812,-4.8485,-4.8309,-4.8284,-4.7832,-4.7255,-4.6728,-4.6652,-4.6627,-4.6602,-4.6627,-4.6702,-4.6728,-4.6702,-4.6627,-4.6552,-4.6552,-4.6552,-4.6527,-4.6351,-4.6301,-4.625,-4.6175,-4.6125,-4.61,-4.6175,-4.62,-4.6326,-4.6276,-4.655,-4.7188,-4.7905,-4.8889,-5.0269,-5.1614,-5.3425,-5.4786,-5.4301,-5.4032,-5.3982,-5.3533,-5.3234,-5.2965,-5.2097,-5.1558,-5.1409,-5.1319,-5.1229,-5.1229,-5.1079,-5.0734,-5.0495,-5.0375,-5.0212,-4.9763,-4.9389,-4.8955,-4.8656,-4.8267,-4.7698,-4.7519,-4.707,-4.7189,-4.701,-4.707,-4.707,-4.71,-4.692,-4.6501,-4.5963,-4.5424,-4.4975,-4.4646,-4.4569,-4.4268,-4.3688,-4.3758,-4.4304,-4.4608,-4.4772,-4.5317,-5.6219,-5.6219,-5.6219,-5.6219,-5.6219,-5.6219,-5.6219,-5.6018,-5.5039,-5.4561,-5.4411,-5.3432,-5.2861,-5.2861,-5.2861,-5.2861,-5.2861,-5.2836,-5.2785,-5.2729,-5.2678,-5.2126,-5.1222,-5.0996,-5.0544,-4.9841,-4.959,-4.959,-4.959,-4.959,-4.959,-4.9565,-4.9464,-4.9414,-4.9364,-4.9339,-4.9163,-4.9012,-4.8586,-4.8058,-4.7707,-4.7506,-4.7481,-4.7481,-4.7456,-4.7481,-4.7556,-4.7606,-4.7631,-4.7631,-4.7631,-4.7606,-4.7405,-4.6803,-4.6476,-4.6451,-4.6476,-4.6527,-4.6502,-4.6401,-4.6351,-4.6326,-4.6426,-4.6522,-4.6976,-4.7519,-4.842,-4.9613,-5.1293,-5.3073,-5.4274,-5.4107,-5.4082,-5.3973,-5.3773,-5.3324,-5.3144,-5.2665,-5.2157,-5.2187,-5.1738,-5.1229,-5.1229,-5.1229,-5.105,-5.0853,-5.084,-5.081,-5.0601,-5.0242,-4.9867,-4.9643,-4.9404,-4.8775,-4.8237,-4.7608,-4.7249,-4.683,-4.677,-4.677,-4.686,-4.71,-4.686,-4.6441,-4.6172,-4.5873,-4.5544,-4.5155,-4.4885,-4.4526,-4.4477,-4.4428,-4.4891,-4.5333,-4.5593,-5.6219,-5.6219,-5.6219,-5.6219,-5.6219,-5.6219,-5.6219,-5.6043,-5.5064,-5.4561,-5.4235,-5.3457,-5.2861,-5.2861,-5.2861,-5.2861,-5.2861,-5.2861,-5.2861,-5.2861,-5.281,-5.2327,-5.1398,-5.1297,-5.0594,-4.9891,-4.959,-4.9615,-4.959,-4.959,-4.959,-4.959,-4.959,-4.959,-4.959,-4.9565,-4.959,-4.9464,-4.9063,-4.8661,-4.8335,-4.8134,-4.7933,-4.7933,-4.7933,-4.7908,-4.7908,-4.7908,-4.7908,-4.7883,-4.7908,-4.7908,-4.7782,-4.7531,-4.7129,-4.7129,-4.7104,-4.7129,-4.7129,-4.7129,-4.7179,-4.7154,-4.7104,-4.7191,-4.7374,-4.7765,-4.8231,-4.9239,-5.0319,-5.2028,-5.3413,-5.3671,-5.4124,-5.452,-5.4371,-5.4192,-5.4042,-5.3563,-5.3264,-5.2935,-5.2067,-5.1498,-5.1229,-5.1229,-5.1229,-5.1229,-5.1229,-5.1229,-5.1229,-5.0913,-5.0524,-5.0166,-4.9883,-4.9314,-4.8686,-4.8087,-4.7549,-4.707,-4.6741,-4.6741,-4.689,-4.7279,-4.7309,-4.71,-4.686,-4.6429,-4.6082,-4.5574,-4.5454,-4.5274,-4.4855,-4.4747,-4.5368,-4.5875,-4.6051,-5.6219,-5.6219,-5.6219,-5.6219,-5.6219,-5.6219,-5.6219,-5.5993,-5.5039,-5.4561,-5.4411,-5.3457,-5.2861,-5.2861,-5.2861,-5.2861,-5.2861,-5.2861,-5.2861,-5.2861,-5.2904,-5.2352,-5.1699,-5.1322,-5.0996,-5.0293,-5.0092,-4.9791,-4.9615,-4.959,-4.959,-4.959,-4.959,-4.959,-4.959,-4.959,-4.959,-4.9464,-4.9213,-4.8937,-4.8812,-4.851,-4.8234,-4.8234,-4.8234,-4.8309,-4.8385,-4.841,-4.8385,-4.8385,-4.8335,-4.8284,-4.8259,-4.8259,-4.8234,-4.8209,-4.8058,-4.7933,-4.7883,-4.7832,-4.7732,-4.7732,-4.7857,-4.7883,-4.7844,-4.7865,-4.8141,-4.9049,-4.9768,-5.0906,-5.2352,-5.315,-5.386,-5.4509,-5.4764,-5.4836,-5.4649,-5.4261,-5.3913,-5.3335,-5.2288,-5.1977,-5.1947,-5.1558,-5.1648,-5.1468,-5.1468,-5.1229,-5.1229,-5.1229,-5.09,-5.0541,-5.0152,-4.9643,-4.9075,-4.8506,-4.8057,-4.7638,-4.7309,-4.716,-4.7339,-4.7578,-4.7578,-4.7608,-4.707,-4.6668,-4.6322,-4.6172,-4.6202,-4.5933,-4.5185,-4.5214,-4.6077,-4.6226,-4.6202,-5.6219,-5.6219,-5.6219,-5.6219,-5.6219,-5.6219,-5.6219,-5.6068,-5.5039,-5.4561,-5.4486,-5.3457,-5.2861,-5.2861,-5.2861,-5.2861,-5.2861,-5.2861,-5.2861,-5.2861,-5.2904,-5.2578,-5.2051,-5.2026,-5.1548,-5.0921,-5.0921,-5.0469,-4.9916,-4.969,-4.9615,-4.9615,-4.959,-4.959,-4.959,-4.959,-4.959,-4.959,-4.9515,-4.9464,-4.9439,-4.9339,-4.9289,-4.9289,-4.9289,-4.9238,-4.9188,-4.9188,-4.9213,-4.9264,-4.9314,-4.9364,-4.9414,-4.9389,-4.9389,-4.9113,-4.8586,-4.7933,-4.8033,-4.8109,-4.8109,-4.8134,-4.8083,-4.7958,-4.8045,-4.7879,-4.7978,-4.8498,-4.9012,-4.9813,-5.11,-5.192,-5.2783,-5.3366,-5.3785,-5.4045,-5.4215,-5.4374,-5.409,-5.4202,-5.3384,-5.3144,-5.3054,-5.2516,-5.2067,-5.1858,-5.1648,-5.1409,-5.1229,-5.1229,-5.1229,-5.087,-5.0661,-5.0182,-4.9523,-4.8955,-4.8596,-4.8207,-4.7878,-4.7638,-4.7938,-4.8177,-4.8177,-4.8057,-4.7549,-4.7219,-4.707,-4.701,-4.704,-4.6621,-4.5963,-4.6292,-4.698,-4.683,-4.6381,-5.6219,-5.6219,-5.6219,-5.6219,-5.6219,-5.6219,-5.6219,-5.5968,-5.5064,-5.4561,-5.4361,-5.3406,-5.2861,-5.2861,-5.2861,-5.2861,-5.2861,-5.2861,-5.2861,-5.2861,-5.281,-5.2653,-5.2201,-5.2076,-5.18,-5.1473,-5.1222,-5.082,-5.0268,-5.0042,-4.9941,-4.9615,-4.959,-4.959,-4.959,-4.959,-4.959,-4.959,-4.959,-4.959,-4.959,-4.959,-4.959,-4.959,-4.959,-4.959,-4.959,-4.959,-4.959,-4.959,-4.959,-4.959,-4.959,-4.959,-4.959,-4.954,-4.9188,-4.8912,-4.8887,-4.8837,-4.8786,-4.8837,-4.8837,-4.8912,-4.8749,-4.8183,-4.7839,-4.8085,-4.805,-4.8663,-4.9562,-5.0238,-5.0989,-5.1729,-5.2405,-5.3073,-5.3466,-5.3899,-5.4001,-5.4259,-5.4491,-5.4221,-5.3803,-5.3025,-5.2516,-5.2276,-5.1917,-5.1498,-5.1319,-5.1229,-5.1229,-5.1169,-5.102,-5.081,-5.0092,-4.9434,-4.9164,-4.8805,-4.8327,-4.8267,-4.8656,-4.888,-4.8835,-4.8835,-4.8596,-4.8297,-4.7967,-4.7549,-4.7279,-4.704,-4.6728,-4.698,-4.716,-4.68,-4.6471,-5.6219,-5.6219,-5.6219,-5.6219,-5.6219,-5.6219,-5.6118,-5.5892,-5.4988,-5.4486,-5.4135,-5.3356,-5.2861,-5.2861,-5.2861,-5.2861,-5.2861,-5.2861,-5.2861,-5.2861,-5.281,-5.2703,-5.2477,-5.2302,-5.2151,-5.1674,-5.185,-5.1473,-5.1071,-5.0795,-5.0494,-4.9665,-4.959,-4.959,-4.959,-4.959,-4.959,-4.959,-4.959,-4.959,-4.959,-4.959,-4.959,-4.959,-4.959,-4.959,-4.959,-4.959,-4.959,-4.959,-4.959,-4.959,-4.959,-4.959,-4.959,-4.959,-4.9439,-4.9439,-4.9439,-4.9439,-4.959,-4.959,-4.959,-4.9414,-4.9339,-4.8586,-4.7908,-4.7957,-4.7485,-4.7663,-4.8152,-4.8877,-4.9562,-5.0294,-5.0962,-5.1729,-5.243,-5.2905,-5.3691,-5.4302,-5.4628,-5.4949,-5.4381,-5.3503,-5.2965,-5.2695,-5.2247,-5.1708,-5.1498,-5.1439,-5.1319,-5.1319,-5.1169,-5.105,-5.0661,-5.0062,-4.9763,-4.9464,-4.8985,-4.9075,-4.9583,-4.9613,-4.9494,-4.9494,-4.9464,-4.909,-4.8536,-4.7997,-4.7489,-4.7219,-4.704,-4.701,-4.698,-4.6681,-4.6651,-5.6219,-5.6219,-5.6194,-5.6168,-5.6168,-5.6194,-5.5892,-5.5415,-5.4787,-5.421,-5.3733,-5.3206,-5.2861,-5.2861,-5.2861,-5.2861,-5.2861,-5.2861,-5.2861,-5.2861,-5.2836,-5.2879,-5.2685,-5.2754,-5.2779,-5.2678,-5.2553,-5.2302,-5.2026,-5.1674,-5.0896,-4.9841,-4.9916,-4.9715,-4.9741,-4.9891,-4.9866,-4.9841,-4.9791,-4.969,-4.9665,-4.964,-4.959,-4.959,-4.959,-4.959,-4.959,-4.959,-4.959,-4.959,-4.959,-4.959,-4.959,-4.959,-4.959,-4.959,-4.959,-4.959,-4.959,-4.959,-4.959,-4.959,-4.959,-4.959,-4.954,-4.8586,-4.8033,-4.7908,-4.7445,-4.7223,-4.7637,-4.8088,-4.8442,-4.8846,-4.9475,-5.0238,-5.1072,-5.2056,-5.2886,-5.3993,-5.459,-5.4824,-5.5069,-5.4221,-5.3713,-5.3443,-5.2905,-5.2336,-5.2007,-5.1858,-5.1558,-5.1439,-5.1289,-5.1169,-5.1109,-5.069,-5.0182,-5.0122,-4.9912,-5.0212,-5.072,-5.0571,-5.0182,-5.0092,-5.0002,-4.9583,-4.9194,-4.8805,-4.8327,-4.7608,-4.7279,-4.7189,-4.7189,-4.704,-4.704,-5.5516,-5.5189,-5.5214,-5.539,-5.5666,-5.534,-5.5089,-5.4813,-5.4285,-5.3733,-5.3231,-5.303,-5.2861,-5.2861,-5.2861,-5.2861,-5.2861,-5.2861,-5.2861,-5.2861,-5.2861,-5.2861,-5.2861,-5.2861,-5.2861,-5.2861,-5.2904,-5.2653,-5.2126,-5.2176,-5.1624,-5.087,-5.0645,-5.0645,-5.0645,-5.0519,-5.0544,-5.0469,-5.0268,-5.0092,-5.0017,-4.9741,-4.959,-4.959,-4.959,-4.959,-4.959,-4.959,-4.959,-4.959,-4.959,-4.959,-4.959,-4.959,-4.959,-4.959,-4.959,-4.959,-4.959,-4.959,-4.959,-4.959,-4.959,-4.959,-4.9565,-4.8837,-4.851,-4.8171,-4.7579,-4.7278,-4.7288,-4.7163,-4.7112,-4.7468,-4.8055,-4.8842,-4.9702,-5.0795,-5.2002,-5.3126,-5.3942,-5.4466,-5.4764,-5.494,-5.4551,-5.4192,-5.3593,-5.3025,-5.2695,-5.2366,-5.2127,-5.1798,-5.1648,-5.1498,-5.1439,-5.102,-5.0554,-5.0614,-5.0734,-5.0913,-5.1199,-5.1139,-5.081,-5.072,-5.0571,-5.0272,-4.9972,-4.9703,-4.9105,-4.8267,-4.7668,-4.7279,-4.7309,-4.7339,-4.7309,-5.4913,-5.4632,-5.4386,-5.4612,-5.5064,-5.4737,-5.4461,-5.426,-5.3884,-5.3406,-5.2861,-5.2861,-5.2861,-5.2861,-5.2861,-5.2861,-5.2861,-5.2861,-5.2861,-5.2861,-5.2861,-5.2861,-5.2861,-5.2861,-5.2861,-5.2861,-5.2904,-5.2678,-5.2427,-5.2352,-5.2126,-5.19,-5.1749,-5.1624,-5.1222,-5.1297,-5.1297,-5.1147,-5.0745,-5.0419,-5.0318,-4.9891,-4.9615,-4.959,-4.959,-4.959,-4.959,-4.959,-4.959,-4.959,-4.959,-4.959,-4.959,-4.959,-4.959,-4.959,-4.959,-4.959,-4.959,-4.959,-4.959,-4.959,-4.959,-4.959,-4.9464,-4.9113,-4.8711,-4.8636,-4.7908,-4.7355,-4.7355,-4.7227,-4.696,-4.7383,-4.7556,-4.8217,-4.8663,-4.9559,-5.0934,-5.219,-5.2914,-5.3576,-5.4045,-5.4347,-5.4484,-5.4369,-5.4491,-5.3892,-5.3384,-5.3084,-5.2785,-5.2456,-5.2097,-5.1977,-5.1828,-5.1768,-5.1708,-5.1379,-5.1409,-5.1169,-5.1259,-5.1259,-5.1229,-5.105,-5.093,-5.09,-5.0631,-5.0212,-4.9553,-4.8805,-4.8237,-4.7728,-4.7578,-4.7608,-4.7369,-5.4632,-5.4486,-5.3934,-5.4034,-5.4511,-5.4561,-5.421,-5.3758,-5.3658,-5.3381,-5.2886,-5.2861,-5.2861,-5.2861,-5.2861,-5.2861,-5.2861,-5.2861,-5.2861,-5.2861,-5.2861,-5.2861,-5.2861,-5.2861,-5.2861,-5.2861,-5.2861,-5.2879,-5.2829,-5.2779,-5.2729,-5.2729,-5.2528,-5.2277,-5.1398,-5.1322,-5.1322,-5.1247,-5.082,-5.0645,-5.0519,-5.0142,-4.9916,-4.9891,-4.9891,-4.9941,-4.9941,-4.9791,-4.9791,-4.9766,-4.964,-4.9615,-4.959,-4.959,-4.959,-4.959,-4.959,-4.959,-4.959,-4.959,-4.959,-4.959,-4.959,-4.959,-4.949,-4.9163,-4.8887,-4.8912,-4.8284,-4.7958,-4.7883,-4.7782,-4.7456,-4.7191,-4.7344,-4.7418,-4.7944,-4.8353,-4.9702,-5.074,-5.1648,-5.2462,-5.3049,-5.3553,-5.3993,-5.4377,-5.4997,-5.476,-5.3973,-5.3683,-5.3354,-5.2935,-5.2546,-5.2576,-5.2546,-5.2845,-5.2785,-5.2396,-5.1947,-5.1618,-5.1349,-5.1229,-5.1229,-5.1229,-5.1169,-5.1079,-5.0853,-5.0614,-5.0122,-4.9583,-4.8775,-4.8267,-4.8087,-4.7848,-4.7608,-5.3783,-5.3457,-5.3281,-5.3306,-5.3457,-5.3482,-5.3356,-5.3206,-5.3181,-5.308,-5.2955,-5.2861,-5.2861,-5.2861,-5.2861,-5.2861,-5.2861,-5.2861,-5.2861,-5.2861,-5.2861,-5.2861,-5.2861,-5.2861,-5.2861,-5.2861,-5.2861,-5.2861,-5.2836,-5.2861,-5.2861,-5.2861,-5.2836,-5.2754,-5.2477,-5.2377,-5.2377,-5.2277,-5.19,-5.1548,-5.1448,-5.0996,-5.0645,-5.0645,-5.0619,-5.0594,-5.0544,-5.0293,-5.0067,-4.9992,-4.9841,-4.9615,-4.959,-4.959,-4.959,-4.959,-4.959,-4.959,-4.959,-4.959,-4.959,-4.959,-4.959,-4.959,-4.954,-4.9464,-4.9339,-4.9188,-4.8786,-4.8535,-4.846,-4.8083,-4.7682,-4.723,-4.7126,-4.6935,-4.7163,-4.7519,-4.8268,-4.9106,-4.9958,-5.0796,-5.1456,-5.192,-5.2405,-5.3179,-5.3652,-5.4294,-5.3852,-5.3923,-5.3803,-5.3324,-5.2995,-5.3084,-5.3204,-5.3503,-5.3264,-5.2695,-5.2247,-5.1828,-5.1588,-5.1498,-5.1349,-5.1409,-5.1319,-5.1199,-5.105,-5.0883,-5.09,-5.0421,-4.9643,-4.8865,-4.8506,-4.8207,-4.7878,-5.3231,-5.2929,-5.2861,-5.2861,-5.2861,-5.2861,-5.2861,-5.2861,-5.2861,-5.2861,-5.2861,-5.2861,-5.2861,-5.2861,-5.2861,-5.2861,-5.2861,-5.2861,-5.2861,-5.2861,-5.2861,-5.2861,-5.2861,-5.2861,-5.2861,-5.2861,-5.2861,-5.2861,-5.2861,-5.2861,-5.2861,-5.2861,-5.2861,-5.281,-5.276,-5.276,-5.276,-5.2653,-5.2277,-5.1975,-5.185,-5.1548,-5.1222,-5.1222,-5.1222,-5.1222,-5.1096,-5.082,-5.0419,-5.0293,-4.9992,-4.964,-4.964,-4.9615,-4.9615,-4.959,-4.959,-4.959,-4.959,-4.959,-4.959,-4.959,-4.959,-4.959,-4.959,-4.9565,-4.9565,-4.9439,-4.9213,-4.9113,-4.8937,-4.8485,-4.8234,-4.7807,-4.7556,-4.7392,-4.7187,-4.758,-4.782,-4.8486,-4.8801,-4.9469,-4.9874,-5.0182,-5.0629,-5.1456,-5.2298,-5.2885,-5.3663,-5.398,-5.4192,-5.3883,-5.3723,-5.3952,-5.4042,-5.4132,-5.3743,-5.3025,-5.2695,-5.2456,-5.2306,-5.2276,-5.1917,-5.1618,-5.1618,-5.1558,-5.1319,-5.1169,-5.1079,-5.093,-5.0541,-4.9793,-4.9075,-4.8686,-4.8416,-5.2861,-5.2861,-5.2861,-5.2861,-5.2861,-5.2861,-5.2861,-5.2861,-5.2861,-5.2861,-5.2861,-5.2861,-5.2861,-5.2861,-5.2861,-5.2861,-5.2861,-5.2861,-5.2861,-5.2861,-5.2861,-5.2861,-5.2861,-5.2861,-5.2861,-5.2861,-5.2861,-5.2861,-5.2861,-5.2861,-5.2861,-5.2861,-5.2861,-5.2861,-5.2861,-5.2861,-5.2861,-5.2779,-5.2553,-5.2327,-5.2201,-5.1825,-5.1674,-5.1649,-5.1624,-5.1624,-5.1448,-5.1071,-5.077,-5.0469,-5.0092,-4.9841,-4.969,-4.964,-4.964,-4.959,-4.959,-4.959,-4.959,-4.959,-4.959,-4.959,-4.959,-4.959,-4.959,-4.959,-4.959,-4.959,-4.9464,-4.9515,-4.9439,-4.9289,-4.9138,-4.8837,-4.8586,-4.8322,-4.792,-4.7977,-4.8115,-4.8395,-4.8384,-4.8708,-4.8663,-4.8873,-4.9129,-4.9675,-5.0573,-5.1509,-5.2415,-5.4127,-5.4294,-5.4527,-5.4509,-5.4839,-5.4919,-5.465,-5.4311,-5.3623,-5.3683,-5.3503,-5.3324,-5.2905,-5.2456,-5.2127,-5.2097,-5.1887,-5.1409,-5.1229,-5.1199,-5.105,-5.09,-5.0481,-4.9703,-4.9434,-4.9194,-5.2861,-5.2861,-5.2861,-5.2861,-5.2861,-5.2861,-5.2861,-5.2861,-5.2861,-5.2861,-5.2861,-5.2861,-5.2861,-5.2861,-5.2861,-5.2861,-5.2861,-5.2861,-5.2861,-5.2861,-5.2861,-5.2861,-5.2861,-5.2861,-5.2861,-5.2861,-5.2861,-5.2861,-5.2861,-5.2861,-5.2861,-5.2861,-5.2861,-5.2861,-5.2861,-5.2861,-5.2861,-5.281,-5.2703,-5.2653,-5.2628,-5.2402,-5.2327,-5.2302,-5.2302,-5.2302,-5.2176,-5.1774,-5.1523,-5.1448,-5.1046,-5.0795,-5.0795,-5.0419,-5.0092,-4.964,-4.959,-4.959,-4.959,-4.959,-4.959,-4.959,-4.959,-4.959,-4.959,-4.959,-4.959,-4.959,-4.959,-4.959,-4.959,-4.9515,-4.9364,-4.9138,-4.8912,-4.8686,-4.8397,-4.8284,-4.8368,-4.8085,-4.8109,-4.7837,-4.781,-4.7571,-4.7866,-4.8172,-4.882,-4.9901,-5.1099,-5.2726,-5.3838,-5.4045,-5.4436,-5.4539,-5.4926,-5.4798,-5.457,-5.4341,-5.4341,-5.4162,-5.3653,-5.3234,-5.2845,-5.2576,-5.2396,-5.1917,-5.1319,-5.1289,-5.1439,-5.1259,-5.1109,-5.0734,-5.0375,-5.0122,-4.9853,-5.2861,-5.2861,-5.2861,-5.2861,-5.2861,-5.2861,-5.2861,-5.2861,-5.2861,-5.2861,-5.2861,-5.2861,-5.2861,-5.2861,-5.2861,-5.2861,-5.2861,-5.2861,-5.2861,-5.2861,-5.2861,-5.2861,-5.2861,-5.2861,-5.2861,-5.2861,-5.2861,-5.2861,-5.2861,-5.2861,-5.2861,-5.2861,-5.2861,-5.2861,-5.2861,-5.2861,-5.2861,-5.2861,-5.2836,-5.2861,-5.2861,-5.2861,-5.2861,-5.2861,-5.2861,-5.2861,-5.2785,-5.2402,-5.2151,-5.2026,-5.1574,-5.1297,-5.1172,-5.072,-5.0167,-4.9715,-4.959,-4.959,-4.959,-4.959,-4.959,-4.9615,-4.964,-4.959,-4.959,-4.959,-4.959,-4.959,-4.959,-4.959,-4.959,-4.9565,-4.9364,-4.9163,-4.9063,-4.8962,-4.8812,-4.8661,-4.8284,-4.792,-4.7593,-4.7327,-4.6989,-4.6753,-4.6783,-4.7539,-4.8035,-4.8584,-4.9732,-5.1099,-5.2216,-5.2779,-5.3361,-5.386,-5.4304,-5.4722,-5.4687,-5.463,-5.476,-5.4521,-5.3982,-5.3832,-5.3713,-5.3204,-5.2606,-5.2217,-5.1917,-5.1708,-5.1708,-5.1558,-5.1379,-5.105,-5.0823,-5.075,-5.0451,-5.2861,-5.2861,-5.2861,-5.2861,-5.2861,-5.2861,-5.2861,-5.2861,-5.2861,-5.2861,-5.2861,-5.2861,-5.2861,-5.2861,-5.2861,-5.2861,-5.2861,-5.2861,-5.2861,-5.2861,-5.2861,-5.2861,-5.2861,-5.2861,-5.2861,-5.2861,-5.2861,-5.2861,-5.2861,-5.2861,-5.2861,-5.2861,-5.2861,-5.2861,-5.2861,-5.2861,-5.2861,-5.2861,-5.2861,-5.2861,-5.2861,-5.2861,-5.2861,-5.2861,-5.2861,-5.2861,-5.2804,-5.2528,-5.2176,-5.2,-5.1825,-5.1548,-5.1247,-5.1021,-5.0444,-5.0067,-5.0017,-4.9992,-5.0017,-5.0042,-4.9941,-4.9866,-4.9715,-4.9766,-4.9816,-4.964,-4.9615,-4.959,-4.959,-4.959,-4.959,-4.959,-4.9464,-4.9389,-4.9339,-4.9289,-4.9238,-4.9012,-4.8661,-4.8234,-4.7857,-4.7581,-4.7405,-4.723,-4.6878,-4.7364,-4.747,-4.767,-4.8236,-4.9448,-5.049,-5.1401,-5.2244,-5.2939,-5.3576,-5.4075,-5.4671,-5.4786,-5.4756,-5.4568,-5.3882,-5.4151,-5.47,-5.3803,-5.2875,-5.2995,-5.2815,-5.2516,-5.2187,-5.1947,-5.1738,-5.1379,-5.1229,-5.1169,-5.099,-5.2861,-5.2861,-5.2861,-5.2861,-5.2861,-5.2861,-5.2861,-5.2861,-5.2861,-5.2861,-5.2861,-5.2861,-5.2861,-5.2861,-5.2861,-5.2861,-5.2861,-5.2861,-5.2861,-5.2861,-5.2861,-5.2861,-5.2861,-5.2861,-5.2861,-5.2861,-5.2861,-5.2861,-5.2861,-5.2861,-5.2861,-5.2861,-5.2861,-5.2861,-5.2861,-5.2861,-5.2861,-5.2861,-5.2861,-5.2861,-5.2861,-5.2861,-5.2861,-5.2861,-5.2861,-5.2861,-5.281,-5.2829,-5.2703,-5.2678,-5.2628,-5.2327,-5.1925,-5.1749,-5.1398,-5.0996,-5.0745,-5.072,-5.0695,-5.067,-5.067,-5.0619,-5.0494,-5.0318,-5.0117,-4.9791,-4.9615,-4.9615,-4.959,-4.959,-4.959,-4.959,-4.959,-4.959,-4.959,-4.959,-4.959,-4.9314,-4.8987,-4.8661,-4.8259,-4.8083,-4.7933,-4.7631,-4.7255,-4.6964,-4.6733,-4.6721,-4.6806,-4.7645,-4.8789,-4.9816,-5.1044,-5.1839,-5.2487,-5.3073,-5.3495,-5.3733,-5.3571,-5.3545,-5.359,-5.3769,-5.3872,-5.3644,-5.3174,-5.3443,-5.3503,-5.3114,-5.2815,-5.2576,-5.2217,-5.1947,-5.1558,-5.1409,-5.1289,-5.2861,-5.2861,-5.2861,-5.2861,-5.2861,-5.2861,-5.2861,-5.2861,-5.2861,-5.2861,-5.2861,-5.2861,-5.2861,-5.2861,-5.2861,-5.2861,-5.2861,-5.2861,-5.2861,-5.2861,-5.2861,-5.2861,-5.2861,-5.2861,-5.2861,-5.2861,-5.2861,-5.2861,-5.2861,-5.2861,-5.2861,-5.2861,-5.2861,-5.2861,-5.2861,-5.2861,-5.2861,-5.2861,-5.2861,-5.2861,-5.2861,-5.2861,-5.2861,-5.2861,-5.2861,-5.2861,-5.2861,-5.2861,-5.2861,-5.2929,-5.2785,-5.2553,-5.2201,-5.2026,-5.1774,-5.1398,-5.1222,-5.1272,-5.1322,-5.1348,-5.1373,-5.1222,-5.1096,-5.082,-5.0343,-5.0042,-4.9816,-4.9791,-4.9615,-4.959,-4.959,-4.959,-4.959,-4.959,-4.959,-4.959,-4.959,-4.9464,-4.9314,-4.9213,-4.8962,-4.8912,-4.8711,-4.841,-4.8058,-4.7807,-4.7305,-4.6677,-4.6627,-4.6376,-4.7375,-4.8262,-4.9475,-5.0322,-5.0796,-5.1373,-5.2026,-5.2216,-5.2352,-5.2517,-5.2538,-5.2829,-5.298,-5.3278,-5.3625,-5.4192,-5.4132,-5.3674,-5.3574,-5.3443,-5.2995,-5.2576,-5.2157,-5.1673,-5.1613,-5.2861,-5.2861,-5.2861,-5.2861,-5.2861,-5.2861,-5.2861,-5.2861,-5.2861,-5.2861,-5.2861,-5.2861,-5.2861,-5.2861,-5.2861,-5.2861,-5.2861,-5.2861,-5.2861,-5.2861,-5.2861,-5.2861,-5.2861,-5.2861,-5.2861,-5.2861,-5.2861,-5.2861,-5.2861,-5.2861,-5.2861,-5.2861,-5.2861,-5.2861,-5.2861,-5.2861,-5.2861,-5.2861,-5.2861,-5.2861,-5.2861,-5.2861,-5.2861,-5.2861,-5.2861,-5.2861,-5.2861,-5.2861,-5.2861,-5.2861,-5.2861,-5.2703,-5.2477,-5.2327,-5.2101,-5.1825,-5.1749,-5.1724,-5.1649,-5.1724,-5.1649,-5.1548,-5.1448,-5.1197,-5.077,-5.0469,-5.0243,-5.0042,-4.9866,-4.964,-4.964,-4.9615,-4.9615,-4.959,-4.959,-4.959,-4.959,-4.9565,-4.9565,-4.9565,-4.954,-4.9515,-4.9314,-4.9012,-4.8761,-4.8535,-4.8109,-4.7531,-4.6943,-4.6577,-4.678,-4.7231,-4.7886,-4.8558,-4.9194,-4.9874,-5.0657,-5.0713,-5.0934,-5.1199,-5.1502,-5.1955,-5.2566,-5.3532,-5.3971,-5.4167,-5.4357,-5.4069,-5.4071,-5.3853,-5.3466,-5.2911,-5.2524,-5.2197,-5.2036,-5.2861,-5.2861,-5.2861,-5.2861,-5.2861,-5.2861,-5.2861,-5.2861,-5.2861,-5.2861,-5.2861,-5.2861,-5.2861,-5.2861,-5.2861,-5.2861,-5.2861,-5.2861,-5.2861,-5.2861,-5.2861,-5.2861,-5.2861,-5.2861,-5.2861,-5.2861,-5.2861,-5.2861,-5.2861,-5.2861,-5.2861,-5.2861,-5.2861,-5.2861,-5.2861,-5.2861,-5.2861,-5.2861,-5.2861,-5.2861,-5.2886,-5.2886,-5.2861,-5.2861,-5.2861,-5.2861,-5.2861,-5.2861,-5.2861,-5.2861,-5.2861,-5.2829,-5.2754,-5.2678,-5.2528,-5.2427,-5.2352,-5.2377,-5.2352,-5.2352,-5.2302,-5.2327,-5.2201,-5.1875,-5.1498,-5.1222,-5.0971,-5.072,-5.0444,-4.9916,-4.9791,-4.9715,-4.969,-4.964,-4.959,-4.959,-4.959,-4.959,-4.959,-4.959,-4.959,-4.9565,-4.9515,-4.9213,-4.8912,-4.8586,-4.8033,-4.7531,-4.7405,-4.6903,-4.6401,-4.6667,-4.6967,-4.7324,-4.8178,-4.87,-4.9304,-4.9362,-4.9425,-4.9719,-5.0213,-5.1098,-5.1838,-5.2439,-5.3105,-5.3454,-5.3669,-5.3552,-5.3708,-5.3465,-5.352,-5.3216,-5.2861,-5.2457,-5.2201]},{"header":{"parameterUnit":"m.s-1","parameterCategory":1,"la1":31.0,"la2":29.5877,"lo1":-88.7671,"lo2":-86.6584,"dy":0.0162,"dx":0.0185,"nx":115,"ny":88,"refTime":"2026-04-08T12:00:00:Z","depth":0,"parameterNumber":3,"parameterNumberName":"V-component_of_WINDS"},"data":[0.0,0.0,0.0,0.0,0.0,0.0,0.0,0.0,0.0,0.0,0.0,0.0,0.0,0.0,0.0,0.0,0.0,0.0,0.0,0.0,0.0,0.0,0.0,0.0,0.0,0.0,0.0,0.0,0.0,0.0,0.0,0.0,0.0,0.0,0.0,0.0,0.0,0.0,0.0,0.0,0.0,0.0,0.0,0.0,0.0,0.0,0.0,0.0,0.0,0.0,0.0,0.0,0.0,0.0,0.0,0.0,0.0,0.0,0.0,0.0,0.0,0.0,0.0,0.0,0.0,0.0,0.0,0.0,0.0,0.0,0.0,0.0,0.0,0.0,0.0,0.0,0.0,0.0,0.0,0.0,0.0,0.0,0.0,0.0,0.0,0.0,0.0,0.0,0.0,0.0,0.0,0.0,0.0,0.0,0.0,0.0,0.0,0.0,0.0,0.0,0.0,0.0,0.0,0.0,0.0,0.0,0.0,0.0,0.0,0.0,0.0,0.0,0.0,0.0,0.0,0.0,0.0,0.0,0.0,0.0,0.0,0.0,0.0,0.0,0.0,0.0,0.0,0.0,0.0,0.0,0.0,0.0,0.0,0.0,0.0,0.0,0.0,0.0,0.0,0.0,0.0,0.0,0.0,0.0,0.0,0.0,0.0,0.0,0.0,0.0,0.0,0.0,0.0,0.0,0.0,0.0,0.0,0.0,0.0,0.0,0.0,0.0,0.0,0.0,0.0,0.0,0.0,0.0,0.0,0.0,0.0,0.0,0.0,0.0,0.0,0.0,0.0,0.0,0.0,0.0,0.0,0.0,0.0,0.0,0.0,0.0,0.0,0.0,0.0,0.0,0.0,0.0,0.0,0.0,0.0,0.0,0.0,0.0,0.0,0.0,0.0,0.0,0.0,0.0,0.0,0.0,0.0,0.0,0.0,0.0,0.0,0.0,0.0,0.0,0.0,0.0,0.0,0.0,0.0,0.0,0.0,0.0,0.0,0.0,0.0,0.0,0.0,0.0,0.0,0.0,0.0,0.0,0.0,0.0,0.0,0.0,0.0,0.0,0.0,0.0,0.0,0.0,0.0,0.0,0.0,0.0,0.0,0.0,0.0,0.0,0.0,0.0,0.0,0.0,0.0,0.0,0.0,0.0,0.0,0.0,0.0,0.0,0.0,0.0,0.0,0.0,0.0,0.0,0.0,0.0,0.0,0.0,0.0,0.0,0.0,0.0,0.0,0.0,0.0,0.0,0.0,0.0,0.0,0.0,0.0,0.0,0.0,0.0,0.0,0.0,0.0,0.0,0.0,0.0,0.0,0.0,0.0,0.0,0.0,0.0,0.0,0.0,0.0,0.0,0.0,0.0,0.0,0.0,0.0,0.0,0.0,0.0,0.0,0.0,0.0,0.0,0.0,0.0,0.0,0.0,0.0,0.0,0.0,0.0,0.0,0.0,0.0,0.0,0.0,0.0,0.0,0.0,0.0,0.0,0.0,0.0,0.0,0.0,0.0,0.0,0.0,0.0,0.0,0.0,0.0,0.0,0.0,0.0,0.0,0.0,0.0,0.0,0.0,0.0,0.0,0.0,0.0,0.0,0.0,0.0,0.0,0.0,0.0,0.0,0.0,0.0,0.0,0.0,0.0,0.0,0.0,0.0,0.0,0.0,0.0,0.0,0.0,0.0,0.0,0.0,0.0,0.0,0.0,0.0,0.0,0.0,0.0,0.0,0.0,0.0,0.0,0.0,0.0,0.0,0.0,0.0,0.0,0.0,0.0,0.0,0.0,0.0,0.0,0.0,0.0,0.0,0.0,0.0,0.0,0.0,0.0,0.0,0.0,0.0,0.0,0.0,0.0,0.0,0.0,0.0,0.0,0.0,0.0,0.0,0.0,0.0,0.0,0.0,0.0,0.0,0.0,0.0,0.0,0.0,0.0,0.0,0.0,0.0,0.0,0.0,0.0,0.0,0.0,0.0,0.0,0.0,0.0,0.0,0.0,0.0,0.0,0.0,0.0,0.0,0.0,0.0,0.0,0.0,0.0,0.0,0.0,0.0,0.0,0.0,0.0,0.0,0.0,0.0,0.0,0.0,0.0,0.0,0.0,0.0,0.0,0.0,0.0,0.0,0.0,0.0,0.0,0.0,0.0,0.0,0.0,0.0,0.0,0.0,0.0,0.0,0.0,0.0,0.0,0.0,0.0,0.0,0.0,0.0,0.0,0.0,0.0,0.0,0.0,0.0,0.0,0.0,0.0,0.0,0.0,0.0,0.0,0.0,0.0,0.0,0.0,0.0,0.0,0.0,0.0,0.0,0.0,0.0,0.0,0.0,0.0,0.0,0.0,0.0,0.0,0.0,0.0,0.0,0.0,0.0,0.0,0.0,0.0,0.0,0.0,0.0,0.0,0.0,0.0,0.0,0.0,0.0,0.0,0.0,0.0,0.0,0.0,0.0,0.0,0.0,0.0,0.0,0.0,0.0,0.0,0.0,0.0,0.0,0.0,0.0,0.0,0.0,0.0,0.0,0.0,0.0,0.0,0.0,0.0,0.0,0.0,0.0,0.0,0.0,0.0,0.0,0.0,0.0,0.0,0.0,0.0,0.0,0.0,0.0,0.0,0.0,0.0,0.0,0.0,0.0,0.0,0.0,0.0,0.0,0.0,0.0,0.0,0.0,0.0,0.0,0.0,0.0,0.0,0.0,0.0,0.0,0.0,0.0,0.0,0.0,0.0,0.0,0.0,0.0,0.0,0.0,0.0,0.0,0.0,0.0,0.0,0.0,0.0,0.0,0.0,0.0,0.0,0.0,0.0,0.0,0.0,0.0,0.0,0.0,0.0,0.0,0.0,0.0,0.0,0.0,0.0,0.0,0.0,0.0,0.0,0.0,0.0,0.0,0.0,0.0,0.0,0.0,0.0,0.0,0.0,0.0,0.0,0.0,0.0,0.0,0.0,0.0,0.0,0.0,0.0,0.0,0.0,0.0,0.0,0.0,0.0,0.0,0.0,0.0,0.0,0.0,0.0,0.0,0.0,0.0,0.0,0.0,0.0,0.0,0.0,0.0,0.0,0.0,0.0,0.0,0.0,0.0,0.0,0.0,0.0,0.0,0.0,0.0,0.0,0.0,0.0,0.0,0.0,0.0,0.0,0.0,0.0,0.0,0.0,0.0,0.0,0.0,0.0,0.0,0.0,0.0,0.0,0.0,0.0,0.0,0.0,0.0,0.0,0.0,0.0,0.0,0.0,0.0,0.0,0.0,0.0,0.0,0.0,0.0,0.0,0.0,0.0,0.0,0.0,0.0,0.0,0.0,0.0,0.0,0.0,0.0,0.0,0.0,0.0,0.0,0.0,0.0,0.0,0.0,0.0,0.0,0.0,0.0,0.0,0.0,0.0,0.0,0.0,0.0,0.0,0.0,0.0,0.0,0.0,0.0,0.0,0.0,0.0,0.0,0.0,0.0,0.0,0.0,0.0,0.0,0.0,0.0,0.0,0.0,0.0,0.0,0.0,0.0,0.0,0.0,0.0,0.0,0.0,0.0,0.0,0.0,0.0,0.0,0.0,0.0,0.0,0.0,0.0,0.0,0.0,0.0,0.0,0.0,0.0,0.0,0.0,0.0,0.0,0.0,0.0,0.0,0.0,0.0,0.0,0.0,0.0,0.0,0.0,0.0,0.0,0.0,0.0,0.0,0.0,0.0,0.0,0.0,0.0,0.0,0.0,0.0,0.0,0.0,0.0,0.0,0.0,0.0,0.0,0.0,0.0,0.0,0.0,0.0,0.0,0.0,0.0,0.0,0.0,0.0,0.0,0.0,0.0,0.0,0.0,0.0,0.0,0.0,0.0,0.0,0.0,0.0,0.0,0.0,0.0,0.0,0.0,0.0,0.0,0.0,0.0,0.0,0.0,0.0,0.0,0.0,0.0,0.0,0.0,0.0,0.0,0.0,0.0,0.0,0.0,0.0,0.0,0.0,0.0,0.0,0.0,0.0,0.0,0.0,0.0,0.0,0.0,0.0,0.0,0.0,0.0,0.0,0.0,0.0,0.0,0.0,0.0,0.0,0.0,0.0,0.0,0.0,0.0,0.0,0.0,0.0,0.0,0.0,0.0,0.0,0.0,0.0,0.0,0.0,0.0,0.0,0.0,0.0,0.0,0.0,0.0,0.0,0.0,0.0,0.0,0.0,0.0,0.0,0.0,0.0,0.0,0.0,0.0,0.0,0.0,0.0,0.0,0.0,0.0,0.0,0.0,0.0,0.0,0.0,0.0,0.0,0.0,0.0,1.4094,0.0,0.0,0.0,0.0,0.0,0.0,0.0,0.0,0.0,0.0,0.0,0.0,0.0,0.0,0.0,0.0,0.0,0.0,0.0,0.0,0.0,0.0,0.0,0.0,0.0,0.0,0.0,0.0,0.0,0.0,0.0,0.0,0.0,0.0,0.0,0.0,0.0,0.0,0.0,0.0,0.0,0.0,0.0,0.0,0.0,0.0,0.0,0.0,0.0,0.0,0.0,0.0,0.0,0.0,0.0,0.0,0.0,0.0,0.0,0.0,0.0,0.0,0.0,0.0,0.0,0.0,0.0,0.0,0.0,0.0,0.0,0.0,0.0,0.0,0.0,0.0,0.0,0.0,0.0,0.0,0.0,0.0,0.0,0.0,0.0,0.0,0.0,0.0,0.0,0.0,0.0,0.0,0.0,0.0,0.0,0.0,0.0,0.0,0.0,0.0,0.0,0.0,0.0,0.0,0.0,0.0,0.0,0.0,0.0,0.0,1.541,1.541,1.4562,1.4114,1.4094,0.0,0.0,0.0,0.0,0.0,0.0,0.0,0.0,0.0,0.0,0.0,0.0,0.0,0.0,0.0,0.0,0.0,0.0,0.0,0.0,0.0,0.0,0.0,0.0,0.0,0.0,0.0,0.0,0.0,0.0,0.0,0.0,0.0,0.0,0.0,0.0,0.0,0.0,0.0,0.0,0.0,0.0,0.0,0.0,0.0,0.0,0.0,0.0,0.0,0.0,0.0,0.0,0.0,0.0,0.0,0.0,0.0,0.0,0.0,0.0,0.0,0.0,0.0,0.0,0.0,0.0,0.0,0.0,0.0,0.0,0.0,0.0,0.0,0.0,0.0,0.0,0.0,0.0,0.0,0.0,0.0,0.0,0.0,0.0,0.0,0.0,0.0,0.0,0.0,0.0,0.0,0.0,0.0,0.0,0.0,0.0,0.0,0.0,0.0,0.0,0.0,0.0,0.0,0.0,0.0,0.0,0.0,0.0,0.0,0.0,0.0,0.0,1.4699,1.4153,1.3977,0.0,0.0,0.0,0.0,0.0,0.0,0.0,0.0,0.0,0.0,0.0,0.0,0.0,0.0,0.0,0.0,0.0,0.0,0.0,0.0,0.0,0.0,0.0,0.0,0.0,0.0,0.0,0.0,0.0,0.0,0.0,0.0,0.0,0.0,0.0,0.0,0.0,0.0,0.0,0.0,0.0,0.0,0.0,0.0,0.0,0.0,0.0,0.0,0.0,0.0,0.0,0.0,0.0,0.0,0.0,0.0,0.0,0.0,0.0,0.0,0.0,0.0,0.0,0.0,0.0,0.0,0.0,0.0,0.0,0.0,0.0,0.0,0.0,0.0,0.0,0.0,0.0,0.0,0.0,0.0,0.0,0.0,0.0,0.0,0.0,0.0,0.0,0.0,0.0,0.0,0.0,0.0,0.0,0.0,0.0,0.0,0.0,0.0,0.0,0.0,0.0,0.0,0.0,0.0,0.0,0.0,0.0,0.0,0.0,0.0,1.5586,1.6007,1.5204,0.0,1.3568,0.0,0.0,0.0,0.0,0.0,0.0,0.0,0.0,0.0,0.0,0.0,0.0,0.0,0.0,0.0,0.0,0.0,0.0,0.0,0.0,0.0,0.0,0.0,0.0,0.0,0.0,0.0,0.0,0.0,0.0,0.0,0.0,0.0,0.0,0.0,0.0,0.0,0.0,0.0,0.0,0.0,0.0,0.0,0.0,0.0,0.0,0.0,0.0,0.0,0.0,0.0,0.0,0.0,0.0,0.0,0.0,0.0,0.0,0.0,0.0,0.0,0.0,0.0,0.0,0.0,0.0,0.0,0.0,0.0,0.0,0.0,0.0,0.0,0.0,0.0,0.0,0.0,0.0,0.0,0.0,0.0,0.0,0.0,0.0,0.0,0.0,0.0,0.0,0.0,0.0,0.0,0.0,0.0,0.0,0.0,0.0,0.0,0.0,0.0,0.0,0.0,0.0,0.0,0.0,0.0,0.0,0.0,0.0,0.0,0.0,1.6016,1.6445,1.5625,1.4512,0.0,0.0,0.0,0.0,0.0,0.0,0.0,0.0,0.0,0.0,0.0,0.0,0.0,0.0,0.0,0.0,0.0,0.0,0.0,0.0,0.0,0.0,0.0,0.0,0.0,0.0,0.0,0.0,0.0,0.0,0.0,0.0,0.0,0.0,0.0,0.0,0.0,0.0,0.0,0.0,0.0,0.0,0.0,0.0,0.0,0.0,0.0,0.0,0.0,0.0,0.0,0.0,0.0,0.0,0.0,0.0,0.0,0.0,0.0,0.0,0.0,0.0,0.0,0.0,0.0,0.0,0.0,0.0,0.0,0.0,0.0,0.0,0.0,0.0,0.0,0.0,0.0,0.0,0.0,0.0,0.0,0.0,0.0,0.0,0.0,0.0,0.0,0.0,0.0,0.0,0.0,0.0,0.0,0.0,0.0,0.0,0.0,0.0,0.0,0.0,0.0,0.0,0.0,0.0,0.0,0.0,0.0,0.0,0.0,0.0,1.5723,1.6065,1.6359,1.5851,1.4779,1.3229,0.0,0.0,0.0,0.0,0.0,0.0,0.0,0.0,0.0,0.0,0.0,0.0,0.0,0.0,0.0,0.0,0.0,0.0,0.0,0.0,0.0,0.0,0.0,0.0,0.0,0.0,0.0,0.0,0.0,0.0,0.0,0.0,0.0,0.0,0.0,0.0,0.0,0.0,0.0,0.0,0.0,0.0,0.0,0.0,0.0,0.0,0.0,0.0,0.0,0.0,0.0,0.0,0.0,0.0,0.0,0.0,0.0,0.0,0.0,0.0,0.0,0.0,0.0,0.0,0.0,0.0,0.0,0.0,0.0,0.0,0.0,0.0,0.0,0.0,0.0,0.0,0.0,0.0,0.0,0.0,0.0,0.0,0.0,0.0,0.0,0.0,0.0,0.0,0.0,0.0,0.0,0.0,0.0,0.0,0.0,0.0,0.0,0.0,0.0,0.0,0.0,0.0,0.0,0.0,0.0,0.0,0.0,0.0,1.541,1.542,1.5527,1.5761,1.5769,1.5187,0.0,0.0,0.0,0.0,0.0,0.0,0.0,0.0,0.0,0.0,0.0,0.0,0.0,0.0,0.0,0.0,0.0,0.0,0.0,0.0,0.0,0.0,0.0,0.0,0.0,0.0,0.0,0.0,0.0,0.0,0.0,0.0,0.0,0.0,0.0,0.0,0.0,0.0,0.0,0.0,0.0,0.0,0.0,0.0,0.0,0.0,0.0,0.0,0.0,0.0,0.0,0.0,0.0,0.0,0.0,0.0,0.0,0.0,0.0,0.0,0.0,0.0,0.0,0.0,0.0,0.0,0.0,0.0,0.0,0.0,0.0,0.0,0.0,0.0,0.0,0.0,0.0,0.0,0.0,0.0,0.0,0.0,0.0,0.0,0.0,0.0,0.0,0.0,0.0,0.0,0.0,0.0,0.0,0.0,0.0,0.0,0.0,0.0,0.0,0.0,0.0,0.0,0.0,0.0,0.0,0.0,0.0,0.0,0.0,1.5449,1.5927,1.6087,1.5789,1.6017,1.5287,0.0,0.0,0.0,0.0,0.0,0.0,0.0,0.0,0.0,0.0,0.0,0.0,0.0,0.0,0.0,0.0,0.0,0.0,0.0,0.0,0.0,0.0,0.0,0.0,0.0,0.0,0.0,0.0,0.0,0.0,0.0,0.0,0.0,0.0,0.0,0.0,0.0,0.0,0.0,0.0,0.0,0.0,0.0,0.0,0.0,0.0,0.0,0.0,0.0,0.0,0.0,0.0,0.0,0.0,0.0,0.0,0.0,0.0,0.0,0.0,0.0,0.0,0.0,0.0,0.0,0.0,0.0,0.0,0.0,0.0,0.0,0.0,0.0,0.0,0.0,0.0,0.0,0.0,0.0,0.0,0.0,0.0,0.0,0.0,0.0,0.0,0.0,0.0,0.0,0.0,0.0,0.0,0.0,0.0,0.0,0.0,0.0,0.0,0.0,0.0,0.0,0.0,0.0,0.0,0.0,0.0,0.0,0.0,0.0,1.5704,0.0,1.6846,1.6369,1.6587,1.5802,0.0,0.0,0.0,0.0,0.0,0.0,0.0,0.0,0.0,0.0,0.0,0.0,0.0,0.0,0.0,0.0,0.0,0.0,0.0,0.0,0.0,0.0,0.0,0.0,0.0,0.0,0.0,0.0,0.0,0.0,0.0,0.0,0.0,0.0,0.0,0.0,0.0,0.0,0.0,0.0,0.0,0.0,0.0,0.0,0.0,0.0,0.0,0.0,0.0,0.0,0.0,0.0,0.0,0.0,0.0,0.0,0.0,0.0,0.0,0.0,0.0,0.0,0.0,0.0,0.0,0.0,0.0,0.0,0.0,0.0,0.0,0.0,0.0,0.0,0.0,0.0,0.0,0.0,0.0,0.0,0.0,0.0,0.0,0.0,0.0,0.0,0.0,0.0,0.0,0.0,0.0,0.0,0.0,0.0,0.0,0.0,0.0,0.0,0.0,0.0,0.0,0.0,0.0,0.0,0.0,0.0,0.0,0.0,1.594,1.6336,1.7391,1.779,1.7509,1.7412,1.6744,0.0,0.0,0.0,0.0,0.0,0.0,0.0,0.0,0.0,0.0,0.0,0.0,0.0,0.0,0.0,0.0,0.0,0.0,0.0,0.0,0.0,0.0,0.0,0.0,0.0,0.0,0.0,0.0,0.0,0.0,0.0,0.0,0.0,0.0,0.0,0.0,0.0,0.0,0.0,0.0,0.0,0.0,0.0,0.0,0.0,0.0,0.0,0.0,0.0,0.0,0.0,0.0,0.0,0.0,0.0,0.0,0.0,0.0,0.0,0.0,0.0,0.0,0.0,0.0,0.0,0.0,0.0,0.0,0.0,0.0,0.0,0.0,0.0,0.0,0.0,0.0,0.0,0.0,0.0,0.0,0.0,0.0,0.0,0.0,0.0,0.0,0.0,0.0,0.0,0.0,0.0,0.0,0.0,0.0,0.0,0.0,0.0,0.0,0.0,0.0,0.0,0.0,0.0,0.0,0.0,0.0,0.0,0.0,0.0,1.7503,1.8482,1.885,1.8547,1.876,1.804,0.0,0.0,0.0,0.0,0.0,0.0,0.0,0.0,0.0,0.0,0.0,0.0,0.0,0.0,0.0,0.0,0.0,0.0,0.0,0.0,0.0,0.0,0.0,0.0,0.0,0.0,0.0,0.0,0.0,0.0,0.0,0.0,0.0,0.0,0.0,0.0,0.0,0.0,0.0,0.0,0.0,0.0,0.0,0.0,0.0,0.0,0.0,0.0,0.0,0.0,0.0,0.0,0.0,0.0,0.0,0.0,0.0,0.0,0.0,0.0,0.0,0.0,0.0,0.0,0.0,0.0,0.0,0.0,0.0,0.0,0.0,0.0,0.0,0.0,0.0,0.0,0.0,0.0,0.0,0.0,0.0,0.0,0.0,0.0,0.0,0.0,0.0,0.0,0.0,0.0,0.0,0.0,0.0,0.0,0.0,0.0,0.0,0.0,0.0,0.0,0.0,0.0,0.0,0.0,0.0,0.0,0.0,0.0,0.0,2.0751,2.1062,2.1042,2.0642,2.064,1.9772,1.7993,0.0,0.0,0.0,0.0,0.0,0.0,0.0,0.0,0.0,0.0,0.0,0.0,0.0,0.0,0.0,0.0,0.0,0.0,0.0,0.0,0.0,0.0,0.0,0.0,0.0,0.0,0.0,0.0,0.0,0.0,0.0,0.0,0.0,0.0,0.0,0.0,0.0,0.0,0.0,0.0,0.0,0.0,0.0,0.0,0.0,0.0,0.0,0.0,0.0,0.0,0.0,0.0,0.0,0.0,0.0,0.0,0.0,0.0,0.0,0.0,0.0,0.0,0.0,0.0,0.0,0.0,0.0,0.0,0.0,0.0,0.0,0.0,0.0,0.0,0.0,0.0,0.0,0.0,0.0,0.0,0.0,0.0,0.0,0.0,0.0,0.0,0.0,0.0,0.0,0.0,0.0,0.0,0.0,0.0,0.0,0.0,0.0,0.0,0.0,0.0,0.0,0.0,0.0,0.0,0.0,0.0,0.0,0.0,2.555,2.5025,2.4343,2.3542,2.3004,2.1956,0.0,0.0,0.0,0.0,0.0,0.0,0.0,0.0,0.0,0.0,0.0,0.0,0.0,0.0,0.0,0.0,0.0,0.0,0.0,0.0,0.0,0.0,0.0,0.0,0.0,0.0,0.0,0.0,0.0,0.0,0.0,0.0,0.0,0.0,0.0,0.0,0.0,0.0,0.0,0.0,0.0,0.0,0.0,0.0,0.0,0.0,0.0,0.0,0.0,0.0,0.0,0.0,0.0,0.0,0.0,0.0,0.0,0.0,0.0,0.0,0.0,0.0,0.0,0.0,0.0,0.0,0.0,0.0,0.0,0.0,0.0,0.0,0.0,0.0,0.0,0.0,0.0,0.0,0.0,0.0,0.0,0.0,0.0,0.0,0.0,0.0,0.0,0.0,0.0,0.0,0.0,0.0,0.0,0.0,0.0,0.0,0.0,0.0,0.0,0.0,0.0,0.0,0.0,0.0,0.0,0.0,0.0,0.0,0.0,2.8206,2.9965,2.9462,2.6588,2.6189,2.4671,0.0,0.0,0.0,0.0,0.0,0.0,0.0,0.0,0.0,0.0,0.0,0.0,0.0,0.0,0.0,0.0,0.0,0.0,0.0,0.0,0.0,0.0,0.0,0.0,0.0,0.0,0.0,0.0,0.0,0.0,0.0,0.0,0.0,0.0,0.0,0.0,0.0,0.0,0.0,0.0,0.0,0.0,0.0,0.0,0.0,0.0,0.0,0.0,0.0,0.0,0.0,0.0,0.0,0.0,0.0,0.0,0.0,0.0,0.0,0.0,0.0,0.0,0.0,0.0,0.0,0.0,0.0,0.0,0.0,0.0,0.0,0.0,0.0,0.0,0.0,0.0,0.0,0.0,0.0,0.0,0.0,0.0,0.0,0.0,0.0,0.0,0.0,0.0,0.0,0.0,0.0,0.0,0.0,0.0,0.0,0.0,0.0,0.0,0.0,0.0,0.0,0.0,0.0,0.0,0.0,0.0,0.0,0.0,2.7307,3.0604,3.3744,3.3873,3.0822,2.9194,2.6892,0.0,0.0,0.0,0.0,0.0,0.0,0.0,0.0,0.0,0.0,0.0,0.0,0.0,0.0,0.0,0.0,0.0,0.0,0.0,0.0,0.0,0.0,0.0,0.0,0.0,0.0,0.0,0.0,0.0,0.0,0.0,0.0,0.0,0.0,0.0,0.0,0.0,0.0,0.0,0.0,0.0,0.0,0.0,0.0,0.0,0.0,0.0,0.0,0.0,0.0,0.0,0.0,0.0,0.0,0.0,0.0,0.0,0.0,0.0,0.0,0.0,0.0,0.0,0.0,0.0,0.0,0.0,0.0,0.0,0.0,0.0,0.0,0.0,0.0,0.0,0.0,0.0,0.0,0.0,0.0,0.0,0.0,0.0,0.0,0.0,0.0,0.0,0.0,0.0,0.0,0.0,0.0,0.0,0.0,0.0,0.0,0.0,0.0,0.0,0.0,0.0,0.0,0.0,0.0,0.0,0.0,0.0,0.0,2.9526,3.2795,3.643,3.7464,3.5454,3.2109,2.89,0.0,0.0,0.0,0.0,0.0,0.0,0.0,0.0,0.0,0.0,0.0,0.0,0.0,0.0,0.0,0.0,0.0,0.0,0.0,0.0,0.0,0.0,0.0,0.0,0.0,0.0,0.0,0.0,0.0,0.0,0.0,0.0,0.0,0.0,0.0,0.0,0.0,0.0,0.0,0.0,0.0,0.0,0.0,0.0,0.0,0.0,0.0,0.0,0.0,0.0,0.0,0.0,0.0,0.0,0.0,0.0,0.0,0.0,0.0,0.0,0.0,0.0,0.0,0.0,0.0,0.0,0.0,0.0,0.0,0.0,0.0,0.0,0.0,0.0,0.0,0.0,0.0,0.0,0.0,0.0,0.0,0.0,0.0,0.0,0.0,0.0,0.0,0.0,0.0,0.0,0.0,0.0,0.0,0.0,0.0,0.0,0.0,0.0,0.0,0.0,0.0,0.0,0.0,0.0,0.0,0.0,0.0,0.0,3.1805,3.4893,3.7615,3.8599,3.7715,3.5048,3.1721,0.0,0.0,0.0,0.0,0.0,0.0,0.0,0.0,0.0,0.0,0.0,0.0,0.0,0.0,0.0,0.0,0.0,0.0,0.0,0.0,0.0,0.0,0.0,0.0,0.0,0.0,0.0,0.0,0.0,0.0,0.0,0.0,0.0,0.0,0.0,0.0,0.0,0.0,0.0,0.0,0.0,0.0,0.0,0.0,0.0,0.0,0.0,0.0,0.7208,0.0,0.0,0.0,0.0,0.0,0.0,0.0,0.0,0.0,0.0,0.0,0.0,0.0,0.0,0.0,0.0,0.0,0.0,0.0,0.0,0.0,0.0,0.0,0.0,0.0,0.0,0.0,0.0,0.0,0.0,0.0,0.0,0.0,0.0,0.0,0.0,0.0,0.0,0.0,0.0,0.0,0.0,0.0,0.0,0.0,0.0,0.0,0.0,0.0,0.0,0.0,0.0,0.0,0.0,0.0,0.0,0.0,0.0,0.0,3.4012,3.6699,3.925,4.0124,3.9041,3.7465,3.4349,0.0,0.0,0.0,0.0,0.0,0.0,0.0,0.0,0.0,0.0,0.0,0.0,0.0,0.0,0.0,0.0,0.0,0.0,0.0,0.0,0.0,0.0,0.0,0.0,0.0,0.0,0.0,0.0,0.0,0.0,0.0,0.0,0.0,0.0,0.0,0.0,0.0,0.0,0.0,0.0,0.0,0.0,0.0,0.0,0.0,0.0,0.0,0.0,0.0,0.0,0.0,0.0,0.0,0.0,0.0,0.0,0.0,0.0,0.0,0.0,0.0,0.0,0.0,0.0,0.0,0.0,0.0,0.0,0.0,0.0,0.0,0.0,0.0,0.0,0.0,0.0,0.0,0.0,0.0,0.0,0.0,0.0,0.0,0.0,0.0,0.0,0.0,0.0,0.0,0.0,0.0,0.0,0.0,0.0,0.0,0.0,0.0,0.0,0.0,0.0,0.0,0.0,0.0,0.0,0.0,0.0,0.0,3.3093,3.6132,3.8241,4.088,4.1458,3.9873,3.9044,3.6132,3.0909,0.0,0.0,0.0,0.0,0.0,0.0,0.0,0.0,0.0,0.0,0.0,0.0,0.0,0.0,0.0,0.0,0.0,0.0,0.0,0.0,0.0,0.0,0.0,0.0,0.0,0.0,0.0,0.0,0.0,0.0,0.0,0.0,0.0,0.0,0.0,0.0,0.0,0.0,0.9903,1.1035,0.0,0.0,0.0,0.0,0.0,0.0,0.0,0.0,0.7412,0.0,0.0,0.0,0.0,0.0,0.0,0.0,0.0,0.0,0.0,0.0,0.0,0.0,0.0,0.0,0.0,0.0,0.0,0.0,0.0,0.0,0.0,0.0,0.0,0.0,0.0,0.0,0.0,0.0,0.0,0.0,0.0,0.0,0.0,0.0,0.0,0.0,0.0,0.0,0.0,0.0,0.0,0.0,0.0,0.0,0.0,0.0,0.0,0.0,0.0,0.0,0.0,0.0,0.0,0.0,0.0,3.0267,3.46,3.7638,3.9396,4.1257,4.1634,4.0375,3.8492,3.5504,3.1411,0.0,0.0,0.0,0.0,0.0,0.0,0.0,0.0,0.0,0.0,0.0,0.0,0.0,0.0,0.0,0.0,0.0,0.0,0.0,0.0,0.0,0.0,0.0,0.0,0.0,0.0,0.0,0.0,0.0,0.0,0.0,0.0,0.0,0.0,0.0,0.0,0.0,0.0,0.0,1.2363,1.3017,0.0,0.0,0.0,0.0,0.0,0.0,0.0,0.0,0.786,0.0,0.0,0.0,0.0,0.0,0.0,0.0,0.0,0.0,0.0,0.0,0.0,0.0,0.0,0.0,0.0,0.0,0.0,0.0,0.0,0.0,0.0,0.0,0.0,0.0,0.0,0.0,0.0,0.0,0.0,0.0,0.0,0.0,0.0,0.0,0.0,0.0,0.0,0.0,0.0,0.0,0.0,0.0,0.0,0.0,0.0,0.0,0.0,0.0,0.0,0.0,0.0,0.0,0.0,0.0,3.1863,3.6232,3.9145,4.0526,4.1882,4.1781,4.0099,3.7663,3.4525,0.0,0.0,0.0,0.0,0.0,0.0,0.0,0.0,0.0,0.0,0.0,0.0,0.0,0.0,0.0,0.0,0.0,0.0,0.0,0.0,0.0,0.0,0.0,0.0,0.0,0.0,0.0,0.0,0.0,0.0,0.0,0.0,0.0,0.0,0.0,0.0,0.0,0.0,0.0,0.0,1.3203,1.3997,1.3491,0.0,0.0,0.0,0.0,0.0,0.0,0.9337,0.8898,0.0,0.0,0.0,0.0,0.0,0.0,0.0,0.0,0.0,0.0,0.0,0.0,0.0,0.0,0.0,0.0,0.0,0.0,0.0,0.0,0.0,0.0,0.0,0.0,0.0,0.0,0.0,0.0,0.0,0.0,0.0,0.0,0.0,0.0,0.0,0.0,0.0,0.0,0.0,0.0,0.0,0.0,0.0,0.0,0.0,0.0,0.0,0.0,0.0,0.0,0.0,0.0,0.0,0.0,0.0,3.3086,3.7437,4.0224,4.1275,4.2409,4.1882,3.9572,3.6935,3.3627,0.0,0.0,0.0,0.0,0.0,0.0,0.0,0.0,0.0,0.0,0.0,0.0,0.0,0.0,0.0,0.0,0.0,0.0,0.0,0.0,0.0,0.0,0.0,0.0,0.0,0.0,0.0,0.0,0.0,0.0,0.0,0.0,0.0,0.0,0.0,0.0,0.0,0.0,0.0,0.0,0.0,1.497,1.466,1.4933,0.0,0.0,0.0,0.0,1.1143,1.0684,0.0,0.0,0.0,0.0,0.0,0.0,0.0,0.0,0.0,0.0,0.0,0.0,0.0,0.0,0.0,0.0,0.0,0.0,0.0,0.0,0.0,0.0,0.0,0.0,0.0,0.0,0.0,0.0,0.0,0.0,0.0,0.0,0.0,0.0,0.0,0.0,0.0,0.0,0.0,0.0,0.0,0.0,0.0,0.0,0.0,0.0,0.0,0.0,0.0,0.0,0.0,0.0,0.0,0.0,0.0,0.0,3.3086,3.7437,4.0224,4.1275,4.2409,4.1706,3.9095,3.6734,3.3452,0.0,0.0,0.0,0.0,0.0,0.0,0.0,0.0,0.0,0.0,0.0,0.0,0.0,0.0,0.0,0.0,0.0,0.0,0.0,0.0,0.0,0.0,0.0,0.0,0.0,0.0,0.0,0.0,0.0,0.0,0.0,0.0,0.0,0.0,0.0,0.0,0.0,0.0,0.0,0.0,0.0,1.6065,1.6356,1.6434,1.6216,0.0,0.0,1.3281,1.3154,1.256,0.0,0.0,0.0,0.0,0.0,0.0,0.0,0.0,0.0,0.0,0.0,0.0,0.0,0.0,0.0,0.0,0.0,0.0,0.0,0.0,0.0,0.0,0.0,0.0,0.0,0.0,0.0,0.0,0.0,0.0,0.0,0.0,0.0,0.0,0.0,0.0,0.0,0.0,0.0,0.0,0.0,0.0,0.0,0.0,0.0,0.0,0.0,0.0,0.0,0.0,0.0,0.0,0.0,0.0,0.0,2.8686,3.3086,3.7437,4.0224,4.1275,4.2409,4.1656,3.8969,3.6408,3.295,0.0,0.0,0.0,0.0,0.0,0.0,0.0,0.0,0.0,0.0,0.0,0.0,0.0,0.0,0.0,0.0,0.0,0.0,0.0,0.0,0.0,0.0,0.0,0.0,0.0,0.0,0.0,0.0,0.0,0.0,0.0,0.0,0.0,0.0,0.0,0.0,0.0,0.0,0.0,0.0,0.0,0.0,1.7031,1.7272,0.0,0.0,0.0,1.531,1.531,0.0,0.0,0.0,0.0,0.0,0.0,0.0,0.0,0.0,0.0,0.0,0.0,0.0,0.0,0.0,0.0,0.0,0.0,0.0,0.0,0.0,0.0,0.0,0.0,0.0,0.0,0.0,0.0,0.0,0.0,0.0,0.0,0.0,0.0,0.0,0.0,0.0,0.0,0.0,0.0,0.0,0.0,0.0,0.0,0.0,0.0,0.0,0.0,0.0,0.0,0.0,0.0,0.0,0.0,0.0,0.0,0.0,3.3086,3.7437,4.0224,4.1275,4.2409,4.171,3.8944,3.6433,0.0,0.0,0.0,0.0,0.0,0.0,0.0,0.0,0.0,0.0,0.0,0.0,0.0,0.0,0.0,0.0,0.0,0.0,0.0,0.0,0.0,0.0,0.0,0.0,0.0,0.0,0.0,0.977,0.0,0.0,0.0,0.0,0.0,0.0,0.0,0.0,0.0,0.0,0.0,0.0,0.0,0.0,1.7058,1.7617,1.8242,1.8457,0.0,0.0,1.7305,1.7038,1.668,1.5858,0.0,0.0,0.0,0.0,0.0,0.0,0.0,0.0,0.0,0.0,0.0,0.0,0.0,0.0,0.0,0.0,0.0,0.0,0.0,0.0,0.0,0.0,0.0,0.0,0.0,0.0,0.0,0.0,0.0,0.0,0.0,0.0,0.0,0.0,0.0,0.0,0.0,0.0,0.0,0.0,0.0,0.0,0.0,0.0,0.0,0.0,0.0,0.0,0.0,0.0,0.0,0.0,0.0,0.0,2.8686,3.3086,3.7437,4.0224,4.1275,4.2409,4.1656,3.8994,3.7161,3.3922,0.0,0.0,0.0,0.0,0.0,0.0,0.0,0.0,0.0,0.0,0.0,0.0,0.0,0.0,0.0,0.0,0.0,0.0,0.0,0.0,0.0,0.0,0.0,0.0,0.0,0.0,0.0,0.0,0.0,0.0,0.0,0.0,0.0,0.0,0.0,0.0,0.0,0.0,0.0,0.0,0.0,1.7637,1.8403,1.9609,2.0136,0.0,1.9141,1.8848,1.8047,1.7578,1.6687,1.4849,0.0,0.0,0.0,0.0,0.0,0.0,0.0,0.0,0.0,0.0,0.0,0.0,0.0,0.0,0.0,0.0,0.0,0.0,0.0,0.0,0.0,0.0,0.0,0.0,0.0,0.0,0.0,0.0,0.0,0.0,0.0,0.0,0.0,0.0,0.0,0.0,0.0,0.0,0.0,0.0,0.0,0.0,0.0,0.0,0.0,0.0,0.0,0.0,0.0,0.0,0.0,0.0,0.0,2.8686,3.3086,3.7437,4.0224,4.1275,4.2409,4.1982,3.9923,3.8266,3.5203,0.0,0.0,0.0,0.0,0.0,0.0,0.0,0.0,0.0,0.0,0.0,0.0,0.0,0.0,0.0,0.0,0.0,0.0,0.0,0.0,0.0,0.0,0.0,0.0,0.0,0.0,0.0,0.0,1.121,1.1034,1.0715,0.0,0.0,0.0,0.0,0.0,0.0,0.0,0.0,0.0,0.0,1.8262,1.9629,2.0488,0.0,0.0,2.0664,2.0273,1.9725,1.9004,1.7891,1.5868,1.4007,0.0,0.0,0.0,0.0,0.0,0.0,0.0,0.0,0.0,0.0,0.0,0.0,0.0,0.0,0.0,0.0,0.0,0.0,0.0,0.0,0.0,0.0,0.0,0.0,0.0,0.0,0.0,0.0,0.0,0.0,0.0,0.0,0.0,0.0,0.0,0.0,0.0,0.0,0.0,0.0,0.0,0.0,0.0,0.0,0.0,0.0,0.0,0.0,0.0,0.0,0.0,0.0,2.8661,3.3086,3.7437,4.0224,4.1275,4.2409,4.2183,4.0551,3.9044,3.6182,0.0,0.0,0.0,0.0,0.0,0.0,0.0,0.0,0.0,0.0,0.0,0.0,0.0,0.0,0.0,0.0,0.0,0.0,0.0,0.0,0.0,0.0,0.0,0.0,0.0,0.0,0.0,0.0,1.189,1.1508,1.1312,0.0,0.0,0.0,0.0,0.0,0.0,0.0,0.0,0.0,0.0,1.8769,2.039,2.1055,2.1502,2.1855,2.1621,2.123,2.0683,1.9881,1.8688,1.6789,0.0,0.0,0.0,0.0,0.0,0.0,0.0,0.0,0.0,0.0,0.0,0.0,0.0,0.0,0.0,0.0,0.0,0.0,0.0,0.0,0.0,0.0,0.0,0.0,0.0,0.0,0.0,2.1641,0.0,0.0,1.9912,0.0,0.0,0.0,0.0,0.0,0.0,0.0,0.0,0.0,0.0,0.0,0.0,0.0,0.0,0.0,0.0,0.0,0.0,0.0,0.0,0.0,0.0,2.8686,3.3111,3.7462,4.0249,4.1275,4.2409,4.2208,4.0523,3.9446,3.6759,3.229,0.0,0.0,0.0,0.0,0.0,0.0,0.0,0.0,0.0,0.0,0.0,0.0,0.0,0.0,0.0,0.0,0.0,0.0,0.0,0.0,0.0,0.0,0.0,0.0,0.0,0.0,1.3921,1.3094,1.239,0.0,0.0,0.0,0.0,0.0,0.0,0.0,0.0,0.0,0.0,1.7779,1.9065,2.0429,2.1328,2.1875,2.1894,2.1894,2.1582,2.0762,1.9901,1.8883,0.0,0.0,0.0,0.0,0.0,0.0,0.0,0.0,0.0,0.0,0.0,0.0,0.0,0.0,0.0,0.0,0.0,0.0,0.0,0.0,0.0,0.0,0.0,0.0,0.0,0.0,0.0,2.7198,2.5268,0.0,0.0,0.0,0.0,0.0,0.0,0.0,0.0,0.0,0.0,0.0,3.1436,3.1788,0.0,0.0,0.0,0.0,0.0,0.0,0.0,0.0,0.0,0.0,0.0,0.0,2.9553,3.3596,3.799,4.0601,4.1275,4.2409,4.2359,4.1103,3.9998,3.681,3.1336,0.0,0.0,0.0,0.0,0.0,0.0,0.0,0.0,0.0,0.0,0.0,0.0,0.0,0.0,0.0,0.0,0.0,0.0,0.0,0.0,0.0,0.0,0.0,0.0,0.0,1.386,0.0,0.0,0.0,0.0,0.0,0.0,0.0,0.0,0.0,0.0,0.0,1.4582,1.6453,1.7798,1.9065,2.0429,2.1562,2.2305,0.0,0.0,0.0,0.0,0.0,0.0,0.0,0.0,0.0,0.0,0.0,0.0,0.0,0.0,1.5776,1.3425,1.2522,1.1859,1.1076,0.0,0.0,0.0,0.0,0.0,0.0,0.0,0.0,0.0,0.0,0.0,0.0,0.0,0.0,3.0454,0.0,2.7414,0.0,0.0,0.0,0.0,0.0,0.0,0.0,0.0,3.4016,3.5203,3.5378,3.573,3.573,0.0,3.5554,3.3545,0.0,0.0,0.0,0.0,0.0,0.0,0.0,0.0,3.0306,3.4173,3.8165,4.0501,4.1053,4.1932,4.1982,4.1,3.9421,3.6332,3.1612,2.88,2.6038,0.0,0.0,0.0,0.0,0.0,0.0,0.0,0.0,0.0,0.0,0.0,0.0,0.0,0.0,0.0,0.0,0.0,0.0,0.0,0.0,0.0,0.0,0.0,1.4764,0.0,0.0,0.0,0.0,0.0,0.0,0.0,0.0,0.0,1.429,1.4805,1.5771,1.7174,1.8325,1.9551,2.084,0.0,0.0,0.0,0.0,0.0,0.0,0.0,2.0195,1.9592,1.9514,1.9455,1.9375,1.9416,1.9416,1.9143,0.0,0.0,1.6308,1.5488,1.4905,1.3945,1.3065,1.204,1.0857,1.0322,0.9924,0.0,0.0,0.0,0.0,0.0,0.0,0.0,0.0,3.5103,3.3523,0.0,3.0033,0.0,0.0,0.0,0.0,0.0,2.9528,0.0,0.0,3.7613,3.922,3.9672,3.9697,3.9722,3.9697,3.9145,3.8266,3.6835,3.126,0.0,0.0,0.0,0.0,0.0,0.0,3.0894,3.4751,3.8065,3.9973,4.0526,4.1078,4.105,4.0501,3.7914,3.5479,3.3312,3.0557,2.7759,2.5026,2.2824,0.0,0.0,0.0,0.0,0.0,0.0,0.0,0.0,0.0,0.0,0.0,0.0,0.0,0.0,0.0,0.0,0.0,0.0,0.0,0.0,1.5944,0.0,0.0,0.0,0.0,0.0,0.0,0.0,0.0,0.0,0.0,1.6029,1.6717,1.7695,1.8461,0.0,0.0,0.0,0.0,2.2832,2.3672,2.3477,2.3179,2.312,2.2087,2.1288,2.1268,0.0,0.0,2.1914,2.1621,2.1288,2.1268,2.1147,2.0438,1.8809,1.8282,1.7835,1.6863,1.578,1.4728,1.3424,1.2425,1.1704,4.9796,0.0,0.0,0.0,0.0,4.1808,4.1802,4.1414,4.0777,3.9306,3.73,3.5804,0.0,0.0,0.0,0.0,0.0,0.0,3.5203,3.7161,3.9521,4.0727,4.0877,4.1279,4.1254,4.0877,4.0701,3.9848,3.8316,3.583,3.2667,2.8913,0.0,0.0,0.0,0.0,3.2792,3.5855,3.8793,4.035,4.0526,4.1,4.1025,4.0526,3.8592,3.7061,3.6078,3.3345,3.0608,2.7835,2.5227,0.0,0.0,0.0,0.0,0.0,0.0,0.0,0.0,0.0,0.0,0.0,0.0,0.0,0.0,0.0,0.0,0.0,0.0,0.0,1.6568,1.7652,1.7877,0.0,0.0,0.0,0.0,0.0,0.0,0.0,0.0,0.0,1.9803,1.8642,1.8027,0.0,0.0,1.9941,2.123,2.2262,2.3218,2.4121,2.4648,0.0,2.4095,2.3496,2.3047,2.3047,2.3301,2.3652,2.4127,2.3809,2.3398,2.3105,2.3003,2.2679,2.1882,2.0447,1.9217,1.8315,1.7301,1.6052,1.4553,1.365,1.292,5.6467,5.138,4.9581,4.8068,4.6954,4.7204,4.7116,4.6684,4.6091,4.5107,4.3791,4.1812,3.9627,3.7325,3.497,0.0,0.0,0.0,3.8266,3.9722,4.1505,4.2379,4.266,4.276,4.2635,4.2308,4.1882,4.1153,4.0201,3.8818,3.6734,3.3822,0.0,0.0,3.106,3.229,3.4123,3.6659,3.8994,4.0199,4.0199,4.0526,4.0425,3.9848,3.8668,3.7638,3.6908,3.467,3.2215,2.9704,2.7168,2.4381,0.0,0.0,0.0,0.0,0.0,0.0,0.0,0.0,0.0,0.0,0.0,1.2488,1.1952,0.0,0.0,0.0,1.6317,1.7702,1.863,1.9484,0.0,0.0,0.0,0.0,0.0,0.0,0.0,2.1272,2.2068,2.2582,2.2711,2.125,2.0102,1.9834,2.0115,2.0664,2.1561,0.0,2.3633,2.4316,2.5128,2.5499,2.4972,2.457,2.4297,2.4297,2.4512,2.4824,2.5234,2.4961,2.459,2.4336,2.4023,2.3711,2.3437,2.192,2.0573,2.0108,1.9049,1.7739,1.6325,1.5306,1.4218,6.1253,5.9314,5.6202,5.3774,5.2072,5.2329,5.2182,5.1763,5.0905,5.054,5.0288,4.7591,4.5173,4.2944,3.9308,0.0,3.8491,4.005,4.1307,4.2389,4.3438,4.4166,4.4593,4.4091,4.384,4.3765,4.2685,4.2187,4.2037,4.0551,3.9496,3.8743,3.3796,3.1989,3.3388,3.3922,3.5203,3.7287,3.8894,3.9697,3.9697,3.9697,3.9421,3.8894,3.8316,3.7487,3.643,3.4826,3.2943,3.0758,2.8599,2.6163,2.3396,0.0,0.0,0.0,0.0,0.0,0.0,0.0,0.0,0.0,0.0,0.0,0.0,0.0,0.0,0.0,1.848,0.0,2.0893,2.1496,0.0,0.0,0.0,2.0413,2.1018,2.1999,2.288,2.3688,0.0,0.0,2.4897,2.4181,2.3261,2.205,2.1905,2.2051,2.25,2.3262,2.3945,2.4492,2.5226,2.5791,2.5791,2.5469,2.5223,2.5223,2.5204,2.5273,2.5605,2.541,2.5137,2.5067,2.4394,2.3828,2.3789,2.2711,2.1934,2.1814,2.0792,1.9537,1.8386,1.7098,1.572,6.4066,6.3469,6.17,5.8603,5.4926,5.5532,5.5026,5.3864,5.4092,5.3691,5.2778,5.1164,4.8664,4.5358,4.2913,4.1931,4.2318,4.2821,4.3343,4.3858,4.4684,4.492,4.4618,4.4493,4.4217,4.374,4.274,4.1932,4.153,4.1128,4.0249,3.8868,3.7538,3.6684,3.6232,3.6332,3.7086,3.8467,3.927,3.9697,3.9697,3.9697,3.9446,3.8944,3.8316,3.7487,3.643,3.5177,3.3495,3.1311,2.9503,2.7258,2.4525,2.2447,0.0,0.0,0.0,0.0,0.0,0.0,0.0,0.0,0.0,1.5869,1.617,0.0,1.8254,0.0,2.0939,2.2573,2.315,2.4054,0.0,0.0,2.3703,2.3853,2.4412,2.4657,2.5194,2.6089,2.6419,2.6583,2.6457,2.5914,2.5263,2.4451,2.2916,2.2148,2.2891,2.3482,2.418,2.5167,2.6044,2.6699,2.668,2.6348,2.6055,2.6074,2.5801,2.5625,2.5674,2.5615,2.5469,2.5165,2.4629,2.418,2.3848,2.3008,2.2305,2.1914,2.0991,1.9831,1.8695,1.8001,1.7159,6.5293,6.4905,6.3773,6.1557,5.8813,5.8321,5.7597,5.676,5.7168,5.7216,5.6851,5.4955,5.2484,4.9744,4.8137,4.7214,4.68,4.6559,4.6176,4.5815,4.5868,4.5673,4.5372,4.5121,4.4719,4.4116,4.2866,4.2037,4.1681,4.1204,4.0573,3.9973,3.9722,3.9295,3.8668,3.7939,3.799,3.8919,3.9421,3.9697,3.9672,3.9446,3.9069,3.8492,3.7688,3.6885,3.6031,3.4926,3.3545,3.1838,3.0181,2.8298,2.6013,2.3828,2.197,0.0,0.0,0.0,0.0,0.0,0.0,0.0,0.0,0.0,0.0,0.0,2.154,2.2322,2.3979,2.5209,2.5787,2.6816,2.7344,2.7067,2.7042,2.7143,2.7419,2.7243,2.7383,2.815,2.8052,2.7898,2.793,2.7422,2.6771,2.6008,2.4347,2.3215,2.3327,2.3604,2.4121,2.4972,2.6055,2.6894,2.7226,2.6953,2.6602,2.6387,2.6035,2.5635,2.5469,2.543,2.5293,2.4863,2.4434,2.4082,2.3809,2.3105,2.2441,2.2107,2.1384,2.0371,1.9334,1.8732,1.7984,6.5622,6.4934,6.404,6.3328,6.2642,6.0877,5.994,5.9648,5.9859,6.0284,6.0727,5.8163,5.5988,5.4229,5.3247,5.2094,5.0865,4.9921,4.8869,4.775,4.6832,4.6491,4.6456,4.5842,4.5288,4.4626,4.2992,4.2213,4.2242,4.1235,4.0958,4.1411,4.1034,4.0807,4.0629,3.917,3.8617,3.9045,3.9446,3.9697,3.9697,3.917,3.8567,3.7889,3.6885,3.6031,3.5307,3.4379,3.337,3.224,3.0733,2.9126,2.7469,2.5435,2.3778,0.0,2.1647,0.0,0.0,0.0,0.0,0.0,0.0,0.0,0.0,2.3879,2.4933,2.5937,2.6992,2.7821,2.8373,2.9428,3.0105,3.0105,3.0181,3.0181,3.008,2.9654,2.9503,2.9955,2.9553,2.9236,2.9318,2.8802,2.8056,2.7268,2.6037,2.4932,2.4129,2.3801,2.3848,2.4336,2.5586,2.6816,2.7474,2.7344,2.6953,2.6543,2.6133,2.5664,2.5273,2.5184,2.4969,2.4434,2.4062,2.3769,2.3672,2.3047,2.2578,2.2402,2.1814,2.1093,2.0158,1.9429,1.8751,6.5622,6.4905,6.4247,6.383,6.3682,6.282,6.1673,6.0413,6.0966,6.0746,5.9848,5.8297,5.6715,5.5111,5.3937,5.2482,5.079,4.9913,4.9137,4.8409,4.7524,4.7205,4.7357,4.6583,4.5788,4.489,4.3103,4.2322,4.254,4.2095,4.1921,4.2023,4.2355,4.2223,4.1577,0.0,0.0,0.0,3.9647,3.9697,3.9672,3.9196,3.8441,3.7362,3.6757,0.0,3.4299,3.3997,3.337,3.2265,3.1085,0.0,0.0,0.0,0.0,0.0,0.0,0.0,0.0,0.0,0.0,0.0,2.7971,2.7429,2.5896,2.6691,2.7595,2.8211,2.8925,2.9553,3.0105,3.111,3.1763,3.1763,3.2164,3.2265,3.1813,3.1637,3.1486,3.111,3.0984,3.0879,3.0645,3.0245,2.9659,2.8944,2.7886,2.6911,2.6184,2.4516,2.3638,2.4355,2.584,2.7031,2.7578,2.7598,2.7363,2.6973,2.6543,2.6094,2.5644,2.5254,2.4832,2.4082,2.3848,2.3535,2.293,2.2847,2.275,2.2148,2.2148,2.1914,2.0723,2.0236,1.985,6.6101,6.5443,6.4784,6.4306,0.0,6.3348,6.2639,6.1848,6.2195,6.1774,6.082,5.9856,5.8626,5.7163,5.5894,5.4274,5.2478,5.1261,5.0204,4.9308,4.876,4.8385,4.825,4.7733,4.6927,4.5898,4.3897,4.3058,4.322,4.3224,4.3178,4.3283,4.349,4.3251,4.2592,4.1749,4.0874,4.0099,3.9823,3.9697,3.9672,3.9145,3.8517,3.7613,3.6832,0.0,0.0,0.0,0.0,0.0,0.0,0.0,0.0,0.0,0.0,2.6113,2.6038,2.6264,2.6806,2.762,2.8674,3.003,3.1185,3.0984,2.9089,2.9402,2.9829,3.0131,3.0658,3.121,3.1788,3.2566,3.3144,3.342,3.3721,3.3771,3.3495,3.3194,3.2842,3.229,3.1964,3.1671,3.1272,3.1058,3.0663,3.0121,2.9338,2.8553,2.7833,2.574,2.4459,2.5262,2.623,2.7226,2.7812,2.7773,2.7669,2.7324,2.6816,2.6152,2.5508,2.5039,2.4473,2.3672,2.3457,2.3281,2.2925,2.2964,2.2945,2.2617,2.25,2.2363,2.1621,2.1286,2.101,6.637,6.5622,6.5054,6.4455,6.3797,6.3288,6.3137,6.3137,0.0,0.0,0.0,6.1403,6.0356,5.9039,5.7693,5.6117,5.4326,5.2849,5.1598,5.054,5.02,4.983,4.939,4.898,4.8241,4.7059,4.5195,4.4393,4.4597,4.4652,4.4783,4.4969,4.4783,4.4309,4.359,4.2378,4.1521,4.1119,4.0253,3.9798,3.9672,3.9221,3.8542,3.7864,3.6933,3.5902,3.4776,3.4299,3.3571,3.2566,3.2064,3.1336,3.0281,2.9854,2.9428,2.8875,2.8925,2.9227,2.974,3.0643,3.1411,3.1938,3.3269,3.342,3.1938,3.1913,3.1989,3.1964,3.239,3.2842,3.3319,3.3847,3.4374,3.4826,3.4951,3.4977,3.4851,3.443,3.3972,3.342,3.2893,3.2365,3.1964,3.1813,3.1564,3.1149,3.061,2.9938,2.9171,2.7165,2.5839,2.6379,2.6875,2.7402,2.793,2.8008,2.7806,2.7637,2.7012,2.623,2.5517,2.4805,2.4095,2.3432,2.3179,2.3062,2.3003,2.3023,2.3081,2.3101,2.293,2.2773,2.2812,2.2578,2.2324,6.5443,6.4276,6.4186,6.3767,6.3199,6.3109,6.3137,6.3137,6.3137,6.269,6.2061,6.1403,6.0386,5.9039,5.7693,5.6221,5.4662,5.3422,5.2581,5.2162,5.1647,5.1378,5.1263,5.0518,4.9545,4.8391,4.6829,4.6544,4.7133,4.6781,4.6876,4.7444,4.6824,4.5818,4.4539,4.3882,4.349,4.3386,4.1432,4.0174,3.9697,3.9145,3.8366,3.7337,3.6757,3.5855,3.4731,3.465,3.4324,3.3696,3.3596,3.3043,3.1964,3.2282,3.224,3.1712,3.2089,3.2616,3.3144,3.337,3.3671,3.4154,3.4474,3.4299,3.3646,3.3972,3.4248,3.4248,3.4248,3.4399,3.4525,3.4951,3.5232,3.5408,3.583,3.5931,3.5458,3.5307,3.5006,3.45,3.3997,3.3621,3.3395,3.3043,3.2657,3.2407,3.1877,3.1223,2.9962,2.8349,2.7247,2.7038,2.7285,2.765,2.7878,2.8047,2.8041,2.7715,2.7246,2.6719,2.6191,2.5195,2.4316,2.3769,2.3374,2.3023,2.2754,2.291,2.3125,2.3223,2.3359,2.3652,2.3926,2.3945,2.375,6.5772,6.4605,6.4545,6.3977,6.3137,6.3137,6.3137,6.3137,6.3137,6.272,6.2002,6.1014,6.0027,5.9009,5.7693,5.6534,5.5534,5.4595,5.4146,5.3971,5.409,5.3762,5.3102,5.2556,5.1679,5.0491,4.9362,4.9008,4.9388,4.9578,4.9521,4.9234,4.8201,4.7126,4.603,4.5735,4.5518,4.5167,4.2709,4.1312,4.1055,4.0338,3.9522,3.8559,3.8182,3.7356,3.6107,3.5894,3.5583,3.5206,3.5035,3.4605,3.4007,3.4341,3.4262,3.3598,3.3908,3.4231,3.4324,3.4901,3.5479,3.6006,3.6332,3.6408,3.6157,3.5253,3.468,3.468,3.468,3.4806,3.5082,3.5357,3.5633,3.5956,3.6232,3.6304,3.6056,3.5981,3.578,3.5182,3.4675,3.4248,3.3947,3.342,3.3068,3.2921,3.2704,3.225,3.1483,3.0855,2.9882,2.8635,2.8296,2.8261,2.8197,2.8344,2.8298,2.7787,2.7305,2.6875,2.6426,2.5449,2.4609,2.3945,2.3613,2.334,2.293,2.3203,2.3437,2.3535,2.3828,2.4199,2.4394,2.459,2.4453,6.6221,6.5024,6.5024,6.4276,6.3166,6.3137,6.3137,6.3079,6.2929,6.257,6.1972,6.0835,6.0027,5.9428,5.7992,5.7064,5.6585,5.5927,5.5628,5.5688,5.6137,5.576,5.468,5.4269,5.3514,5.2405,5.1509,5.1231,5.1456,5.1971,5.1562,5.0406,4.9352,4.8409,4.7453,4.748,4.7281,4.6729,4.461,4.3261,4.2717,4.1992,4.1041,3.9995,3.9596,3.8789,3.7486,3.7222,3.7117,3.6948,3.6903,3.6762,3.6475,3.6665,3.6366,3.5546,3.5545,3.5517,3.5349,3.6056,3.6832,3.7337,3.7764,3.799,3.7864,3.6483,3.5454,3.5408,3.5554,3.5705,3.6034,3.611,3.6282,3.6732,3.6734,3.6784,3.6782,3.6782,3.6508,3.5934,3.5429,3.4851,3.4198,3.3596,3.3244,3.3126,3.3251,3.3256,3.2978,3.3054,3.2385,3.0967,2.9926,2.9322,2.8941,2.8729,2.8443,2.778,2.7305,2.6934,2.6504,2.582,2.5019,2.4316,2.4023,2.3769,2.3437,2.3633,2.3887,2.3965,2.4277,2.459,2.4785,2.5019,2.498,6.6221,6.5054,6.5054,6.4276,6.3139,6.3137,6.3137,6.2989,6.245,6.2181,6.2061,6.1313,6.0954,6.0685,5.886,5.7962,5.7872,5.7244,5.6915,5.6915,5.6974,5.6519,5.5642,5.5066,5.4293,5.3424,5.2783,5.2755,5.3163,5.2952,5.2201,5.1041,5.056,4.9816,4.8831,4.8646,4.8638,4.8532,4.7885,4.6412,4.4373,4.3803,4.2597,4.0724,4.0187,3.9288,3.8088,3.838,3.8674,3.8926,3.9707,3.9988,3.9656,3.9704,3.9204,3.7878,3.7475,3.7206,3.6981,3.7061,3.7362,3.7864,3.8015,3.8065,3.8065,3.7839,3.7688,3.7638,3.7663,3.7563,3.7764,3.7688,3.7638,3.7663,3.7739,3.7839,3.7764,3.7864,3.7638,3.7086,3.6455,3.583,3.4801,3.4123,3.3596,3.3144,3.3651,3.3913,3.3606,3.4076,3.4365,3.3409,3.2336,3.0925,2.9935,2.9188,2.8724,2.7917,2.7376,2.707,2.6816,2.6269,2.5508,2.498,2.459,2.4219,2.3965,2.4062,2.4336,2.4414,2.4707,2.5117,2.5469,2.5538,2.5391,6.646,6.5622,6.5592,6.4844,6.3677,6.3228,6.3137,6.3107,6.281,6.269,6.254,6.1583,6.0894,6.0416,5.9219,5.871,5.868,5.8411,5.8291,5.8291,5.8291,5.7909,5.7123,5.6935,5.6189,5.519,5.4841,5.4664,5.4428,5.3938,5.3396,5.2833,5.2023,5.1286,5.0827,5.0397,5.022,5.0191,5.0004,4.9227,4.7775,4.5768,4.4077,4.2912,4.1901,4.0999,4.0122,4.0301,4.0632,4.0977,4.1544,4.1876,4.1946,4.1747,4.1149,4.0132,3.8909,3.8162,3.7907,3.8088,3.8266,3.8517,3.8818,3.8994,3.8994,3.8994,3.9019,3.8944,3.8417,3.799,3.8015,3.8015,3.799,3.799,3.799,3.8015,3.799,3.8015,3.7789,3.7236,3.6732,3.6153,3.5278,3.4449,3.3721,3.3294,3.3709,3.406,3.4202,3.4777,3.5225,3.5306,3.4532,3.307,3.1174,3.0338,2.9518,2.8528,2.7883,2.7641,2.7317,2.668,2.5996,2.5547,2.5098,2.4668,2.4238,2.4512,2.4805,2.4902,2.5137,2.5527,2.5654,2.5674,2.5625,6.661,6.6011,6.5622,6.4904,6.3977,6.3348,6.3137,6.3137,6.3137,6.3137,6.2987,6.1702,6.0835,6.0296,5.9488,5.9099,5.9099,5.9099,5.9099,5.9099,5.9099,5.874,5.8171,5.8112,5.7453,5.6398,5.6166,5.5837,5.5209,5.473,5.4401,5.4072,5.3054,5.2366,5.2127,5.1558,5.1229,5.1182,5.1229,5.099,5.016,4.7887,4.6007,4.4857,4.365,4.2695,4.1963,4.2193,4.2594,4.3101,4.3443,4.3713,4.4052,4.3673,4.2923,4.1718,4.0092,3.902,3.8858,3.8893,3.8944,3.9094,3.9496,3.9697,3.9697,3.9697,3.9697,3.9622,3.8944,3.8517,3.8467,3.8467,3.8467,3.8467,3.8467,3.8467,3.8492,3.8467,3.8291,3.7713,3.731,3.6458,3.5583,3.4705,3.3997,3.3746,3.4048,3.4449,3.4856,3.5382,3.5909,3.6282,3.5955,3.4679,3.246,3.1462,3.0563,2.9332,2.8531,2.8169,2.7774,2.6992,2.6426,2.5996,2.5547,2.5254,2.5019,2.5176,2.5458,2.5536,2.5644,2.5752,2.5713,2.5693,2.5615,6.661,6.5892,6.4635,6.4156,6.3977,6.3378,6.3137,6.3137,6.3137,6.3137,6.2929,6.1732,6.1104,6.0984,5.9787,5.9129,5.9099,5.9099,5.9099,5.9099,5.9099,5.877,5.8141,5.8112,5.7483,5.6406,5.6428,5.5957,5.5269,5.5149,5.482,5.4221,5.3503,5.2845,5.2306,5.1648,5.1259,5.1289,5.1259,5.1199,5.1033,5.0126,4.8424,4.6483,4.521,4.4172,4.3551,4.3882,4.4489,4.5195,4.5618,4.5991,4.6096,4.5634,4.4428,4.2401,4.0769,3.9948,3.9912,3.9447,3.9272,3.9648,3.9876,3.9747,3.9899,3.9873,3.9848,3.9747,3.9722,3.9622,3.9622,3.9471,3.9471,3.9496,3.9546,3.9521,3.9572,3.9446,3.9346,3.8768,3.814,3.7211,3.5759,3.5006,3.4826,3.4776,3.5082,3.5408,3.5483,3.5956,3.6257,3.6332,3.6096,3.5424,3.3887,3.2796,3.1517,3.032,2.9466,2.8715,2.7934,2.7285,2.6906,2.6495,2.6123,2.5889,2.5801,2.5898,2.6094,2.6152,2.6055,2.6074,2.5732,2.5693,2.5625,6.6849,6.655,6.5652,6.5054,6.4605,6.3947,6.3438,6.3137,6.3137,6.3137,6.2929,6.2121,6.1762,6.1702,6.0805,5.9907,5.9159,5.9099,5.9099,5.9099,5.9099,5.8979,5.877,5.874,5.8321,5.7543,5.7423,5.6855,5.5837,5.5418,5.5089,5.479,5.4162,5.3713,5.3324,5.2396,5.1828,5.1798,5.1439,5.1229,5.1139,5.0478,4.9472,4.8263,4.6783,4.5573,4.4545,4.5007,4.5492,4.5927,4.6373,4.6755,4.6851,4.6313,4.5417,4.4152,4.2775,4.2049,4.2024,4.1406,4.1183,4.1491,4.1411,4.1176,4.1069,4.0857,4.0752,4.0727,4.0727,4.0752,4.0601,4.0124,3.9697,3.9697,3.9697,3.9697,3.9697,3.9697,3.9471,3.8919,3.8366,3.7613,3.686,3.6408,3.6157,3.5855,3.5956,3.6056,3.6081,3.6304,3.6405,3.643,3.631,3.6071,3.566,3.4221,3.2876,3.1677,3.0734,3.0139,2.9414,2.8603,2.8178,2.7482,2.7023,2.6546,2.6438,2.6289,2.6523,2.6426,2.6348,2.6191,2.5713,2.5732,2.5547,6.6999,6.6879,6.6281,6.5772,6.5263,6.4395,6.3767,6.3348,6.3169,6.3137,6.2959,6.2391,6.2091,6.1972,6.1433,6.0655,5.9787,5.9548,5.9428,5.9398,5.9189,5.9099,5.9099,5.9099,5.877,5.8112,5.7663,5.7004,5.6196,5.5508,5.5209,5.5149,5.4521,5.4221,5.3982,5.2875,5.2187,5.2067,5.1558,5.1139,5.0853,5.0644,5.0122,4.9329,4.8351,4.7203,4.5895,4.6106,4.6446,4.6845,4.7214,4.7523,4.7864,4.7496,4.69,4.6189,4.5157,4.447,4.4294,4.366,4.3243,4.3229,4.284,4.2473,4.2076,4.1597,4.1329,4.1275,4.1275,4.1275,4.115,4.0651,4.0174,3.9998,3.9798,3.9697,3.9697,3.9697,3.9446,3.8969,3.8567,3.8065,3.7588,3.7462,3.7161,3.6732,3.6656,3.6656,3.6656,3.6505,3.6505,3.6606,3.6531,3.6383,3.6093,3.5161,3.4242,3.3135,3.2236,3.1564,3.0854,3.0083,2.9309,2.8594,2.7965,2.7361,2.701,2.6839,2.673,2.6632,2.6543,2.6465,2.6064,2.5791,2.5488,6.6999,6.6909,6.6281,6.6011,6.5772,6.4695,6.4066,6.3857,6.3348,6.3139,6.2989,6.2421,6.2211,6.2032,6.1613,6.1164,6.1014,6.0416,6.0057,5.9967,5.9368,5.9099,5.9099,5.9099,5.883,5.8171,5.6915,5.6398,5.6346,5.5688,5.5299,5.5119,5.464,5.4341,5.4251,5.3084,5.2336,5.2217,5.1708,5.0943,5.0375,5.087,5.0511,4.9539,4.9702,4.9119,4.7358,4.7342,4.7597,4.8163,4.8252,4.864,4.906,4.903,4.8939,4.8273,4.7625,4.709,4.6594,4.5867,4.5206,4.4796,4.3977,4.3336,4.2811,4.1989,4.1451,4.1476,4.1451,4.1401,4.1426,4.1354,4.1053,4.0576,4.0149,3.9898,3.9772,3.9722,3.9496,3.9044,3.8868,3.8642,3.8216,3.8115,3.7914,3.7462,3.7285,3.7186,3.7111,3.6782,3.6681,3.6933,3.6757,3.643,3.631,3.6073,3.5379,3.4581,3.3822,3.3101,3.2308,3.1488,3.0666,2.9862,2.8746,2.8178,2.783,2.7586,2.7314,2.7184,2.7016,2.668,2.6348,2.5957,2.5352,6.6999,6.6969,6.6789,6.64,6.6011,6.5562,6.4904,6.4036,6.3767,6.3468,6.3109,6.2869,6.278,6.272,6.254,6.245,6.2361,6.1343,6.0535,6.0057,5.9428,5.9099,5.9099,5.9099,5.9009,5.868,5.7932,5.7513,5.7304,5.6376,5.5867,5.5718,5.5179,5.491,5.482,5.4042,5.3593,5.3443,5.2456,5.1558,5.099,5.1063,5.0571,4.9539,4.9883,4.9703,4.8745,4.8656,4.879,4.9,4.9,4.912,4.9269,4.9299,4.9164,4.8771,4.8236,4.8021,4.799,4.7547,4.7081,4.6588,4.5698,4.4811,4.4066,4.3038,4.2489,4.2459,4.2459,4.2459,4.2409,4.2108,4.1681,4.1153,4.0927,4.0601,4.0224,3.9923,3.9647,3.9496,3.9446,3.9346,3.922,3.9145,3.8843,3.8341,3.799,3.7764,3.7638,3.6985,3.6656,3.7059,3.6707,3.648,3.6436,3.6463,3.6129,3.5599,3.5017,3.4458,3.3702,3.2967,3.2072,3.1046,2.9926,2.9104,2.8757,2.8356,2.8021,2.7554,2.7216,2.6839,2.6515,2.6035,2.5547,6.6999,6.6999,6.6999,6.6759,6.634,6.6131,6.5533,6.4695,6.4216,6.3797,6.3438,6.3169,6.3137,6.3137,6.3137,6.3137,6.2929,6.1732,6.0894,6.0356,5.9488,5.9129,5.9099,5.9099,5.9099,5.8979,5.8441,5.8141,5.8052,5.6855,5.6218,5.6098,5.5508,5.5179,5.5119,5.4551,5.4221,5.4012,5.2875,5.1887,5.1379,5.1229,5.069,4.9883,5.0272,5.0361,5.0002,5.0002,4.9883,4.9733,4.9823,5.0002,5.0002,5.0032,4.9956,4.9743,4.9512,4.941,4.9574,4.9366,4.8933,4.8289,4.7098,4.5952,4.4993,4.3848,4.3042,4.2986,4.2961,4.2986,4.2911,4.2685,4.2308,4.2007,4.1476,4.1075,4.0601,4.0224,3.9898,3.9772,3.9672,3.9697,3.9697,3.9672,3.9471,3.8994,3.8567,3.8316,3.8115,3.7436,3.7285,3.7109,3.6807,3.6707,3.6732,3.6734,3.6784,3.6495,3.6109,3.5598,3.4969,3.4484,3.3756,3.2555,3.1378,3.0529,3.0079,2.9208,2.8645,2.8076,2.7699,2.7184,2.6816,2.6465,2.5957,6.6999,6.6999,6.6999,6.6969,6.6879,6.634,6.6011,6.5742,6.4665,6.4066,6.3857,6.3318,6.3137,6.3137,6.3137,6.3137,6.2839,6.1852,6.1253,6.0835,5.9907,5.9219,5.9129,5.9099,5.9099,5.9009,5.853,5.8261,5.8231,5.7094,5.6338,5.6376,5.5777,5.5269,5.5209,5.461,5.4341,5.4192,5.3054,5.2127,5.1439,5.1409,5.102,5.0345,5.099,5.1379,5.1319,5.1319,5.099,5.0435,5.078,5.102,5.1169,5.1152,5.1079,5.1003,5.1122,5.1016,5.1122,5.0875,5.0526,4.9542,4.8016,4.6709,4.5608,4.4152,4.3129,4.3098,4.3042,4.2986,4.2986,4.2936,4.2886,4.2836,4.2032,4.1225,4.0752,4.0626,4.04,4.0023,3.9823,3.9823,3.9923,3.9898,3.9546,3.917,3.8919,3.8743,3.8417,3.7814,3.7538,3.7211,3.6883,3.6857,3.681,3.6935,3.7036,3.7238,3.6919,3.6548,3.5984,3.5477,3.492,3.3775,3.2891,3.204,3.1234,3.0385,2.9758,2.9342,2.8696,2.7784,2.7282,2.6971,2.6369,6.6999,6.6999,6.6999,6.6999,6.6969,6.6789,6.643,6.5951,6.5114,6.4455,6.3977,6.3348,6.3137,6.3137,6.3137,6.3137,6.2839,6.2181,6.1822,6.1613,6.0446,5.9548,5.9189,5.9099,5.9099,5.9069,5.889,5.886,5.877,5.7932,5.7543,5.7573,5.6406,5.5948,5.5807,5.5209,5.497,5.485,5.4132,5.3054,5.2187,5.2396,5.2067,5.1169,5.2037,5.2576,5.2636,5.2665,5.2097,5.1033,5.1109,5.1229,5.1289,5.1319,5.1349,5.1349,5.1289,5.1259,5.1259,5.1289,5.0834,5.0009,4.8788,4.7304,4.6269,4.4642,4.3683,4.3351,4.3129,4.3011,4.3011,4.3011,4.3011,4.2911,4.2359,4.1856,4.1656,4.1354,4.1,4.0874,4.0799,4.0774,4.0674,4.0501,4.0099,3.9572,3.9246,3.8869,3.8542,3.8015,3.7613,3.7211,3.6933,3.6885,3.6935,3.7086,3.7337,3.7739,3.7664,3.7415,3.6673,3.5938,3.526,3.4434,3.4093,3.3389,3.2582,3.1728,3.1164,3.0721,2.9815,2.9024,2.8198,2.7693,2.6843,6.6999,6.6999,6.6999,6.6999,6.6999,6.6999,6.6759,6.6281,6.5413,6.4814,6.4306,6.3438,6.3137,6.3137,6.3137,6.3137,6.2989,6.2391,6.2091,6.1882,6.0685,5.9757,5.9249,5.9099,5.9099,5.9099,5.9099,5.9099,5.8979,5.8441,5.8171,5.7842,5.6825,5.6248,5.6107,5.5538,5.5209,5.5059,5.4521,5.3653,5.2755,5.2965,5.2606,5.2007,5.2636,5.3174,5.3174,5.3174,5.2785,5.2187,5.2037,5.2037,5.2037,5.2037,5.2037,5.2037,5.2037,5.2037,5.2037,5.2037,5.175,5.1072,4.9947,4.8855,4.7716,4.614,4.5015,4.4566,4.406,4.3721,4.3614,4.3463,4.3338,4.3288,4.2836,4.2464,4.2238,4.1856,4.158,4.1376,4.1275,4.1275,4.1275,4.1053,4.0626,4.0174,3.9823,3.9371,3.8919,3.8266,3.7814,3.7637,3.7461,3.7462,3.7688,3.7889,3.8115,3.8467,3.8241,3.804,3.7341,3.6476,3.5986,3.5502,3.5187,3.4775,3.3997,3.3264,3.2796,3.2101,3.1142,3.0341,2.9576,2.869,2.7754,6.6999,6.6999,6.6999,6.6999,6.6999,6.6999,6.6969,6.6729,6.5592,6.5024,6.4695,6.3647,6.3166,6.3137,6.3137,6.3137,6.3049,6.254,6.2241,6.1822,6.0984,6.0086,5.9368,5.9159,5.9129,5.9099,5.9099,5.9099,5.8979,5.8501,5.8291,5.8052,5.7064,5.6496,5.6466,5.5867,5.5448,5.5418,5.497,5.4192,5.3503,5.3473,5.3174,5.2576,5.3174,5.3563,5.3563,5.3503,5.3414,5.3414,5.3264,5.3054,5.3084,5.3144,5.3114,5.3025,5.2965,5.2995,5.3114,5.2995,5.2889,5.226,5.1503,5.0755,4.9417,4.792,4.6687,4.6017,4.5228,4.4699,4.4392,4.4091,4.3765,4.3614,4.3263,4.2816,4.2439,4.2288,4.2057,4.1605,4.1476,4.1451,4.1451,4.1376,4.1229,4.1003,4.0601,4.0149,3.9647,3.9094,3.8743,3.8567,3.8391,3.8165,3.8442,3.8793,3.9019,3.9245,3.8818,3.8467,3.7889,3.724,3.6837,3.6468,3.6183,3.594,3.5551,3.4919,3.4239,3.3578,3.2596,3.1873,3.1158,3.0113,2.9155,6.6999,6.6999,6.6999,6.6999,6.6999,6.6999,6.6999,6.6879,6.5592,6.5024,6.4725,6.3647,6.3166,6.3137,6.3137,6.3137,6.3137,6.2839,6.263,6.2061,6.1882,6.0954,5.9967,5.9398,5.9129,5.9099,5.9099,5.9099,5.9039,5.8949,5.889,5.871,5.8022,5.7693,5.7513,5.6855,5.6675,5.6555,5.6017,5.5059,5.4281,5.4401,5.4102,5.3264,5.4072,5.467,5.476,5.476,5.476,5.4521,5.3832,5.3354,5.3324,5.3294,5.3324,5.3324,5.3264,5.3283,5.3204,5.3294,5.3107,5.2833,5.2385,5.1425,5.0554,4.9297,4.8055,4.7147,4.6052,4.5381,4.4777,4.4166,4.3966,4.384,4.3438,4.3011,4.2836,4.2785,4.266,4.2585,4.2534,4.261,4.2585,4.2133,4.1932,4.181,4.1379,4.0927,4.0425,3.9898,3.9572,3.932,3.8994,3.8768,3.8818,3.9145,3.932,3.9546,3.9245,3.9019,3.8417,3.804,3.7688,3.7437,3.7213,3.6869,3.6354,3.5743,3.4848,3.4434,3.4091,3.3438,3.2643,3.1565,3.0833,6.6999,6.6999,6.6999,6.6999,6.6999,6.6999,6.6999,6.6729,6.5592,6.5024,6.4755,6.3647,6.3137,6.3137,6.3137,6.3137,6.3137,6.3107,6.272,6.2211,6.2032,6.1313,6.0296,5.9727,5.9428,5.9189,5.9099,5.9099,5.9099,5.9099,5.9069,5.9039,5.8471,5.8082,5.8022,5.7483,5.7094,5.6915,5.6466,5.5658,5.491,5.497,5.4999,5.4311,5.482,5.5209,5.5149,5.5179,5.5179,5.4999,5.4521,5.4132,5.4102,5.4132,5.4102,5.4102,5.4102,5.4132,5.4132,5.4132,5.4112,5.3903,5.3624,5.3171,5.2426,5.1356,5.029,4.9172,4.7914,4.6598,4.5548,4.492,4.4644,4.4493,4.4091,4.3765,4.3664,4.3313,4.2986,4.2986,4.2911,4.2936,4.2836,4.264,4.2414,4.2112,4.2011,4.153,4.1075,4.0573,4.03,3.9973,3.9597,3.9371,3.9295,3.9371,3.9497,3.9572,3.9521,3.9396,3.9145,3.8868,3.8617,3.8216,3.7764,3.7312,3.6744,3.6132,3.5766,3.5548,3.5235,3.4848,3.4339,3.349,3.3043,6.6999,6.6999,6.6999,6.6999,6.6999,6.6999,6.6999,6.6789,6.5592,6.5024,6.4784,6.3647,6.3137,6.3137,6.3137,6.3137,6.3137,6.3107,6.275,6.2421,6.2361,6.1553,6.0595,6.0236,5.9817,5.9189,5.9099,5.9099,5.9099,5.9099,5.9099,5.9009,5.862,5.8411,5.8171,5.7782,5.7573,5.7543,5.7004,5.6316,5.5688,5.5598,5.5568,5.5538,5.5568,5.5658,5.5688,5.5658,5.5568,5.5478,5.5478,5.5478,5.5448,5.5239,5.5179,5.5119,5.5029,5.497,5.494,5.5029,5.5059,5.5209,5.5149,5.4866,5.4164,5.3321,5.2313,5.1043,4.9626,4.7788,4.6585,4.5766,4.554,4.5296,4.492,4.4669,4.4443,4.3714,4.3263,4.3137,4.3062,4.2986,4.2986,4.2861,4.2665,4.2464,4.2363,4.2133,4.1756,4.1351,4.1078,4.0827,4.0501,4.0023,3.9873,3.9496,3.9597,3.9446,3.9496,3.9496,3.9521,3.9371,3.9019,3.8567,3.8115,3.7739,3.7462,3.7067,3.6818,3.6659,3.6393,3.6037,3.5722,3.5454,3.501,6.6999,6.6999,6.6999,6.6999,6.6999,6.6999,6.6999,6.6759,6.5592,6.5024,6.4844,6.3677,6.3137,6.3137,6.3137,6.3137,6.3137,6.3107,6.3047,6.2839,6.278,6.2121,6.1044,6.0775,6.0236,5.9398,5.9099,5.9099,5.9099,5.9099,5.9099,5.9069,5.8949,5.889,5.883,5.88,5.859,5.8411,5.7902,5.7274,5.6855,5.6615,5.6585,5.6585,5.6555,5.6585,5.6675,5.6735,5.6765,5.6765,5.6765,5.6735,5.6496,5.5777,5.5388,5.5359,5.5388,5.5448,5.5418,5.5299,5.5239,5.5209,5.5329,5.5197,5.476,5.4185,5.354,5.2167,5.0405,4.8526,4.718,4.6417,4.5784,4.549,4.5121,4.4744,4.4593,4.4192,4.3765,4.379,4.3413,4.2986,4.2986,4.2986,4.2836,4.2766,4.266,4.2635,4.2459,4.2158,4.1936,4.1656,4.1455,4.0927,4.0475,3.9948,3.9647,3.9295,3.9245,3.9245,3.932,3.9521,3.932,3.8969,3.8743,3.8492,3.8216,3.7889,3.7663,3.7362,3.7238,3.7114,3.6923,3.6628,3.6429,6.6999,6.6999,6.6999,6.6999,6.6999,6.6999,6.6999,6.6789,6.5622,6.5024,6.4635,6.3707,6.3137,6.3137,6.3137,6.3137,6.3137,6.3137,6.3137,6.3137,6.3077,6.2361,6.1253,6.1134,6.0296,5.9458,5.9099,5.9129,5.9099,5.9099,5.9099,5.9099,5.9099,5.9099,5.9099,5.9069,5.9099,5.8949,5.8471,5.7992,5.7603,5.7363,5.7124,5.7124,5.7124,5.7094,5.7094,5.7094,5.7094,5.7064,5.7094,5.7094,5.6944,5.6645,5.6166,5.6166,5.6137,5.6166,5.6166,5.6166,5.6226,5.6196,5.6137,5.6115,5.596,5.5679,5.4756,5.3267,5.1541,4.9589,4.8094,4.7276,4.6637,4.6053,4.5623,4.5472,4.5347,4.4945,4.4694,4.4418,4.3689,4.3212,4.2986,4.2986,4.2986,4.2986,4.2986,4.2986,4.2986,4.2816,4.2489,4.2187,4.1856,4.1379,4.0852,4.035,3.9898,3.9496,3.922,3.922,3.9346,3.9672,3.9697,3.9521,3.932,3.9045,3.8668,3.8241,3.814,3.799,3.7638,3.7464,3.7816,3.7817,3.7541,6.6999,6.6999,6.6999,6.6999,6.6999,6.6999,6.6999,6.6729,6.5592,6.5024,6.4844,6.3707,6.3137,6.3137,6.3137,6.3137,6.3137,6.3137,6.3137,6.3137,6.3049,6.2391,6.1613,6.1164,6.0775,5.9937,5.9697,5.9338,5.9129,5.9099,5.9099,5.9099,5.9099,5.9099,5.9099,5.9099,5.9099,5.8949,5.865,5.8321,5.8171,5.7812,5.7483,5.7483,5.7483,5.7573,5.7663,5.7693,5.7663,5.7663,5.7603,5.7543,5.7513,5.7513,5.7483,5.7453,5.7274,5.7124,5.7064,5.7004,5.6885,5.6885,5.7034,5.7064,5.6892,5.6415,5.587,5.4235,5.2559,5.0795,4.9247,4.8384,4.7652,4.6968,4.667,4.6525,4.6263,4.5935,4.5439,4.4852,4.3972,4.3614,4.3589,4.3263,4.3338,4.3187,4.3187,4.2986,4.2986,4.2986,4.271,4.2409,4.2082,4.1656,4.1178,4.0701,4.0325,3.9973,3.9697,3.9572,3.9722,3.9923,3.9923,3.9948,3.9496,3.9246,3.8868,3.8743,3.8768,3.8542,3.7914,3.7939,3.8492,3.8617,3.8341,6.6999,6.6999,6.6999,6.6999,6.6999,6.6999,6.6999,6.6819,6.5592,6.5024,6.4934,6.3707,6.3137,6.3137,6.3137,6.3137,6.3137,6.3137,6.3137,6.3137,6.3049,6.266,6.2032,6.2002,6.1433,6.0685,6.0685,6.0146,5.9488,5.9219,5.9129,5.9129,5.9099,5.9099,5.9099,5.9099,5.9099,5.9099,5.9009,5.8949,5.8919,5.88,5.874,5.874,5.874,5.868,5.862,5.862,5.865,5.871,5.877,5.883,5.889,5.886,5.886,5.853,5.7902,5.7124,5.7244,5.7334,5.7334,5.7363,5.7304,5.7154,5.7132,5.6557,5.5804,5.4937,5.337,5.1922,5.0545,4.9702,4.8899,4.8262,4.7795,4.7501,4.7129,4.6645,4.6197,4.5581,4.4794,4.4593,4.4518,4.4066,4.3689,4.3514,4.3338,4.3137,4.2986,4.2986,4.2986,4.2685,4.2509,4.2108,4.1555,4.1078,4.0777,4.045,4.0174,3.9973,4.0224,4.0425,4.0425,4.0325,3.9898,3.9622,3.9496,3.9446,3.9471,3.912,3.8567,3.8843,3.9421,3.9295,3.8919,6.6999,6.6999,6.6999,6.6999,6.6999,6.6999,6.6999,6.67,6.5622,6.5024,6.4784,6.3647,6.3137,6.3137,6.3137,6.3137,6.3137,6.3137,6.3137,6.3137,6.3077,6.275,6.2211,6.2061,6.1732,6.1343,6.1044,6.0565,5.9907,5.9638,5.9518,5.9129,5.9099,5.9099,5.9099,5.9099,5.9099,5.9099,5.9099,5.9099,5.9099,5.9099,5.9099,5.9099,5.9099,5.9099,5.9099,5.9099,5.9099,5.9099,5.9099,5.9099,5.9099,5.9099,5.9099,5.9039,5.862,5.8291,5.8261,5.8201,5.8141,5.8201,5.8201,5.8291,5.7969,5.7169,5.6385,5.6176,5.455,5.3107,5.2,5.1347,5.0546,4.9845,4.919,4.8526,4.8035,4.7372,4.6839,4.6239,4.5723,4.5497,4.5146,4.4493,4.4066,4.3865,4.3564,4.3212,4.3062,4.2986,4.2986,4.2936,4.2811,4.2635,4.2032,4.148,4.1254,4.0953,4.0551,4.0501,4.0827,4.0924,4.0978,4.0978,4.0777,4.0526,4.0249,3.9898,3.9672,3.9471,3.9296,3.9421,3.9572,3.927,3.8994,6.6999,6.6999,6.6999,6.6999,6.6999,6.6999,6.6879,6.661,6.5533,6.4934,6.4515,6.3588,6.3137,6.3137,6.3137,6.3137,6.3137,6.3137,6.3137,6.3137,6.3077,6.281,6.254,6.2331,6.2151,6.1583,6.1792,6.1343,6.0864,6.0535,6.0176,5.9189,5.9099,5.9099,5.9099,5.9099,5.9099,5.9099,5.9099,5.9099,5.9099,5.9099,5.9099,5.9099,5.9099,5.9099,5.9099,5.9099,5.9099,5.9099,5.9099,5.9099,5.9099,5.9099,5.9099,5.9099,5.8919,5.8919,5.8919,5.8919,5.9099,5.9099,5.9099,5.889,5.88,5.7902,5.7094,5.69,5.5353,5.4111,5.3361,5.2644,5.2,5.1292,5.0629,4.9845,4.9106,4.8479,4.7607,4.679,4.6348,4.621,4.5732,4.4895,4.4443,4.4217,4.384,4.3388,4.3212,4.3162,4.3062,4.3062,4.2936,4.2836,4.2509,4.2007,4.1756,4.1505,4.1103,4.1178,4.1605,4.163,4.153,4.153,4.1505,4.11,4.0727,4.0275,3.9848,3.9622,3.9471,3.9446,3.9421,3.917,3.9145,6.6999,6.6999,6.6969,6.6939,6.6939,6.6969,6.661,6.6041,6.5293,6.4605,6.4036,6.3408,6.3137,6.3137,6.3137,6.3137,6.3137,6.3137,6.3137,6.3137,6.3107,6.3019,6.2927,6.2869,6.2899,6.278,6.263,6.2331,6.2002,6.1583,6.0655,5.9398,5.9488,5.9249,5.9279,5.9458,5.9428,5.9398,5.9338,5.9219,5.9189,5.9159,5.9099,5.9099,5.9099,5.9099,5.9099,5.9099,5.9099,5.9099,5.9099,5.9099,5.9099,5.9099,5.9099,5.9099,5.9099,5.9099,5.9099,5.9099,5.9099,5.9099,5.9099,5.9099,5.9039,5.7902,5.7244,5.7094,5.5797,5.4805,5.4081,5.3524,5.3097,5.2726,5.2136,5.1347,5.0518,4.9616,4.8673,4.756,4.6934,4.6721,4.6311,4.5497,4.507,4.4844,4.4392,4.3915,4.3639,4.3514,4.3263,4.3162,4.3037,4.2936,4.2886,4.2534,4.2108,4.2057,4.1882,4.2133,4.2559,4.2434,4.2108,4.2032,4.1957,4.1605,4.1279,4.0953,4.0551,3.9948,3.9672,3.9597,3.9597,3.9471,3.9471,6.6161,6.5772,6.5802,6.6011,6.634,6.5951,6.5652,6.5323,6.4695,6.4036,6.3438,6.3199,6.3137,6.3137,6.3137,6.3137,6.3137,6.3137,6.3137,6.3137,6.3137,6.3137,6.3137,6.3137,6.3137,6.3137,6.3049,6.275,6.2121,6.2181,6.1523,6.0625,6.0356,6.0356,6.0356,6.0206,6.0236,6.0146,5.9907,5.9697,5.9608,5.9279,5.9099,5.9099,5.9099,5.9099,5.9099,5.9099,5.9099,5.9099,5.9099,5.9099,5.9099,5.9099,5.9099,5.9099,5.9099,5.9099,5.9099,5.9099,5.9099,5.9099,5.9099,5.9099,5.9069,5.8201,5.7812,5.7281,5.6452,5.5478,5.5367,5.4856,5.4436,5.4126,5.3605,5.2837,5.192,5.0906,4.9673,4.8469,4.7619,4.7138,4.667,4.61,4.5773,4.5472,4.497,4.4493,4.4217,4.394,4.374,4.3463,4.3338,4.3212,4.3162,4.2811,4.2514,4.2564,4.2665,4.2816,4.2961,4.2911,4.2635,4.2559,4.2434,4.2183,4.1932,4.1706,4.1204,4.0501,3.9998,3.9672,3.9697,3.9722,3.9697,6.5443,6.4964,6.4814,6.5084,6.5622,6.5233,6.4904,6.4665,6.4216,6.3647,6.3137,6.3137,6.3137,6.3137,6.3137,6.3137,6.3137,6.3137,6.3137,6.3137,6.3137,6.3137,6.3137,6.3137,6.3137,6.3137,6.3049,6.278,6.248,6.2391,6.2121,6.1852,6.1672,6.1523,6.1044,6.1134,6.1134,6.0954,6.0475,6.0086,5.9967,5.9458,5.9129,5.9099,5.9099,5.9099,5.9099,5.9099,5.9099,5.9099,5.9099,5.9099,5.9099,5.9099,5.9099,5.9099,5.9099,5.9099,5.9099,5.9099,5.9099,5.9099,5.9099,5.9099,5.8949,5.853,5.8052,5.7962,5.7094,5.6436,5.6436,5.6034,5.5594,5.5234,5.4827,5.4142,5.3107,5.211,5.0712,4.9418,4.87,4.8029,4.7501,4.7036,4.6637,4.6231,4.5723,4.5221,4.4794,4.4543,4.4292,4.4016,4.3714,4.3614,4.3489,4.3438,4.3388,4.3112,4.3137,4.2936,4.3011,4.3011,4.2986,4.2836,4.2735,4.271,4.2484,4.2133,4.158,4.0953,4.0475,4.0049,3.9923,3.9948,3.9747,6.4964,6.4934,6.4276,6.4395,6.4964,6.5024,6.4605,6.4066,6.3947,6.3617,6.3166,6.3137,6.3137,6.3137,6.3137,6.3137,6.3137,6.3137,6.3137,6.3137,6.3137,6.3137,6.3137,6.3137,6.3137,6.3137,6.3137,6.3019,6.2959,6.2899,6.2839,6.2839,6.26,6.2301,6.1253,6.1164,6.1164,6.1074,6.0565,6.0356,6.0206,5.9757,5.9488,5.9458,5.9458,5.9518,5.9518,5.9338,5.9338,5.9308,5.9159,5.9129,5.9099,5.9099,5.9099,5.9099,5.9099,5.9099,5.9099,5.9099,5.9099,5.9099,5.9099,5.9099,5.8979,5.859,5.8261,5.8291,5.7543,5.7154,5.7064,5.6944,5.6555,5.6115,5.5678,5.5153,5.4071,5.3232,5.192,5.0851,4.9985,4.9244,4.8611,4.8114,4.756,4.7061,4.6456,4.5949,4.549,4.5045,4.4769,4.4418,4.4091,4.4116,4.4091,4.4342,4.4292,4.3966,4.3589,4.3313,4.3087,4.2986,4.2986,4.2986,4.2936,4.2861,4.2766,4.2564,4.2057,4.1605,4.0927,4.0501,4.035,4.0149,3.9948,6.4096,6.3707,6.3498,6.3528,6.3707,6.3737,6.3588,6.3408,6.3378,6.3258,6.3109,6.3137,6.3137,6.3137,6.3137,6.3137,6.3137,6.3137,6.3137,6.3137,6.3137,6.3137,6.3137,6.3137,6.3137,6.3137,6.3137,6.3137,6.3107,6.3137,6.3137,6.3137,6.3107,6.2869,6.254,6.2421,6.2421,6.2301,6.1852,6.1433,6.1313,6.0775,6.0356,6.0356,6.0326,6.0296,6.0236,5.9937,5.9668,5.9578,5.9398,5.9129,5.9099,5.9099,5.9099,5.9099,5.9099,5.9099,5.9099,5.9099,5.9099,5.9099,5.9099,5.9099,5.9039,5.8949,5.88,5.862,5.8141,5.7842,5.7752,5.7304,5.6825,5.6286,5.5914,5.5564,5.4856,5.4185,5.3256,5.243,5.162,5.0796,5.0126,4.9702,4.919,4.8411,4.7886,4.6679,4.5994,4.5548,4.5146,4.4744,4.4468,4.4543,4.4644,4.4895,4.4694,4.4217,4.384,4.3489,4.3288,4.3212,4.3087,4.3137,4.3062,4.2961,4.2836,4.2791,4.271,4.2308,4.1656,4.1003,4.0701,4.045,4.0174,6.3438,6.3079,6.3137,6.3137,6.3137,6.3137,6.3137,6.3137,6.3137,6.3137,6.3137,6.3137,6.3137,6.3137,6.3137,6.3137,6.3137,6.3137,6.3137,6.3137,6.3137,6.3137,6.3137,6.3137,6.3137,6.3137,6.3137,6.3137,6.3137,6.3137,6.3137,6.3137,6.3137,6.3077,6.3017,6.3017,6.3017,6.275,6.2301,6.1942,6.1792,6.1433,6.1044,6.1044,6.1044,6.1044,6.0894,6.0565,6.0086,5.9937,5.9578,5.9159,5.9159,5.9129,5.9129,5.9099,5.9099,5.9099,5.9099,5.9099,5.9099,5.9099,5.9099,5.9099,5.9099,5.9069,5.9069,5.8919,5.865,5.853,5.8321,5.7782,5.7483,5.6974,5.6675,5.6354,5.5863,5.5219,5.4649,5.3849,5.314,5.2358,5.1646,5.1401,5.0962,5.0126,4.9304,4.8037,4.6751,4.6205,4.5775,4.5414,4.5179,4.5271,4.5347,4.5422,4.5095,4.4493,4.4217,4.4016,4.389,4.3865,4.3564,4.3313,4.3313,4.3263,4.3062,4.2936,4.2861,4.2735,4.2409,4.1781,4.1178,4.0852,4.0626,6.3137,6.3137,6.3137,6.3137,6.3137,6.3137,6.3137,6.3137,6.3137,6.3137,6.3137,6.3137,6.3137,6.3137,6.3137,6.3137,6.3137,6.3137,6.3137,6.3137,6.3137,6.3137,6.3137,6.3137,6.3137,6.3137,6.3137,6.3137,6.3137,6.3137,6.3137,6.3137,6.3137,6.3137,6.3137,6.3137,6.3137,6.2899,6.263,6.2361,6.2211,6.1762,6.1583,6.1553,6.1523,6.1523,6.1313,6.0864,6.0505,6.0146,5.9697,5.9398,5.9219,5.9159,5.9159,5.9099,5.9099,5.9099,5.9099,5.9099,5.9099,5.9099,5.9099,5.9099,5.9099,5.9099,5.9099,5.9099,5.8949,5.9009,5.8919,5.874,5.856,5.8201,5.7902,5.746,5.6982,5.6422,5.5841,5.5184,5.4568,5.3859,5.3107,5.2755,5.257,5.1892,5.1017,4.996,4.8665,4.7052,4.6679,4.6467,4.6247,4.622,4.6185,4.5959,4.5573,4.4995,4.5045,4.4895,4.4744,4.4392,4.4016,4.374,4.3714,4.3539,4.3137,4.2986,4.2961,4.2836,4.271,4.2359,4.1706,4.148,4.1279,6.3137,6.3137,6.3137,6.3137,6.3137,6.3137,6.3137,6.3137,6.3137,6.3137,6.3137,6.3137,6.3137,6.3137,6.3137,6.3137,6.3137,6.3137,6.3137,6.3137,6.3137,6.3137,6.3137,6.3137,6.3137,6.3137,6.3137,6.3137,6.3137,6.3137,6.3137,6.3137,6.3137,6.3137,6.3137,6.3137,6.3137,6.3077,6.281,6.275,6.272,6.245,6.2361,6.2331,6.2331,6.2331,6.2181,6.1702,6.1403,6.1313,6.0835,6.0535,6.0535,6.0086,5.9697,5.9159,5.9099,5.9099,5.9099,5.9099,5.9099,5.9099,5.9099,5.9099,5.9099,5.9099,5.9099,5.9099,5.9099,5.9099,5.9099,5.9009,5.883,5.856,5.8291,5.8022,5.755,5.7288,5.6756,5.6176,5.5588,5.5152,5.4397,5.4244,5.3984,5.35,5.2697,5.1674,5.0435,4.8846,4.7736,4.7501,4.7112,4.6993,4.6601,4.639,4.5993,4.5598,4.5598,4.5447,4.502,4.4669,4.4342,4.4116,4.3966,4.3564,4.3062,4.3037,4.3162,4.3011,4.2886,4.2665,4.2363,4.2057,4.1831,6.3137,6.3137,6.3137,6.3137,6.3137,6.3137,6.3137,6.3137,6.3137,6.3137,6.3137,6.3137,6.3137,6.3137,6.3137,6.3137,6.3137,6.3137,6.3137,6.3137,6.3137,6.3137,6.3137,6.3137,6.3137,6.3137,6.3137,6.3137,6.3137,6.3137,6.3137,6.3137,6.3137,6.3137,6.3137,6.3137,6.3137,6.3137,6.3107,6.3137,6.3137,6.3137,6.3137,6.3137,6.3137,6.3137,6.3047,6.245,6.2151,6.2002,6.1463,6.1134,6.0984,6.0446,5.9787,5.9249,5.9099,5.9099,5.9099,5.9099,5.9099,5.9129,5.9159,5.9099,5.9099,5.9099,5.9099,5.9099,5.9099,5.9099,5.9099,5.9069,5.883,5.859,5.8471,5.8351,5.8171,5.7992,5.7543,5.6982,5.6593,5.6153,5.5876,5.5718,5.5385,5.4687,5.3937,5.302,5.1837,5.0435,4.9335,4.8789,4.8152,4.7652,4.7205,4.684,4.6399,4.6043,4.5949,4.5748,4.5296,4.5171,4.507,4.4644,4.4141,4.3815,4.3564,4.3388,4.3388,4.3263,4.3112,4.2836,4.274,4.2585,4.2333,6.3137,6.3137,6.3137,6.3137,6.3137,6.3137,6.3137,6.3137,6.3137,6.3137,6.3137,6.3137,6.3137,6.3137,6.3137,6.3137,6.3137,6.3137,6.3137,6.3137,6.3137,6.3137,6.3137,6.3137,6.3137,6.3137,6.3137,6.3137,6.3137,6.3137,6.3137,6.3137,6.3137,6.3137,6.3137,6.3137,6.3137,6.3137,6.3137,6.3137,6.3137,6.3137,6.3137,6.3137,6.3137,6.3137,6.2929,6.26,6.2181,6.1972,6.1762,6.1433,6.1074,6.0805,6.0116,5.9668,5.9608,5.9578,5.9608,5.9638,5.9518,5.9428,5.9249,5.9308,5.9368,5.9159,5.9129,5.9099,5.9099,5.9099,5.9099,5.9099,5.8949,5.886,5.88,5.874,5.868,5.8411,5.7992,5.7483,5.7034,5.6705,5.6496,5.6286,5.5867,5.5456,5.4849,5.4,5.3337,5.2108,5.1044,5.0182,4.9362,4.8616,4.8029,4.7527,4.69,4.6585,4.656,4.6298,4.6019,4.5944,4.5899,4.5146,4.4367,4.4468,4.4317,4.4066,4.379,4.3589,4.3413,4.3112,4.2986,4.2936,4.2785,6.3137,6.3137,6.3137,6.3137,6.3137,6.3137,6.3137,6.3137,6.3137,6.3137,6.3137,6.3137,6.3137,6.3137,6.3137,6.3137,6.3137,6.3137,6.3137,6.3137,6.3137,6.3137,6.3137,6.3137,6.3137,6.3137,6.3137,6.3137,6.3137,6.3137,6.3137,6.3137,6.3137,6.3137,6.3137,6.3137,6.3137,6.3137,6.3137,6.3137,6.3137,6.3137,6.3137,6.3137,6.3137,6.3137,6.3077,6.2959,6.281,6.278,6.272,6.2361,6.1882,6.1672,6.1253,6.0775,6.0475,6.0446,6.0416,6.0386,6.0386,6.0326,6.0176,5.9967,5.9727,5.9338,5.9129,5.9129,5.9099,5.9099,5.9099,5.9099,5.9099,5.9099,5.9099,5.9099,5.9099,5.877,5.8381,5.7992,5.7513,5.7304,5.7124,5.6765,5.6316,5.5846,5.5326,5.4824,5.4803,5.3971,5.2779,5.1811,5.0601,4.9843,4.916,4.8526,4.8061,4.7854,4.7919,4.7477,4.6894,4.6331,4.591,4.5213,4.4618,4.4844,4.4895,4.4568,4.4317,4.4116,4.3815,4.3589,4.3263,4.3137,4.3037,6.3137,6.3137,6.3137,6.3137,6.3137,6.3137,6.3137,6.3137,6.3137,6.3137,6.3137,6.3137,6.3137,6.3137,6.3137,6.3137,6.3137,6.3137,6.3137,6.3137,6.3137,6.3137,6.3137,6.3137,6.3137,6.3137,6.3137,6.3137,6.3137,6.3137,6.3137,6.3137,6.3137,6.3137,6.3137,6.3137,6.3137,6.3137,6.3137,6.3137,6.3137,6.3137,6.3137,6.3137,6.3137,6.3137,6.3137,6.3137,6.3137,6.3079,6.3047,6.263,6.2211,6.2002,6.1702,6.1253,6.1044,6.1104,6.1164,6.1194,6.1224,6.1044,6.0894,6.0565,5.9997,5.9638,5.9368,5.9338,5.9129,5.9099,5.9099,5.9099,5.9099,5.9099,5.9099,5.9099,5.9099,5.8949,5.877,5.865,5.8351,5.8291,5.8052,5.7693,5.7274,5.6974,5.6376,5.5628,5.5568,5.5269,5.4259,5.3366,5.2136,5.132,5.0796,5.0155,4.9478,4.9335,4.9247,4.844,4.7722,4.6636,4.5751,4.5403,4.5296,4.5472,4.5422,4.5238,4.5053,4.4844,4.4468,4.4116,4.3765,4.3551,4.3501,6.3137,6.3137,6.3137,6.3137,6.3137,6.3137,6.3137,6.3137,6.3137,6.3137,6.3137,6.3137,6.3137,6.3137,6.3137,6.3137,6.3137,6.3137,6.3137,6.3137,6.3137,6.3137,6.3137,6.3137,6.3137,6.3137,6.3137,6.3137,6.3137,6.3137,6.3137,6.3137,6.3137,6.3137,6.3137,6.3137,6.3137,6.3137,6.3137,6.3137,6.3137,6.3137,6.3137,6.3137,6.3137,6.3137,6.3137,6.3137,6.3137,6.3137,6.3137,6.281,6.254,6.2361,6.2091,6.1762,6.1672,6.1642,6.1553,6.1642,6.1553,6.1433,6.1313,6.1014,6.0505,6.0146,5.9877,5.9638,5.9428,5.9159,5.9159,5.9129,5.9129,5.9099,5.9099,5.9099,5.9099,5.9069,5.9069,5.9069,5.9039,5.9009,5.877,5.8411,5.8112,5.7842,5.7334,5.6645,5.6068,5.5508,5.4773,5.4333,5.3652,5.2992,5.2295,5.1646,5.0879,5.0823,5.0602,4.955,4.8554,4.7608,4.6814,4.6127,4.6095,4.6467,4.6425,4.6281,4.5978,4.5691,4.5363,4.4991,4.4662,4.4383,4.415,6.3137,6.3137,6.3137,6.3137,6.3137,6.3137,6.3137,6.3137,6.3137,6.3137,6.3137,6.3137,6.3137,6.3137,6.3137,6.3137,6.3137,6.3137,6.3137,6.3137,6.3137,6.3137,6.3137,6.3137,6.3137,6.3137,6.3137,6.3137,6.3137,6.3137,6.3137,6.3137,6.3137,6.3137,6.3137,6.3137,6.3137,6.3137,6.3137,6.3137,6.3166,6.3166,6.3137,6.3137,6.3137,6.3137,6.3137,6.3137,6.3137,6.3137,6.3137,6.2959,6.2869,6.278,6.26,6.248,6.2391,6.2421,6.2391,6.2391,6.2331,6.2361,6.2211,6.1822,6.1373,6.1044,6.0745,6.0446,6.0116,5.9488,5.9338,5.9249,5.9219,5.9159,5.9099,5.9099,5.9099,5.9099,5.9099,5.9099,5.9099,5.9069,5.9009,5.865,5.8291,5.7902,5.7244,5.6645,5.6496,5.5897,5.5299,5.5126,5.487,5.42,5.339,5.2914,5.2298,5.2244,5.1969,5.0926,4.9886,4.8809,4.8023,4.7424,4.7502,4.7814,4.7691,4.7587,4.6997,4.6681,4.632,4.5955,4.5649,4.54,4.5278]}]]